<?xml version="1.0" encoding="UTF-8" standalone="no" ?>
<gpx xmlns="http://www.topografix.com/GPX/1/1" xmlns:xsi="http://www.w3.org/2001/XMLSchema-instance" xsi:schemaLocation="http://www.topografix.com/GPX/1/1 http://www.topografix.com/GPX/1/1/gpx.xsd" version="1.1" creator="VisuGPX - https://www.visugpx.com">
  <metadata>
    <name>Lourdasse à la Berte</name>
  </metadata>
  <trk>
    <name><![CDATA[Lourdasse à la Berte]]></name>
    <trkseg>
      <trkpt lat="46.14961" lon="6.75548">
        <ele>1192.5</ele>
        <time>2018-03-16T09:23:48Z</time>
      </trkpt>
      <trkpt lat="46.14959" lon="6.75554">
        <ele>1192.6</ele>
        <time>2018-03-16T09:23:49Z</time>
      </trkpt>
      <trkpt lat="46.14943" lon="6.75606">
        <ele>1195.2</ele>
        <time>2018-03-16T09:24:44Z</time>
      </trkpt>
      <trkpt lat="46.14942" lon="6.7561">
        <ele>1195.7</ele>
        <time>2018-03-16T09:24:49Z</time>
      </trkpt>
      <trkpt lat="46.14942" lon="6.75614">
        <ele>1196.1</ele>
        <time>2018-03-16T09:24:55Z</time>
      </trkpt>
      <trkpt lat="46.14943" lon="6.75618">
        <ele>1196.6</ele>
        <time>2018-03-16T09:25:01Z</time>
      </trkpt>
      <trkpt lat="46.14945" lon="6.75622">
        <ele>1197.1</ele>
        <time>2018-03-16T09:25:05Z</time>
      </trkpt>
      <trkpt lat="46.14943" lon="6.75626">
        <ele>1197.6</ele>
        <time>2018-03-16T09:25:12Z</time>
      </trkpt>
      <trkpt lat="46.14944" lon="6.7563">
        <ele>1198.1</ele>
        <time>2018-03-16T09:25:16Z</time>
      </trkpt>
      <trkpt lat="46.14945" lon="6.75647">
        <ele>1199.9</ele>
        <time>2018-03-16T09:25:31Z</time>
      </trkpt>
      <trkpt lat="46.14943" lon="6.75651">
        <ele>1200.4</ele>
        <time>2018-03-16T09:25:33Z</time>
      </trkpt>
      <trkpt lat="46.14942" lon="6.75655">
        <ele>1200.9</ele>
        <time>2018-03-16T09:25:36Z</time>
      </trkpt>
      <trkpt lat="46.14944" lon="6.75662">
        <ele>1201.7</ele>
        <time>2018-03-16T09:25:38Z</time>
      </trkpt>
      <trkpt lat="46.14944" lon="6.75668">
        <ele>1202.3</ele>
        <time>2018-03-16T09:25:39Z</time>
      </trkpt>
      <trkpt lat="46.14944" lon="6.75673">
        <ele>1202.9</ele>
        <time>2018-03-16T09:25:40Z</time>
      </trkpt>
      <trkpt lat="46.14945" lon="6.75678">
        <ele>1203.5</ele>
        <time>2018-03-16T09:25:41Z</time>
      </trkpt>
      <trkpt lat="46.14952" lon="6.75678">
        <ele>1204.6</ele>
        <time>2018-03-16T09:27:33Z</time>
      </trkpt>
      <trkpt lat="46.14954" lon="6.75682">
        <ele>1205.1</ele>
        <time>2018-03-16T09:27:38Z</time>
      </trkpt>
      <trkpt lat="46.14954" lon="6.75685">
        <ele>1205.5</ele>
        <time>2018-03-16T09:27:43Z</time>
      </trkpt>
      <trkpt lat="46.14956" lon="6.7569">
        <ele>1206</ele>
        <time>2018-03-16T09:27:56Z</time>
      </trkpt>
      <trkpt lat="46.14957" lon="6.75693">
        <ele>1206.4</ele>
        <time>2018-03-16T09:28:00Z</time>
      </trkpt>
      <trkpt lat="46.14958" lon="6.75701">
        <ele>1207.2</ele>
        <time>2018-03-16T09:28:13Z</time>
      </trkpt>
      <trkpt lat="46.14957" lon="6.75706">
        <ele>1207.7</ele>
        <time>2018-03-16T09:28:17Z</time>
      </trkpt>
      <trkpt lat="46.14953" lon="6.75707">
        <ele>1208.3</ele>
        <time>2018-03-16T09:28:20Z</time>
      </trkpt>
      <trkpt lat="46.14952" lon="6.75711">
        <ele>1208.7</ele>
        <time>2018-03-16T09:28:23Z</time>
      </trkpt>
      <trkpt lat="46.14952" lon="6.75715">
        <ele>1209.2</ele>
        <time>2018-03-16T09:28:25Z</time>
      </trkpt>
      <trkpt lat="46.14951" lon="6.75719">
        <ele>1209.6</ele>
        <time>2018-03-16T09:28:27Z</time>
      </trkpt>
      <trkpt lat="46.14951" lon="6.75723">
        <ele>1210.1</ele>
        <time>2018-03-16T09:28:30Z</time>
      </trkpt>
      <trkpt lat="46.1495" lon="6.75728">
        <ele>1210.6</ele>
        <time>2018-03-16T09:28:33Z</time>
      </trkpt>
      <trkpt lat="46.14949" lon="6.75733">
        <ele>1211.2</ele>
        <time>2018-03-16T09:28:35Z</time>
      </trkpt>
      <trkpt lat="46.14949" lon="6.75738">
        <ele>1211.7</ele>
        <time>2018-03-16T09:28:43Z</time>
      </trkpt>
      <trkpt lat="46.14951" lon="6.75742">
        <ele>1212.3</ele>
        <time>2018-03-16T09:28:47Z</time>
      </trkpt>
      <trkpt lat="46.14952" lon="6.75748">
        <ele>1212.9</ele>
        <time>2018-03-16T09:28:51Z</time>
      </trkpt>
      <trkpt lat="46.14952" lon="6.75752">
        <ele>1213.3</ele>
        <time>2018-03-16T09:28:56Z</time>
      </trkpt>
      <trkpt lat="46.14953" lon="6.75757">
        <ele>1213.8</ele>
        <time>2018-03-16T09:29:00Z</time>
      </trkpt>
      <trkpt lat="46.14952" lon="6.75761">
        <ele>1214.3</ele>
        <time>2018-03-16T09:29:06Z</time>
      </trkpt>
      <trkpt lat="46.14953" lon="6.75767">
        <ele>1215.1</ele>
        <time>2018-03-16T09:29:09Z</time>
      </trkpt>
      <trkpt lat="46.14953" lon="6.75771">
        <ele>1215.5</ele>
        <time>2018-03-16T09:29:12Z</time>
      </trkpt>
      <trkpt lat="46.14953" lon="6.75775">
        <ele>1216</ele>
        <time>2018-03-16T09:29:18Z</time>
      </trkpt>
      <trkpt lat="46.14953" lon="6.75779">
        <ele>1216.4</ele>
        <time>2018-03-16T09:29:21Z</time>
      </trkpt>
      <trkpt lat="46.14952" lon="6.75783">
        <ele>1216.9</ele>
        <time>2018-03-16T09:29:24Z</time>
      </trkpt>
      <trkpt lat="46.1495" lon="6.75788">
        <ele>1217.6</ele>
        <time>2018-03-16T09:29:27Z</time>
      </trkpt>
      <trkpt lat="46.14948" lon="6.75791">
        <ele>1218.1</ele>
        <time>2018-03-16T09:29:30Z</time>
      </trkpt>
      <trkpt lat="46.14947" lon="6.75795">
        <ele>1218.6</ele>
        <time>2018-03-16T09:29:33Z</time>
      </trkpt>
      <trkpt lat="46.14947" lon="6.75799">
        <ele>1219.1</ele>
        <time>2018-03-16T09:29:39Z</time>
      </trkpt>
      <trkpt lat="46.14948" lon="6.75803">
        <ele>1219.7</ele>
        <time>2018-03-16T09:29:45Z</time>
      </trkpt>
      <trkpt lat="46.14949" lon="6.75807">
        <ele>1220.2</ele>
        <time>2018-03-16T09:29:48Z</time>
      </trkpt>
      <trkpt lat="46.14951" lon="6.75812">
        <ele>1220.9</ele>
        <time>2018-03-16T09:29:52Z</time>
      </trkpt>
      <trkpt lat="46.14952" lon="6.75818">
        <ele>1221.7</ele>
        <time>2018-03-16T09:29:55Z</time>
      </trkpt>
      <trkpt lat="46.14954" lon="6.75821">
        <ele>1222.3</ele>
        <time>2018-03-16T09:30:00Z</time>
      </trkpt>
      <trkpt lat="46.14955" lon="6.75826">
        <ele>1223</ele>
        <time>2018-03-16T09:30:03Z</time>
      </trkpt>
      <trkpt lat="46.14955" lon="6.7583">
        <ele>1223.8</ele>
        <time>2018-03-16T09:30:09Z</time>
      </trkpt>
      <trkpt lat="46.14955" lon="6.75834">
        <ele>1224.4</ele>
        <time>2018-03-16T09:30:11Z</time>
      </trkpt>
      <trkpt lat="46.14955" lon="6.75839">
        <ele>1225.4</ele>
        <time>2018-03-16T09:30:14Z</time>
      </trkpt>
      <trkpt lat="46.14953" lon="6.75844">
        <ele>1226.4</ele>
        <time>2018-03-16T09:30:18Z</time>
      </trkpt>
      <trkpt lat="46.14951" lon="6.75848">
        <ele>1227.4</ele>
        <time>2018-03-16T09:30:20Z</time>
      </trkpt>
      <trkpt lat="46.1495" lon="6.75853">
        <ele>1228.3</ele>
        <time>2018-03-16T09:30:26Z</time>
      </trkpt>
      <trkpt lat="46.14949" lon="6.75857">
        <ele>1229.1</ele>
        <time>2018-03-16T09:30:33Z</time>
      </trkpt>
      <trkpt lat="46.14947" lon="6.75863">
        <ele>1230</ele>
        <time>2018-03-16T09:30:39Z</time>
      </trkpt>
      <trkpt lat="46.14945" lon="6.75867">
        <ele>1230</ele>
        <time>2018-03-16T09:30:42Z</time>
      </trkpt>
      <trkpt lat="46.14943" lon="6.75869">
        <ele>1230</ele>
        <time>2018-03-16T09:30:45Z</time>
      </trkpt>
      <trkpt lat="46.14942" lon="6.75874">
        <ele>1230</ele>
        <time>2018-03-16T09:30:51Z</time>
      </trkpt>
      <trkpt lat="46.14941" lon="6.75878">
        <ele>1230</ele>
        <time>2018-03-16T09:30:55Z</time>
      </trkpt>
      <trkpt lat="46.14941" lon="6.75882">
        <ele>1230</ele>
        <time>2018-03-16T09:30:59Z</time>
      </trkpt>
      <trkpt lat="46.1494" lon="6.75889">
        <ele>1230</ele>
        <time>2018-03-16T09:31:03Z</time>
      </trkpt>
      <trkpt lat="46.14938" lon="6.75892">
        <ele>1230</ele>
        <time>2018-03-16T09:31:07Z</time>
      </trkpt>
      <trkpt lat="46.14937" lon="6.75896">
        <ele>1230.1</ele>
        <time>2018-03-16T09:31:10Z</time>
      </trkpt>
      <trkpt lat="46.14935" lon="6.75901">
        <ele>1230.8</ele>
        <time>2018-03-16T09:31:14Z</time>
      </trkpt>
      <trkpt lat="46.14934" lon="6.75906">
        <ele>1231.6</ele>
        <time>2018-03-16T09:31:19Z</time>
      </trkpt>
      <trkpt lat="46.14933" lon="6.7591">
        <ele>1232.1</ele>
        <time>2018-03-16T09:31:24Z</time>
      </trkpt>
      <trkpt lat="46.14932" lon="6.75914">
        <ele>1232.6</ele>
        <time>2018-03-16T09:31:29Z</time>
      </trkpt>
      <trkpt lat="46.1493" lon="6.75917">
        <ele>1233.2</ele>
        <time>2018-03-16T09:31:34Z</time>
      </trkpt>
      <trkpt lat="46.14927" lon="6.7592">
        <ele>1233.8</ele>
        <time>2018-03-16T09:31:41Z</time>
      </trkpt>
      <trkpt lat="46.14924" lon="6.75922">
        <ele>1234.4</ele>
        <time>2018-03-16T09:31:43Z</time>
      </trkpt>
      <trkpt lat="46.14922" lon="6.75926">
        <ele>1234.9</ele>
        <time>2018-03-16T09:31:57Z</time>
      </trkpt>
      <trkpt lat="46.14913" lon="6.75922">
        <ele>1236.4</ele>
        <time>2018-03-16T09:32:37Z</time>
      </trkpt>
      <trkpt lat="46.1491" lon="6.75923">
        <ele>1236.7</ele>
        <time>2018-03-16T09:32:40Z</time>
      </trkpt>
      <trkpt lat="46.14907" lon="6.75924">
        <ele>1237.2</ele>
        <time>2018-03-16T09:32:45Z</time>
      </trkpt>
      <trkpt lat="46.14904" lon="6.75923">
        <ele>1237.5</ele>
        <time>2018-03-16T09:32:47Z</time>
      </trkpt>
      <trkpt lat="46.14902" lon="6.75923">
        <ele>1237.9</ele>
        <time>2018-03-16T09:32:51Z</time>
      </trkpt>
      <trkpt lat="46.14898" lon="6.75921">
        <ele>1238.3</ele>
        <time>2018-03-16T09:32:56Z</time>
      </trkpt>
      <trkpt lat="46.14895" lon="6.7592">
        <ele>1238.8</ele>
        <time>2018-03-16T09:32:59Z</time>
      </trkpt>
      <trkpt lat="46.14893" lon="6.75918">
        <ele>1239.2</ele>
        <time>2018-03-16T09:33:02Z</time>
      </trkpt>
      <trkpt lat="46.1489" lon="6.75916">
        <ele>1239.6</ele>
        <time>2018-03-16T09:33:06Z</time>
      </trkpt>
      <trkpt lat="46.14887" lon="6.75914">
        <ele>1240</ele>
        <time>2018-03-16T09:33:09Z</time>
      </trkpt>
      <trkpt lat="46.14884" lon="6.75913">
        <ele>1240.4</ele>
        <time>2018-03-16T09:33:15Z</time>
      </trkpt>
      <trkpt lat="46.1488" lon="6.7591">
        <ele>1240.9</ele>
        <time>2018-03-16T09:33:18Z</time>
      </trkpt>
      <trkpt lat="46.14877" lon="6.75909">
        <ele>1241.3</ele>
        <time>2018-03-16T09:33:20Z</time>
      </trkpt>
      <trkpt lat="46.14874" lon="6.75909">
        <ele>1241.6</ele>
        <time>2018-03-16T09:33:24Z</time>
      </trkpt>
      <trkpt lat="46.14871" lon="6.7591">
        <ele>1241.9</ele>
        <time>2018-03-16T09:33:34Z</time>
      </trkpt>
      <trkpt lat="46.14868" lon="6.75914">
        <ele>1242.3</ele>
        <time>2018-03-16T09:33:36Z</time>
      </trkpt>
      <trkpt lat="46.14865" lon="6.75915">
        <ele>1242.6</ele>
        <time>2018-03-16T09:33:40Z</time>
      </trkpt>
      <trkpt lat="46.14863" lon="6.75918">
        <ele>1242.9</ele>
        <time>2018-03-16T09:33:43Z</time>
      </trkpt>
      <trkpt lat="46.1486" lon="6.75916">
        <ele>1243.2</ele>
        <time>2018-03-16T09:33:48Z</time>
      </trkpt>
      <trkpt lat="46.14856" lon="6.75916">
        <ele>1243.5</ele>
        <time>2018-03-16T09:33:51Z</time>
      </trkpt>
      <trkpt lat="46.14854" lon="6.75917">
        <ele>1243.7</ele>
        <time>2018-03-16T09:33:54Z</time>
      </trkpt>
      <trkpt lat="46.1485" lon="6.75918">
        <ele>1244</ele>
        <time>2018-03-16T09:33:57Z</time>
      </trkpt>
      <trkpt lat="46.14847" lon="6.75922">
        <ele>1244.3</ele>
        <time>2018-03-16T09:34:00Z</time>
      </trkpt>
      <trkpt lat="46.14845" lon="6.75923">
        <ele>1244.5</ele>
        <time>2018-03-16T09:34:03Z</time>
      </trkpt>
      <trkpt lat="46.14842" lon="6.75926">
        <ele>1244.7</ele>
        <time>2018-03-16T09:34:06Z</time>
      </trkpt>
      <trkpt lat="46.1484" lon="6.75929">
        <ele>1244.9</ele>
        <time>2018-03-16T09:34:11Z</time>
      </trkpt>
      <trkpt lat="46.14838" lon="6.75932">
        <ele>1245.1</ele>
        <time>2018-03-16T09:34:14Z</time>
      </trkpt>
      <trkpt lat="46.14838" lon="6.75936">
        <ele>1245.3</ele>
        <time>2018-03-16T09:34:20Z</time>
      </trkpt>
      <trkpt lat="46.14839" lon="6.7594">
        <ele>1245.5</ele>
        <time>2018-03-16T09:34:23Z</time>
      </trkpt>
      <trkpt lat="46.14839" lon="6.75946">
        <ele>1246.8</ele>
        <time>2018-03-16T09:34:25Z</time>
      </trkpt>
      <trkpt lat="46.14839" lon="6.75951">
        <ele>1247.1</ele>
        <time>2018-03-16T09:34:28Z</time>
      </trkpt>
      <trkpt lat="46.14841" lon="6.75955">
        <ele>1247.5</ele>
        <time>2018-03-16T09:34:36Z</time>
      </trkpt>
      <trkpt lat="46.14843" lon="6.75958">
        <ele>1247.9</ele>
        <time>2018-03-16T09:34:38Z</time>
      </trkpt>
      <trkpt lat="46.14845" lon="6.75962">
        <ele>1248.4</ele>
        <time>2018-03-16T09:34:42Z</time>
      </trkpt>
      <trkpt lat="46.14845" lon="6.75967">
        <ele>1248.8</ele>
        <time>2018-03-16T09:34:46Z</time>
      </trkpt>
      <trkpt lat="46.14846" lon="6.75971">
        <ele>1249.1</ele>
        <time>2018-03-16T09:34:55Z</time>
      </trkpt>
      <trkpt lat="46.14846" lon="6.75975">
        <ele>1249.4</ele>
        <time>2018-03-16T09:34:58Z</time>
      </trkpt>
      <trkpt lat="46.14845" lon="6.7598">
        <ele>1249.7</ele>
        <time>2018-03-16T09:35:04Z</time>
      </trkpt>
      <trkpt lat="46.14844" lon="6.75984">
        <ele>1249.9</ele>
        <time>2018-03-16T09:35:07Z</time>
      </trkpt>
      <trkpt lat="46.14842" lon="6.75987">
        <ele>1250.1</ele>
        <time>2018-03-16T09:35:10Z</time>
      </trkpt>
      <trkpt lat="46.14839" lon="6.75988">
        <ele>1250.3</ele>
        <time>2018-03-16T09:35:16Z</time>
      </trkpt>
      <trkpt lat="46.14837" lon="6.75989">
        <ele>1250.4</ele>
        <time>2018-03-16T09:35:23Z</time>
      </trkpt>
      <trkpt lat="46.14836" lon="6.75993">
        <ele>1250.6</ele>
        <time>2018-03-16T09:35:27Z</time>
      </trkpt>
      <trkpt lat="46.14835" lon="6.75997">
        <ele>1250.7</ele>
        <time>2018-03-16T09:35:30Z</time>
      </trkpt>
      <trkpt lat="46.14834" lon="6.76001">
        <ele>1250.9</ele>
        <time>2018-03-16T09:35:34Z</time>
      </trkpt>
      <trkpt lat="46.14832" lon="6.76004">
        <ele>1251.1</ele>
        <time>2018-03-16T09:35:37Z</time>
      </trkpt>
      <trkpt lat="46.14828" lon="6.76003">
        <ele>1251.3</ele>
        <time>2018-03-16T09:35:46Z</time>
      </trkpt>
      <trkpt lat="46.14825" lon="6.76003">
        <ele>1251.6</ele>
        <time>2018-03-16T09:35:50Z</time>
      </trkpt>
      <trkpt lat="46.14823" lon="6.76005">
        <ele>1252</ele>
        <time>2018-03-16T09:35:55Z</time>
      </trkpt>
      <trkpt lat="46.14815" lon="6.76012">
        <ele>1253.1</ele>
        <time>2018-03-16T09:36:04Z</time>
      </trkpt>
      <trkpt lat="46.14812" lon="6.76013">
        <ele>1253.4</ele>
        <time>2018-03-16T09:36:05Z</time>
      </trkpt>
      <trkpt lat="46.14811" lon="6.76009">
        <ele>1253.7</ele>
        <time>2018-03-16T09:36:10Z</time>
      </trkpt>
      <trkpt lat="46.14808" lon="6.76006">
        <ele>1254.1</ele>
        <time>2018-03-16T09:36:14Z</time>
      </trkpt>
      <trkpt lat="46.14805" lon="6.76007">
        <ele>1254.5</ele>
        <time>2018-03-16T09:36:16Z</time>
      </trkpt>
      <trkpt lat="46.14802" lon="6.7601">
        <ele>1254.9</ele>
        <time>2018-03-16T09:36:19Z</time>
      </trkpt>
      <trkpt lat="46.14799" lon="6.76011">
        <ele>1255.2</ele>
        <time>2018-03-16T09:36:22Z</time>
      </trkpt>
      <trkpt lat="46.14797" lon="6.76012">
        <ele>1255.5</ele>
        <time>2018-03-16T09:36:25Z</time>
      </trkpt>
      <trkpt lat="46.14794" lon="6.76015">
        <ele>1255.9</ele>
        <time>2018-03-16T09:36:30Z</time>
      </trkpt>
      <trkpt lat="46.1479" lon="6.76019">
        <ele>1256.4</ele>
        <time>2018-03-16T09:36:35Z</time>
      </trkpt>
      <trkpt lat="46.14788" lon="6.76022">
        <ele>1256.7</ele>
        <time>2018-03-16T09:36:39Z</time>
      </trkpt>
      <trkpt lat="46.14785" lon="6.76024">
        <ele>1257</ele>
        <time>2018-03-16T09:36:44Z</time>
      </trkpt>
      <trkpt lat="46.14783" lon="6.76027">
        <ele>1257.3</ele>
        <time>2018-03-16T09:36:48Z</time>
      </trkpt>
      <trkpt lat="46.14781" lon="6.7603">
        <ele>1257.6</ele>
        <time>2018-03-16T09:36:51Z</time>
      </trkpt>
      <trkpt lat="46.14779" lon="6.76036">
        <ele>1258</ele>
        <time>2018-03-16T09:36:56Z</time>
      </trkpt>
      <trkpt lat="46.1478" lon="6.76044">
        <ele>1258.5</ele>
        <time>2018-03-16T09:37:30Z</time>
      </trkpt>
      <trkpt lat="46.14779" lon="6.76048">
        <ele>1258.7</ele>
        <time>2018-03-16T09:37:36Z</time>
      </trkpt>
      <trkpt lat="46.14778" lon="6.76052">
        <ele>1259</ele>
        <time>2018-03-16T09:37:39Z</time>
      </trkpt>
      <trkpt lat="46.14777" lon="6.76057">
        <ele>1259.4</ele>
        <time>2018-03-16T09:37:44Z</time>
      </trkpt>
      <trkpt lat="46.14775" lon="6.76062">
        <ele>1259.8</ele>
        <time>2018-03-16T09:37:48Z</time>
      </trkpt>
      <trkpt lat="46.14775" lon="6.76066">
        <ele>1260.1</ele>
        <time>2018-03-16T09:37:52Z</time>
      </trkpt>
      <trkpt lat="46.14773" lon="6.76069">
        <ele>1261.1</ele>
        <time>2018-03-16T09:38:00Z</time>
      </trkpt>
      <trkpt lat="46.14772" lon="6.76074">
        <ele>1262.1</ele>
        <time>2018-03-16T09:38:06Z</time>
      </trkpt>
      <trkpt lat="46.14771" lon="6.76078">
        <ele>1263</ele>
        <time>2018-03-16T09:38:10Z</time>
      </trkpt>
      <trkpt lat="46.1477" lon="6.76082">
        <ele>1263.9</ele>
        <time>2018-03-16T09:38:14Z</time>
      </trkpt>
      <trkpt lat="46.14769" lon="6.76086">
        <ele>1264.9</ele>
        <time>2018-03-16T09:38:17Z</time>
      </trkpt>
      <trkpt lat="46.14768" lon="6.7609">
        <ele>1265.9</ele>
        <time>2018-03-16T09:38:20Z</time>
      </trkpt>
      <trkpt lat="46.14769" lon="6.76094">
        <ele>1266.8</ele>
        <time>2018-03-16T09:38:29Z</time>
      </trkpt>
      <trkpt lat="46.14768" lon="6.76099">
        <ele>1267.8</ele>
        <time>2018-03-16T09:38:36Z</time>
      </trkpt>
      <trkpt lat="46.14768" lon="6.76104">
        <ele>1268.7</ele>
        <time>2018-03-16T09:38:39Z</time>
      </trkpt>
      <trkpt lat="46.14767" lon="6.76112">
        <ele>1270.3</ele>
        <time>2018-03-16T09:38:52Z</time>
      </trkpt>
      <trkpt lat="46.14765" lon="6.76115">
        <ele>1271.1</ele>
        <time>2018-03-16T09:38:57Z</time>
      </trkpt>
      <trkpt lat="46.14763" lon="6.76119">
        <ele>1271.7</ele>
        <time>2018-03-16T09:39:09Z</time>
      </trkpt>
      <trkpt lat="46.14763" lon="6.76129">
        <ele>1273.1</ele>
        <time>2018-03-16T09:39:16Z</time>
      </trkpt>
      <trkpt lat="46.14762" lon="6.76133">
        <ele>1273.9</ele>
        <time>2018-03-16T09:39:18Z</time>
      </trkpt>
      <trkpt lat="46.1476" lon="6.76136">
        <ele>1274.6</ele>
        <time>2018-03-16T09:39:21Z</time>
      </trkpt>
      <trkpt lat="46.14759" lon="6.7614">
        <ele>1275.4</ele>
        <time>2018-03-16T09:39:26Z</time>
      </trkpt>
      <trkpt lat="46.14758" lon="6.76145">
        <ele>1276.3</ele>
        <time>2018-03-16T09:39:29Z</time>
      </trkpt>
      <trkpt lat="46.14759" lon="6.76149">
        <ele>1277.2</ele>
        <time>2018-03-16T09:39:33Z</time>
      </trkpt>
      <trkpt lat="46.14758" lon="6.76153">
        <ele>1278.1</ele>
        <time>2018-03-16T09:39:41Z</time>
      </trkpt>
      <trkpt lat="46.14756" lon="6.76157">
        <ele>1278</ele>
        <time>2018-03-16T09:39:46Z</time>
      </trkpt>
      <trkpt lat="46.14756" lon="6.76161">
        <ele>1278.9</ele>
        <time>2018-03-16T09:39:50Z</time>
      </trkpt>
      <trkpt lat="46.14754" lon="6.76165">
        <ele>1279.6</ele>
        <time>2018-03-16T09:39:59Z</time>
      </trkpt>
      <trkpt lat="46.14753" lon="6.76168">
        <ele>1280.6</ele>
        <time>2018-03-16T09:40:07Z</time>
      </trkpt>
      <trkpt lat="46.14752" lon="6.76172">
        <ele>1281.3</ele>
        <time>2018-03-16T09:40:10Z</time>
      </trkpt>
      <trkpt lat="46.14751" lon="6.76177">
        <ele>1282.4</ele>
        <time>2018-03-16T09:40:14Z</time>
      </trkpt>
      <trkpt lat="46.14749" lon="6.7618">
        <ele>1283.2</ele>
        <time>2018-03-16T09:40:19Z</time>
      </trkpt>
      <trkpt lat="46.14747" lon="6.76184">
        <ele>1284.3</ele>
        <time>2018-03-16T09:40:23Z</time>
      </trkpt>
      <trkpt lat="46.14746" lon="6.76187">
        <ele>1285.3</ele>
        <time>2018-03-16T09:40:26Z</time>
      </trkpt>
      <trkpt lat="46.14743" lon="6.7619">
        <ele>1285.4</ele>
        <time>2018-03-16T09:40:31Z</time>
      </trkpt>
      <trkpt lat="46.14736" lon="6.76201">
        <ele>1288.2</ele>
        <time>2018-03-16T09:40:54Z</time>
      </trkpt>
      <trkpt lat="46.14735" lon="6.76205">
        <ele>1289.2</ele>
        <time>2018-03-16T09:40:57Z</time>
      </trkpt>
      <trkpt lat="46.14734" lon="6.76209">
        <ele>1290.1</ele>
        <time>2018-03-16T09:41:07Z</time>
      </trkpt>
      <trkpt lat="46.14734" lon="6.76215">
        <ele>1291.4</ele>
        <time>2018-03-16T09:41:10Z</time>
      </trkpt>
      <trkpt lat="46.14735" lon="6.76219">
        <ele>1292.5</ele>
        <time>2018-03-16T09:41:14Z</time>
      </trkpt>
      <trkpt lat="46.14733" lon="6.76223">
        <ele>1293.5</ele>
        <time>2018-03-16T09:41:18Z</time>
      </trkpt>
      <trkpt lat="46.1473" lon="6.76225">
        <ele>1293.3</ele>
        <time>2018-03-16T09:41:27Z</time>
      </trkpt>
      <trkpt lat="46.14728" lon="6.76229">
        <ele>1294.2</ele>
        <time>2018-03-16T09:41:33Z</time>
      </trkpt>
      <trkpt lat="46.14728" lon="6.76234">
        <ele>1295.4</ele>
        <time>2018-03-16T09:41:42Z</time>
      </trkpt>
      <trkpt lat="46.14728" lon="6.76239">
        <ele>1296.5</ele>
        <time>2018-03-16T09:41:44Z</time>
      </trkpt>
      <trkpt lat="46.14731" lon="6.76242">
        <ele>1297.9</ele>
        <time>2018-03-16T09:41:47Z</time>
      </trkpt>
      <trkpt lat="46.1473" lon="6.76246">
        <ele>1298.9</ele>
        <time>2018-03-16T09:41:53Z</time>
      </trkpt>
      <trkpt lat="46.14729" lon="6.7625">
        <ele>1300</ele>
        <time>2018-03-16T09:41:56Z</time>
      </trkpt>
      <trkpt lat="46.14729" lon="6.76254">
        <ele>1301</ele>
        <time>2018-03-16T09:42:00Z</time>
      </trkpt>
      <trkpt lat="46.14735" lon="6.76273">
        <ele>1307.5</ele>
        <time>2018-03-16T09:42:31Z</time>
      </trkpt>
      <trkpt lat="46.14736" lon="6.76277">
        <ele>1308.9</ele>
        <time>2018-03-16T09:42:34Z</time>
      </trkpt>
      <trkpt lat="46.14735" lon="6.76282">
        <ele>1310.2</ele>
        <time>2018-03-16T09:42:37Z</time>
      </trkpt>
      <trkpt lat="46.14735" lon="6.76286">
        <ele>1311.6</ele>
        <time>2018-03-16T09:42:40Z</time>
      </trkpt>
      <trkpt lat="46.14736" lon="6.7629">
        <ele>1311.6</ele>
        <time>2018-03-16T09:42:45Z</time>
      </trkpt>
      <trkpt lat="46.14738" lon="6.76287">
        <ele>1312.2</ele>
        <time>2018-03-16T09:42:55Z</time>
      </trkpt>
      <trkpt lat="46.14741" lon="6.76285">
        <ele>1311.6</ele>
        <time>2018-03-16T09:42:58Z</time>
      </trkpt>
      <trkpt lat="46.14744" lon="6.76283">
        <ele>1312.3</ele>
        <time>2018-03-16T09:43:02Z</time>
      </trkpt>
      <trkpt lat="46.14746" lon="6.76281">
        <ele>1311.1</ele>
        <time>2018-03-16T09:43:08Z</time>
      </trkpt>
      <trkpt lat="46.1475" lon="6.7628">
        <ele>1312.4</ele>
        <time>2018-03-16T09:43:17Z</time>
      </trkpt>
      <trkpt lat="46.14761" lon="6.76274">
        <ele>1312.9</ele>
        <time>2018-03-16T09:43:34Z</time>
      </trkpt>
      <trkpt lat="46.14764" lon="6.76273">
        <ele>1313.4</ele>
        <time>2018-03-16T09:43:40Z</time>
      </trkpt>
      <trkpt lat="46.14762" lon="6.7627">
        <ele>1312.3</ele>
        <time>2018-03-16T09:43:55Z</time>
      </trkpt>
      <trkpt lat="46.14763" lon="6.76274">
        <ele>1313.6</ele>
        <time>2018-03-16T09:43:58Z</time>
      </trkpt>
      <trkpt lat="46.14762" lon="6.76278">
        <ele>1314.9</ele>
        <time>2018-03-16T09:44:04Z</time>
      </trkpt>
      <trkpt lat="46.14762" lon="6.76282">
        <ele>1316.1</ele>
        <time>2018-03-16T09:44:08Z</time>
      </trkpt>
      <trkpt lat="46.14765" lon="6.76281">
        <ele>1315.5</ele>
        <time>2018-03-16T09:44:18Z</time>
      </trkpt>
      <trkpt lat="46.14778" lon="6.76276">
        <ele>1316.5</ele>
        <time>2018-03-16T09:46:26Z</time>
      </trkpt>
      <trkpt lat="46.14781" lon="6.76273">
        <ele>1317.1</ele>
        <time>2018-03-16T09:46:30Z</time>
      </trkpt>
      <trkpt lat="46.14784" lon="6.76274">
        <ele>1317.7</ele>
        <time>2018-03-16T09:46:36Z</time>
      </trkpt>
      <trkpt lat="46.14787" lon="6.76275">
        <ele>1318.3</ele>
        <time>2018-03-16T09:46:51Z</time>
      </trkpt>
      <trkpt lat="46.14789" lon="6.76273">
        <ele>1317.6</ele>
        <time>2018-03-16T09:46:54Z</time>
      </trkpt>
      <trkpt lat="46.14792" lon="6.76273">
        <ele>1319.4</ele>
        <time>2018-03-16T09:47:08Z</time>
      </trkpt>
      <trkpt lat="46.14795" lon="6.76273">
        <ele>1319.9</ele>
        <time>2018-03-16T09:47:13Z</time>
      </trkpt>
      <trkpt lat="46.14798" lon="6.76275">
        <ele>1320.5</ele>
        <time>2018-03-16T09:47:18Z</time>
      </trkpt>
      <trkpt lat="46.14801" lon="6.76275">
        <ele>1321</ele>
        <time>2018-03-16T09:47:21Z</time>
      </trkpt>
      <trkpt lat="46.14804" lon="6.76276">
        <ele>1321.7</ele>
        <time>2018-03-16T09:47:27Z</time>
      </trkpt>
      <trkpt lat="46.14806" lon="6.7628">
        <ele>1323.5</ele>
        <time>2018-03-16T09:47:33Z</time>
      </trkpt>
      <trkpt lat="46.14809" lon="6.76281">
        <ele>1323.6</ele>
        <time>2018-03-16T09:47:39Z</time>
      </trkpt>
      <trkpt lat="46.14812" lon="6.76281">
        <ele>1324.8</ele>
        <time>2018-03-16T09:47:43Z</time>
      </trkpt>
      <trkpt lat="46.14815" lon="6.76284">
        <ele>1326.6</ele>
        <time>2018-03-16T09:47:49Z</time>
      </trkpt>
      <trkpt lat="46.14818" lon="6.76286">
        <ele>1327.8</ele>
        <time>2018-03-16T09:47:57Z</time>
      </trkpt>
      <trkpt lat="46.14819" lon="6.7629">
        <ele>1329.4</ele>
        <time>2018-03-16T09:48:02Z</time>
      </trkpt>
      <trkpt lat="46.14822" lon="6.7629">
        <ele>1330</ele>
        <time>2018-03-16T09:48:08Z</time>
      </trkpt>
      <trkpt lat="46.14825" lon="6.7629">
        <ele>1329.5</ele>
        <time>2018-03-16T09:48:11Z</time>
      </trkpt>
      <trkpt lat="46.14828" lon="6.76289">
        <ele>1330.1</ele>
        <time>2018-03-16T09:48:15Z</time>
      </trkpt>
      <trkpt lat="46.14832" lon="6.76289">
        <ele>1330.7</ele>
        <time>2018-03-16T09:48:19Z</time>
      </trkpt>
      <trkpt lat="46.14836" lon="6.7629">
        <ele>1332.1</ele>
        <time>2018-03-16T09:48:23Z</time>
      </trkpt>
      <trkpt lat="46.14835" lon="6.76296">
        <ele>1333.7</ele>
        <time>2018-03-16T09:49:18Z</time>
      </trkpt>
      <trkpt lat="46.14837" lon="6.763">
        <ele>1335.5</ele>
        <time>2018-03-16T09:49:21Z</time>
      </trkpt>
      <trkpt lat="46.14838" lon="6.76304">
        <ele>1336.7</ele>
        <time>2018-03-16T09:49:23Z</time>
      </trkpt>
      <trkpt lat="46.14839" lon="6.76308">
        <ele>1338.6</ele>
        <time>2018-03-16T09:49:27Z</time>
      </trkpt>
      <trkpt lat="46.14842" lon="6.76312">
        <ele>1340.4</ele>
        <time>2018-03-16T09:49:31Z</time>
      </trkpt>
      <trkpt lat="46.14842" lon="6.76316">
        <ele>1341.7</ele>
        <time>2018-03-16T09:49:35Z</time>
      </trkpt>
      <trkpt lat="46.14842" lon="6.76321">
        <ele>1342.9</ele>
        <time>2018-03-16T09:49:39Z</time>
      </trkpt>
      <trkpt lat="46.14843" lon="6.76325">
        <ele>1344.2</ele>
        <time>2018-03-16T09:49:48Z</time>
      </trkpt>
      <trkpt lat="46.14842" lon="6.76329">
        <ele>1345.4</ele>
        <time>2018-03-16T09:49:53Z</time>
      </trkpt>
      <trkpt lat="46.14839" lon="6.76332">
        <ele>1344.8</ele>
        <time>2018-03-16T09:49:58Z</time>
      </trkpt>
      <trkpt lat="46.14837" lon="6.76336">
        <ele>1345.4</ele>
        <time>2018-03-16T09:50:03Z</time>
      </trkpt>
      <trkpt lat="46.14837" lon="6.7634">
        <ele>1346.5</ele>
        <time>2018-03-16T09:50:07Z</time>
      </trkpt>
      <trkpt lat="46.14835" lon="6.76345">
        <ele>1347</ele>
        <time>2018-03-16T09:50:12Z</time>
      </trkpt>
      <trkpt lat="46.14835" lon="6.76354">
        <ele>1349.1</ele>
        <time>2018-03-16T09:50:19Z</time>
      </trkpt>
      <trkpt lat="46.14836" lon="6.76357">
        <ele>1351</ele>
        <time>2018-03-16T09:50:22Z</time>
      </trkpt>
      <trkpt lat="46.14836" lon="6.76362">
        <ele>1352.2</ele>
        <time>2018-03-16T09:50:28Z</time>
      </trkpt>
      <trkpt lat="46.14835" lon="6.76366">
        <ele>1352.7</ele>
        <time>2018-03-16T09:50:32Z</time>
      </trkpt>
      <trkpt lat="46.14834" lon="6.76371">
        <ele>1353.8</ele>
        <time>2018-03-16T09:50:37Z</time>
      </trkpt>
      <trkpt lat="46.14835" lon="6.76376">
        <ele>1354.9</ele>
        <time>2018-03-16T09:50:41Z</time>
      </trkpt>
      <trkpt lat="46.14836" lon="6.76381">
        <ele>1357.4</ele>
        <time>2018-03-16T09:50:43Z</time>
      </trkpt>
      <trkpt lat="46.14837" lon="6.76385">
        <ele>1358.2</ele>
        <time>2018-03-16T09:50:46Z</time>
      </trkpt>
      <trkpt lat="46.14839" lon="6.76388">
        <ele>1358.9</ele>
        <time>2018-03-16T09:50:54Z</time>
      </trkpt>
      <trkpt lat="46.14841" lon="6.76393">
        <ele>1360.4</ele>
        <time>2018-03-16T09:51:00Z</time>
      </trkpt>
      <trkpt lat="46.14843" lon="6.76397">
        <ele>1361.1</ele>
        <time>2018-03-16T09:51:04Z</time>
      </trkpt>
      <trkpt lat="46.14843" lon="6.76402">
        <ele>1362.6</ele>
        <time>2018-03-16T09:51:08Z</time>
      </trkpt>
      <trkpt lat="46.14844" lon="6.76407">
        <ele>1363.5</ele>
        <time>2018-03-16T09:51:11Z</time>
      </trkpt>
      <trkpt lat="46.14847" lon="6.76412">
        <ele>1364.9</ele>
        <time>2018-03-16T09:51:15Z</time>
      </trkpt>
      <trkpt lat="46.14848" lon="6.76416">
        <ele>1366.2</ele>
        <time>2018-03-16T09:51:19Z</time>
      </trkpt>
      <trkpt lat="46.1485" lon="6.7642">
        <ele>1367.2</ele>
        <time>2018-03-16T09:51:25Z</time>
      </trkpt>
      <trkpt lat="46.14852" lon="6.76422">
        <ele>1367.7</ele>
        <time>2018-03-16T09:51:31Z</time>
      </trkpt>
      <trkpt lat="46.14855" lon="6.76423">
        <ele>1369</ele>
        <time>2018-03-16T09:51:35Z</time>
      </trkpt>
      <trkpt lat="46.14858" lon="6.76426">
        <ele>1369.5</ele>
        <time>2018-03-16T09:51:40Z</time>
      </trkpt>
      <trkpt lat="46.1486" lon="6.7643">
        <ele>1370.7</ele>
        <time>2018-03-16T09:51:47Z</time>
      </trkpt>
      <trkpt lat="46.14861" lon="6.76433">
        <ele>1371.4</ele>
        <time>2018-03-16T09:51:52Z</time>
      </trkpt>
      <trkpt lat="46.14864" lon="6.76435">
        <ele>1371.9</ele>
        <time>2018-03-16T09:51:56Z</time>
      </trkpt>
      <trkpt lat="46.14867" lon="6.76437">
        <ele>1372.9</ele>
        <time>2018-03-16T09:52:00Z</time>
      </trkpt>
      <trkpt lat="46.1487" lon="6.76439">
        <ele>1373.3</ele>
        <time>2018-03-16T09:52:07Z</time>
      </trkpt>
      <trkpt lat="46.14873" lon="6.76441">
        <ele>1374.1</ele>
        <time>2018-03-16T09:52:09Z</time>
      </trkpt>
      <trkpt lat="46.14876" lon="6.76442">
        <ele>1374.5</ele>
        <time>2018-03-16T09:52:12Z</time>
      </trkpt>
      <trkpt lat="46.14879" lon="6.76442">
        <ele>1374.8</ele>
        <time>2018-03-16T09:52:17Z</time>
      </trkpt>
      <trkpt lat="46.14883" lon="6.76441">
        <ele>1375.2</ele>
        <time>2018-03-16T09:52:27Z</time>
      </trkpt>
      <trkpt lat="46.14885" lon="6.76446">
        <ele>1376</ele>
        <time>2018-03-16T09:52:31Z</time>
      </trkpt>
      <trkpt lat="46.14886" lon="6.7645">
        <ele>1376.6</ele>
        <time>2018-03-16T09:52:36Z</time>
      </trkpt>
      <trkpt lat="46.1489" lon="6.7645">
        <ele>1377.4</ele>
        <time>2018-03-16T09:52:43Z</time>
      </trkpt>
      <trkpt lat="46.14896" lon="6.76451">
        <ele>1378.3</ele>
        <time>2018-03-16T09:52:53Z</time>
      </trkpt>
      <trkpt lat="46.14901" lon="6.76454">
        <ele>1379.7</ele>
        <time>2018-03-16T09:52:57Z</time>
      </trkpt>
      <trkpt lat="46.14903" lon="6.76456">
        <ele>1379.7</ele>
        <time>2018-03-16T09:53:00Z</time>
      </trkpt>
      <trkpt lat="46.14906" lon="6.76459">
        <ele>1379.7</ele>
        <time>2018-03-16T09:53:03Z</time>
      </trkpt>
      <trkpt lat="46.14908" lon="6.76461">
        <ele>1379.7</ele>
        <time>2018-03-16T09:53:08Z</time>
      </trkpt>
      <trkpt lat="46.1491" lon="6.76463">
        <ele>1379.8</ele>
        <time>2018-03-16T09:53:14Z</time>
      </trkpt>
      <trkpt lat="46.14912" lon="6.76465">
        <ele>1379.8</ele>
        <time>2018-03-16T09:53:21Z</time>
      </trkpt>
      <trkpt lat="46.14914" lon="6.76468">
        <ele>1379.8</ele>
        <time>2018-03-16T09:53:30Z</time>
      </trkpt>
      <trkpt lat="46.14916" lon="6.7647">
        <ele>1379.8</ele>
        <time>2018-03-16T09:53:34Z</time>
      </trkpt>
      <trkpt lat="46.14918" lon="6.76472">
        <ele>1379.8</ele>
        <time>2018-03-16T09:53:46Z</time>
      </trkpt>
      <trkpt lat="46.1492" lon="6.76474">
        <ele>1379.9</ele>
        <time>2018-03-16T09:53:47Z</time>
      </trkpt>
      <trkpt lat="46.14923" lon="6.76477">
        <ele>1379.9</ele>
        <time>2018-03-16T09:53:50Z</time>
      </trkpt>
      <trkpt lat="46.14926" lon="6.76478">
        <ele>1380.8</ele>
        <time>2018-03-16T09:53:53Z</time>
      </trkpt>
      <trkpt lat="46.1493" lon="6.7648">
        <ele>1382</ele>
        <time>2018-03-16T09:53:55Z</time>
      </trkpt>
      <trkpt lat="46.14933" lon="6.76482">
        <ele>1382.8</ele>
        <time>2018-03-16T09:54:04Z</time>
      </trkpt>
      <trkpt lat="46.14936" lon="6.76483">
        <ele>1384</ele>
        <time>2018-03-16T09:54:07Z</time>
      </trkpt>
      <trkpt lat="46.14939" lon="6.76485">
        <ele>1384.8</ele>
        <time>2018-03-16T09:54:09Z</time>
      </trkpt>
      <trkpt lat="46.14943" lon="6.76486">
        <ele>1386</ele>
        <time>2018-03-16T09:54:13Z</time>
      </trkpt>
      <trkpt lat="46.14945" lon="6.76488">
        <ele>1386.9</ele>
        <time>2018-03-16T09:54:19Z</time>
      </trkpt>
      <trkpt lat="46.14948" lon="6.7649">
        <ele>1387.7</ele>
        <time>2018-03-16T09:54:24Z</time>
      </trkpt>
      <trkpt lat="46.14951" lon="6.7649">
        <ele>1388.4</ele>
        <time>2018-03-16T09:54:28Z</time>
      </trkpt>
      <trkpt lat="46.14953" lon="6.7649">
        <ele>1389.1</ele>
        <time>2018-03-16T09:54:33Z</time>
      </trkpt>
      <trkpt lat="46.14957" lon="6.76492">
        <ele>1390.2</ele>
        <time>2018-03-16T09:54:36Z</time>
      </trkpt>
      <trkpt lat="46.14959" lon="6.76496">
        <ele>1390.1</ele>
        <time>2018-03-16T09:54:40Z</time>
      </trkpt>
      <trkpt lat="46.14961" lon="6.76499">
        <ele>1390</ele>
        <time>2018-03-16T09:54:46Z</time>
      </trkpt>
      <trkpt lat="46.14965" lon="6.76504">
        <ele>1389.7</ele>
        <time>2018-03-16T09:54:50Z</time>
      </trkpt>
      <trkpt lat="46.14967" lon="6.76508">
        <ele>1389.6</ele>
        <time>2018-03-16T09:54:52Z</time>
      </trkpt>
      <trkpt lat="46.14965" lon="6.76511">
        <ele>1389.5</ele>
        <time>2018-03-16T09:54:57Z</time>
      </trkpt>
      <trkpt lat="46.14966" lon="6.76515">
        <ele>1389.5</ele>
        <time>2018-03-16T09:55:00Z</time>
      </trkpt>
      <trkpt lat="46.14968" lon="6.76519">
        <ele>1393.4</ele>
        <time>2018-03-16T09:55:09Z</time>
      </trkpt>
      <trkpt lat="46.14974" lon="6.76524">
        <ele>1394.1</ele>
        <time>2018-03-16T09:55:15Z</time>
      </trkpt>
      <trkpt lat="46.14977" lon="6.76526">
        <ele>1394.3</ele>
        <time>2018-03-16T09:55:17Z</time>
      </trkpt>
      <trkpt lat="46.14985" lon="6.76527">
        <ele>1395</ele>
        <time>2018-03-16T09:55:21Z</time>
      </trkpt>
      <trkpt lat="46.14982" lon="6.76541">
        <ele>1391.8</ele>
        <time>2018-03-16T09:55:27Z</time>
      </trkpt>
      <trkpt lat="46.14986" lon="6.76548">
        <ele>1389.3</ele>
        <time>2018-03-16T09:55:30Z</time>
      </trkpt>
      <trkpt lat="46.15001" lon="6.76578">
        <ele>1389.4</ele>
        <time>2018-03-16T09:55:59Z</time>
      </trkpt>
      <trkpt lat="46.15002" lon="6.76582">
        <ele>1389.5</ele>
        <time>2018-03-16T09:56:03Z</time>
      </trkpt>
      <trkpt lat="46.15003" lon="6.76586">
        <ele>1389.5</ele>
        <time>2018-03-16T09:56:05Z</time>
      </trkpt>
      <trkpt lat="46.15004" lon="6.7659">
        <ele>1389.5</ele>
        <time>2018-03-16T09:56:07Z</time>
      </trkpt>
      <trkpt lat="46.15006" lon="6.76595">
        <ele>1389.5</ele>
        <time>2018-03-16T09:56:13Z</time>
      </trkpt>
      <trkpt lat="46.15007" lon="6.76601">
        <ele>1389.5</ele>
        <time>2018-03-16T09:56:16Z</time>
      </trkpt>
      <trkpt lat="46.15007" lon="6.76605">
        <ele>1389.5</ele>
        <time>2018-03-16T09:56:21Z</time>
      </trkpt>
      <trkpt lat="46.15009" lon="6.76609">
        <ele>1389.6</ele>
        <time>2018-03-16T09:56:25Z</time>
      </trkpt>
      <trkpt lat="46.1501" lon="6.76613">
        <ele>1389.6</ele>
        <time>2018-03-16T09:56:29Z</time>
      </trkpt>
      <trkpt lat="46.15014" lon="6.76615">
        <ele>1391.9</ele>
        <time>2018-03-16T09:56:38Z</time>
      </trkpt>
      <trkpt lat="46.15013" lon="6.76621">
        <ele>1393.5</ele>
        <time>2018-03-16T09:57:52Z</time>
      </trkpt>
      <trkpt lat="46.15012" lon="6.76626">
        <ele>1394.6</ele>
        <time>2018-03-16T09:57:57Z</time>
      </trkpt>
      <trkpt lat="46.15014" lon="6.7663">
        <ele>1397.4</ele>
        <time>2018-03-16T09:58:01Z</time>
      </trkpt>
      <trkpt lat="46.15014" lon="6.76635">
        <ele>1398.6</ele>
        <time>2018-03-16T09:58:05Z</time>
      </trkpt>
      <trkpt lat="46.15013" lon="6.76639">
        <ele>1398.1</ele>
        <time>2018-03-16T09:58:09Z</time>
      </trkpt>
      <trkpt lat="46.15012" lon="6.76643">
        <ele>1399.4</ele>
        <time>2018-03-16T09:58:13Z</time>
      </trkpt>
      <trkpt lat="46.15011" lon="6.76648">
        <ele>1400.6</ele>
        <time>2018-03-16T09:58:17Z</time>
      </trkpt>
      <trkpt lat="46.15012" lon="6.76652">
        <ele>1401.8</ele>
        <time>2018-03-16T09:58:20Z</time>
      </trkpt>
      <trkpt lat="46.15012" lon="6.76656">
        <ele>1403.1</ele>
        <time>2018-03-16T09:58:30Z</time>
      </trkpt>
      <trkpt lat="46.15012" lon="6.76667">
        <ele>1405.1</ele>
        <time>2018-03-16T09:58:39Z</time>
      </trkpt>
      <trkpt lat="46.15012" lon="6.76672">
        <ele>1406.4</ele>
        <time>2018-03-16T09:58:44Z</time>
      </trkpt>
      <trkpt lat="46.15013" lon="6.76675">
        <ele>1407.7</ele>
        <time>2018-03-16T09:58:54Z</time>
      </trkpt>
      <trkpt lat="46.15014" lon="6.76681">
        <ele>1409.8</ele>
        <time>2018-03-16T09:58:58Z</time>
      </trkpt>
      <trkpt lat="46.15015" lon="6.76684">
        <ele>1410.8</ele>
        <time>2018-03-16T09:59:09Z</time>
      </trkpt>
      <trkpt lat="46.15021" lon="6.76682">
        <ele>1412.5</ele>
        <time>2018-03-16T09:59:13Z</time>
      </trkpt>
      <trkpt lat="46.15024" lon="6.76681">
        <ele>1413.9</ele>
        <time>2018-03-16T09:59:16Z</time>
      </trkpt>
      <trkpt lat="46.15023" lon="6.76686">
        <ele>1415.1</ele>
        <time>2018-03-16T09:59:27Z</time>
      </trkpt>
      <trkpt lat="46.15024" lon="6.7669">
        <ele>1416.4</ele>
        <time>2018-03-16T09:59:38Z</time>
      </trkpt>
      <trkpt lat="46.15026" lon="6.76694">
        <ele>1418.7</ele>
        <time>2018-03-16T09:59:41Z</time>
      </trkpt>
      <trkpt lat="46.15027" lon="6.76698">
        <ele>1419.3</ele>
        <time>2018-03-16T09:59:49Z</time>
      </trkpt>
      <trkpt lat="46.15029" lon="6.76701">
        <ele>1421.5</ele>
        <time>2018-03-16T09:59:56Z</time>
      </trkpt>
      <trkpt lat="46.15032" lon="6.76702">
        <ele>1423.7</ele>
        <time>2018-03-16T10:00:10Z</time>
      </trkpt>
      <trkpt lat="46.15036" lon="6.76713">
        <ele>1426.5</ele>
        <time>2018-03-16T10:00:33Z</time>
      </trkpt>
      <trkpt lat="46.15039" lon="6.76715">
        <ele>1428.6</ele>
        <time>2018-03-16T10:00:38Z</time>
      </trkpt>
      <trkpt lat="46.15042" lon="6.76717">
        <ele>1429.9</ele>
        <time>2018-03-16T10:00:43Z</time>
      </trkpt>
      <trkpt lat="46.15044" lon="6.76721">
        <ele>1432</ele>
        <time>2018-03-16T10:01:07Z</time>
      </trkpt>
      <trkpt lat="46.15046" lon="6.76723">
        <ele>1432.6</ele>
        <time>2018-03-16T10:01:12Z</time>
      </trkpt>
      <trkpt lat="46.15049" lon="6.76725">
        <ele>1434.7</ele>
        <time>2018-03-16T10:01:15Z</time>
      </trkpt>
      <trkpt lat="46.15053" lon="6.76723">
        <ele>1436</ele>
        <time>2018-03-16T10:01:17Z</time>
      </trkpt>
      <trkpt lat="46.15055" lon="6.76722">
        <ele>1436.6</ele>
        <time>2018-03-16T10:01:21Z</time>
      </trkpt>
      <trkpt lat="46.15057" lon="6.76719">
        <ele>1437.2</ele>
        <time>2018-03-16T10:01:25Z</time>
      </trkpt>
      <trkpt lat="46.15059" lon="6.76716">
        <ele>1438.6</ele>
        <time>2018-03-16T10:01:33Z</time>
      </trkpt>
      <trkpt lat="46.15059" lon="6.76711">
        <ele>1438.3</ele>
        <time>2018-03-16T10:01:36Z</time>
      </trkpt>
      <trkpt lat="46.15061" lon="6.76708">
        <ele>1438.1</ele>
        <time>2018-03-16T10:01:42Z</time>
      </trkpt>
      <trkpt lat="46.15064" lon="6.76708">
        <ele>1440.1</ele>
        <time>2018-03-16T10:01:46Z</time>
      </trkpt>
      <trkpt lat="46.15066" lon="6.76704">
        <ele>1439.9</ele>
        <time>2018-03-16T10:01:48Z</time>
      </trkpt>
      <trkpt lat="46.15068" lon="6.767">
        <ele>1440.2</ele>
        <time>2018-03-16T10:01:51Z</time>
      </trkpt>
      <trkpt lat="46.15071" lon="6.76698">
        <ele>1441.4</ele>
        <time>2018-03-16T10:01:54Z</time>
      </trkpt>
      <trkpt lat="46.15068" lon="6.76699">
        <ele>1442.2</ele>
        <time>2018-03-16T10:02:02Z</time>
      </trkpt>
      <trkpt lat="46.15066" lon="6.76703">
        <ele>1442.9</ele>
        <time>2018-03-16T10:02:06Z</time>
      </trkpt>
      <trkpt lat="46.15067" lon="6.76707">
        <ele>1443.7</ele>
        <time>2018-03-16T10:02:11Z</time>
      </trkpt>
      <trkpt lat="46.15069" lon="6.7671">
        <ele>1444.6</ele>
        <time>2018-03-16T10:02:18Z</time>
      </trkpt>
      <trkpt lat="46.1507" lon="6.76715">
        <ele>1445.7</ele>
        <time>2018-03-16T10:02:21Z</time>
      </trkpt>
      <trkpt lat="46.15073" lon="6.76718">
        <ele>1446.7</ele>
        <time>2018-03-16T10:02:27Z</time>
      </trkpt>
      <trkpt lat="46.15076" lon="6.7672">
        <ele>1447.6</ele>
        <time>2018-03-16T10:02:32Z</time>
      </trkpt>
      <trkpt lat="46.15076" lon="6.76725">
        <ele>1448.6</ele>
        <time>2018-03-16T10:02:37Z</time>
      </trkpt>
      <trkpt lat="46.15078" lon="6.76728">
        <ele>1449.5</ele>
        <time>2018-03-16T10:02:48Z</time>
      </trkpt>
      <trkpt lat="46.1508" lon="6.76732">
        <ele>1450.4</ele>
        <time>2018-03-16T10:02:52Z</time>
      </trkpt>
      <trkpt lat="46.15078" lon="6.76736">
        <ele>1451.2</ele>
        <time>2018-03-16T10:02:58Z</time>
      </trkpt>
      <trkpt lat="46.15082" lon="6.76793">
        <ele>1459.2</ele>
        <time>2018-03-16T10:08:16Z</time>
      </trkpt>
      <trkpt lat="46.15079" lon="6.76795">
        <ele>1459.2</ele>
        <time>2018-03-16T10:08:19Z</time>
      </trkpt>
      <trkpt lat="46.15076" lon="6.76796">
        <ele>1459.2</ele>
        <time>2018-03-16T10:08:22Z</time>
      </trkpt>
      <trkpt lat="46.15074" lon="6.76797">
        <ele>1459.3</ele>
        <time>2018-03-16T10:08:29Z</time>
      </trkpt>
      <trkpt lat="46.15071" lon="6.76798">
        <ele>1459.3</ele>
        <time>2018-03-16T10:08:32Z</time>
      </trkpt>
      <trkpt lat="46.15068" lon="6.768">
        <ele>1459.4</ele>
        <time>2018-03-16T10:08:36Z</time>
      </trkpt>
      <trkpt lat="46.15066" lon="6.76802">
        <ele>1459.9</ele>
        <time>2018-03-16T10:08:39Z</time>
      </trkpt>
      <trkpt lat="46.15064" lon="6.76806">
        <ele>1460.4</ele>
        <time>2018-03-16T10:08:42Z</time>
      </trkpt>
      <trkpt lat="46.15063" lon="6.7681">
        <ele>1461.2</ele>
        <time>2018-03-16T10:08:45Z</time>
      </trkpt>
      <trkpt lat="46.15062" lon="6.76815">
        <ele>1461.9</ele>
        <time>2018-03-16T10:08:48Z</time>
      </trkpt>
      <trkpt lat="46.15061" lon="6.76819">
        <ele>1462.5</ele>
        <time>2018-03-16T10:08:51Z</time>
      </trkpt>
      <trkpt lat="46.15058" lon="6.7682">
        <ele>1463.2</ele>
        <time>2018-03-16T10:09:08Z</time>
      </trkpt>
      <trkpt lat="46.15053" lon="6.76831">
        <ele>1465</ele>
        <time>2018-03-16T10:09:25Z</time>
      </trkpt>
      <trkpt lat="46.15051" lon="6.76835">
        <ele>1465.6</ele>
        <time>2018-03-16T10:09:27Z</time>
      </trkpt>
      <trkpt lat="46.1505" lon="6.76839">
        <ele>1465.6</ele>
        <time>2018-03-16T10:09:30Z</time>
      </trkpt>
      <trkpt lat="46.1505" lon="6.76844">
        <ele>1465.6</ele>
        <time>2018-03-16T10:09:33Z</time>
      </trkpt>
      <trkpt lat="46.1505" lon="6.76849">
        <ele>1465.8</ele>
        <time>2018-03-16T10:09:36Z</time>
      </trkpt>
      <trkpt lat="46.15049" lon="6.76853">
        <ele>1466.9</ele>
        <time>2018-03-16T10:09:39Z</time>
      </trkpt>
      <trkpt lat="46.15048" lon="6.76858">
        <ele>1468.2</ele>
        <time>2018-03-16T10:09:42Z</time>
      </trkpt>
      <trkpt lat="46.15048" lon="6.76862">
        <ele>1468.7</ele>
        <time>2018-03-16T10:09:47Z</time>
      </trkpt>
      <trkpt lat="46.15048" lon="6.76866">
        <ele>1468.9</ele>
        <time>2018-03-16T10:09:51Z</time>
      </trkpt>
      <trkpt lat="46.1505" lon="6.7687">
        <ele>1469.1</ele>
        <time>2018-03-16T10:10:01Z</time>
      </trkpt>
      <trkpt lat="46.15051" lon="6.7688">
        <ele>1471.2</ele>
        <time>2018-03-16T10:10:10Z</time>
      </trkpt>
      <trkpt lat="46.15048" lon="6.76885">
        <ele>1472.4</ele>
        <time>2018-03-16T10:10:13Z</time>
      </trkpt>
      <trkpt lat="46.15046" lon="6.76889">
        <ele>1473.1</ele>
        <time>2018-03-16T10:10:15Z</time>
      </trkpt>
      <trkpt lat="46.15044" lon="6.76892">
        <ele>1473.8</ele>
        <time>2018-03-16T10:10:22Z</time>
      </trkpt>
      <trkpt lat="46.15041" lon="6.76907">
        <ele>1476.4</ele>
        <time>2018-03-16T10:10:40Z</time>
      </trkpt>
      <trkpt lat="46.15039" lon="6.76912">
        <ele>1477.2</ele>
        <time>2018-03-16T10:10:43Z</time>
      </trkpt>
      <trkpt lat="46.15039" lon="6.76916">
        <ele>1477.9</ele>
        <time>2018-03-16T10:10:47Z</time>
      </trkpt>
      <trkpt lat="46.15039" lon="6.7692">
        <ele>1478.6</ele>
        <time>2018-03-16T10:10:51Z</time>
      </trkpt>
      <trkpt lat="46.15037" lon="6.76924">
        <ele>1479.4</ele>
        <time>2018-03-16T10:10:54Z</time>
      </trkpt>
      <trkpt lat="46.15034" lon="6.76928">
        <ele>1480.2</ele>
        <time>2018-03-16T10:10:57Z</time>
      </trkpt>
      <trkpt lat="46.15033" lon="6.76932">
        <ele>1481</ele>
        <time>2018-03-16T10:11:01Z</time>
      </trkpt>
      <trkpt lat="46.15034" lon="6.76937">
        <ele>1481.8</ele>
        <time>2018-03-16T10:11:07Z</time>
      </trkpt>
      <trkpt lat="46.15035" lon="6.76941">
        <ele>1482.8</ele>
        <time>2018-03-16T10:11:12Z</time>
      </trkpt>
      <trkpt lat="46.15037" lon="6.76944">
        <ele>1483.6</ele>
        <time>2018-03-16T10:11:16Z</time>
      </trkpt>
      <trkpt lat="46.15039" lon="6.76948">
        <ele>1484.5</ele>
        <time>2018-03-16T10:11:20Z</time>
      </trkpt>
      <trkpt lat="46.15039" lon="6.76952">
        <ele>1485.4</ele>
        <time>2018-03-16T10:11:28Z</time>
      </trkpt>
      <trkpt lat="46.15037" lon="6.76971">
        <ele>1488.9</ele>
        <time>2018-03-16T10:11:56Z</time>
      </trkpt>
      <trkpt lat="46.15038" lon="6.76978">
        <ele>1490.2</ele>
        <time>2018-03-16T10:11:58Z</time>
      </trkpt>
      <trkpt lat="46.15037" lon="6.76985">
        <ele>1492</ele>
        <time>2018-03-16T10:12:00Z</time>
      </trkpt>
      <trkpt lat="46.15037" lon="6.76991">
        <ele>1492.9</ele>
        <time>2018-03-16T10:12:02Z</time>
      </trkpt>
      <trkpt lat="46.15037" lon="6.76996">
        <ele>1493.4</ele>
        <time>2018-03-16T10:12:04Z</time>
      </trkpt>
      <trkpt lat="46.15037" lon="6.77">
        <ele>1494</ele>
        <time>2018-03-16T10:12:06Z</time>
      </trkpt>
      <trkpt lat="46.15037" lon="6.77004">
        <ele>1494.5</ele>
        <time>2018-03-16T10:12:08Z</time>
      </trkpt>
      <trkpt lat="46.15039" lon="6.77008">
        <ele>1495</ele>
        <time>2018-03-16T10:12:12Z</time>
      </trkpt>
      <trkpt lat="46.15039" lon="6.77012">
        <ele>1495.3</ele>
        <time>2018-03-16T10:12:15Z</time>
      </trkpt>
      <trkpt lat="46.15039" lon="6.77017">
        <ele>1495.7</ele>
        <time>2018-03-16T10:12:18Z</time>
      </trkpt>
      <trkpt lat="46.15039" lon="6.77021">
        <ele>1496.2</ele>
        <time>2018-03-16T10:12:21Z</time>
      </trkpt>
      <trkpt lat="46.15038" lon="6.77025">
        <ele>1496.8</ele>
        <time>2018-03-16T10:12:25Z</time>
      </trkpt>
      <trkpt lat="46.15038" lon="6.7703">
        <ele>1497.6</ele>
        <time>2018-03-16T10:12:29Z</time>
      </trkpt>
      <trkpt lat="46.15035" lon="6.77038">
        <ele>1498.3</ele>
        <time>2018-03-16T10:12:41Z</time>
      </trkpt>
      <trkpt lat="46.15031" lon="6.77048">
        <ele>1499.1</ele>
        <time>2018-03-16T10:12:43Z</time>
      </trkpt>
      <trkpt lat="46.1503" lon="6.77053">
        <ele>1499.6</ele>
        <time>2018-03-16T10:12:45Z</time>
      </trkpt>
      <trkpt lat="46.1503" lon="6.77058">
        <ele>1500.2</ele>
        <time>2018-03-16T10:12:48Z</time>
      </trkpt>
      <trkpt lat="46.1503" lon="6.77062">
        <ele>1500.6</ele>
        <time>2018-03-16T10:12:50Z</time>
      </trkpt>
      <trkpt lat="46.15031" lon="6.77068">
        <ele>1501</ele>
        <time>2018-03-16T10:12:53Z</time>
      </trkpt>
      <trkpt lat="46.15032" lon="6.77071">
        <ele>1501.4</ele>
        <time>2018-03-16T10:12:56Z</time>
      </trkpt>
      <trkpt lat="46.15033" lon="6.77075">
        <ele>1501.8</ele>
        <time>2018-03-16T10:13:03Z</time>
      </trkpt>
      <trkpt lat="46.15033" lon="6.77081">
        <ele>1502.2</ele>
        <time>2018-03-16T10:13:06Z</time>
      </trkpt>
      <trkpt lat="46.1504" lon="6.77101">
        <ele>1502.9</ele>
        <time>2018-03-16T10:13:47Z</time>
      </trkpt>
      <trkpt lat="46.15041" lon="6.77105">
        <ele>1503.1</ele>
        <time>2018-03-16T10:13:49Z</time>
      </trkpt>
      <trkpt lat="46.15043" lon="6.7711">
        <ele>1503.3</ele>
        <time>2018-03-16T10:13:51Z</time>
      </trkpt>
      <trkpt lat="46.15044" lon="6.77118">
        <ele>1503.4</ele>
        <time>2018-03-16T10:13:53Z</time>
      </trkpt>
      <trkpt lat="46.15045" lon="6.77122">
        <ele>1503.3</ele>
        <time>2018-03-16T10:13:55Z</time>
      </trkpt>
      <trkpt lat="46.15048" lon="6.77125">
        <ele>1503.1</ele>
        <time>2018-03-16T10:14:00Z</time>
      </trkpt>
      <trkpt lat="46.15052" lon="6.77125">
        <ele>1502.9</ele>
        <time>2018-03-16T10:14:03Z</time>
      </trkpt>
      <trkpt lat="46.15054" lon="6.77127">
        <ele>1502.8</ele>
        <time>2018-03-16T10:14:06Z</time>
      </trkpt>
      <trkpt lat="46.15055" lon="6.77131">
        <ele>1502.6</ele>
        <time>2018-03-16T10:14:09Z</time>
      </trkpt>
      <trkpt lat="46.15056" lon="6.77134">
        <ele>1502.4</ele>
        <time>2018-03-16T10:14:12Z</time>
      </trkpt>
      <trkpt lat="46.15059" lon="6.77138">
        <ele>1502</ele>
        <time>2018-03-16T10:14:17Z</time>
      </trkpt>
      <trkpt lat="46.1506" lon="6.77142">
        <ele>1501.7</ele>
        <time>2018-03-16T10:14:21Z</time>
      </trkpt>
      <trkpt lat="46.1506" lon="6.77146">
        <ele>1501.9</ele>
        <time>2018-03-16T10:14:24Z</time>
      </trkpt>
      <trkpt lat="46.1506" lon="6.77151">
        <ele>1502.2</ele>
        <time>2018-03-16T10:14:40Z</time>
      </trkpt>
      <trkpt lat="46.15063" lon="6.7716">
        <ele>1502.7</ele>
        <time>2018-03-16T10:14:50Z</time>
      </trkpt>
      <trkpt lat="46.15064" lon="6.77163">
        <ele>1502.8</ele>
        <time>2018-03-16T10:14:52Z</time>
      </trkpt>
      <trkpt lat="46.15066" lon="6.77167">
        <ele>1502.9</ele>
        <time>2018-03-16T10:14:56Z</time>
      </trkpt>
      <trkpt lat="46.15067" lon="6.77171">
        <ele>1503.1</ele>
        <time>2018-03-16T10:14:59Z</time>
      </trkpt>
      <trkpt lat="46.15067" lon="6.77175">
        <ele>1503.2</ele>
        <time>2018-03-16T10:15:02Z</time>
      </trkpt>
      <trkpt lat="46.15066" lon="6.77181">
        <ele>1503.6</ele>
        <time>2018-03-16T10:15:06Z</time>
      </trkpt>
      <trkpt lat="46.15065" lon="6.77186">
        <ele>1504</ele>
        <time>2018-03-16T10:15:09Z</time>
      </trkpt>
      <trkpt lat="46.15064" lon="6.7719">
        <ele>1504.3</ele>
        <time>2018-03-16T10:15:12Z</time>
      </trkpt>
      <trkpt lat="46.15064" lon="6.77194">
        <ele>1504.5</ele>
        <time>2018-03-16T10:15:19Z</time>
      </trkpt>
      <trkpt lat="46.15067" lon="6.77202">
        <ele>1505</ele>
        <time>2018-03-16T10:15:24Z</time>
      </trkpt>
      <trkpt lat="46.15067" lon="6.77206">
        <ele>1505.2</ele>
        <time>2018-03-16T10:15:29Z</time>
      </trkpt>
      <trkpt lat="46.1507" lon="6.77207">
        <ele>1505.5</ele>
        <time>2018-03-16T10:15:33Z</time>
      </trkpt>
      <trkpt lat="46.15074" lon="6.77207">
        <ele>1505.8</ele>
        <time>2018-03-16T10:15:36Z</time>
      </trkpt>
      <trkpt lat="46.15077" lon="6.77206">
        <ele>1506.3</ele>
        <time>2018-03-16T10:15:39Z</time>
      </trkpt>
      <trkpt lat="46.15079" lon="6.7721">
        <ele>1506.8</ele>
        <time>2018-03-16T10:15:46Z</time>
      </trkpt>
      <trkpt lat="46.1508" lon="6.77213">
        <ele>1506.9</ele>
        <time>2018-03-16T10:15:49Z</time>
      </trkpt>
      <trkpt lat="46.15082" lon="6.77218">
        <ele>1507.1</ele>
        <time>2018-03-16T10:15:52Z</time>
      </trkpt>
      <trkpt lat="46.15084" lon="6.7722">
        <ele>1507.2</ele>
        <time>2018-03-16T10:15:57Z</time>
      </trkpt>
      <trkpt lat="46.15085" lon="6.77225">
        <ele>1507.6</ele>
        <time>2018-03-16T10:16:03Z</time>
      </trkpt>
      <trkpt lat="46.15086" lon="6.77229">
        <ele>1507.8</ele>
        <time>2018-03-16T10:16:05Z</time>
      </trkpt>
      <trkpt lat="46.15087" lon="6.77234">
        <ele>1508.3</ele>
        <time>2018-03-16T10:16:07Z</time>
      </trkpt>
      <trkpt lat="46.15088" lon="6.77247">
        <ele>1508.9</ele>
        <time>2018-03-16T10:16:28Z</time>
      </trkpt>
      <trkpt lat="46.15087" lon="6.77269">
        <ele>1508.7</ele>
        <time>2018-03-16T10:17:08Z</time>
      </trkpt>
      <trkpt lat="46.15087" lon="6.77274">
        <ele>1508.7</ele>
        <time>2018-03-16T10:17:16Z</time>
      </trkpt>
      <trkpt lat="46.15085" lon="6.77277">
        <ele>1508.5</ele>
        <time>2018-03-16T10:17:32Z</time>
      </trkpt>
      <trkpt lat="46.15084" lon="6.77281">
        <ele>1508.3</ele>
        <time>2018-03-16T10:17:35Z</time>
      </trkpt>
      <trkpt lat="46.15083" lon="6.77286">
        <ele>1508.3</ele>
        <time>2018-03-16T10:17:40Z</time>
      </trkpt>
      <trkpt lat="46.15078" lon="6.77303">
        <ele>1509</ele>
        <time>2018-03-16T10:18:17Z</time>
      </trkpt>
      <trkpt lat="46.15078" lon="6.77307">
        <ele>1509.2</ele>
        <time>2018-03-16T10:18:21Z</time>
      </trkpt>
      <trkpt lat="46.15078" lon="6.77312">
        <ele>1509.6</ele>
        <time>2018-03-16T10:18:24Z</time>
      </trkpt>
      <trkpt lat="46.15078" lon="6.77318">
        <ele>1510</ele>
        <time>2018-03-16T10:18:26Z</time>
      </trkpt>
      <trkpt lat="46.15078" lon="6.77322">
        <ele>1510.2</ele>
        <time>2018-03-16T10:18:28Z</time>
      </trkpt>
      <trkpt lat="46.15077" lon="6.77327">
        <ele>1510.6</ele>
        <time>2018-03-16T10:18:30Z</time>
      </trkpt>
      <trkpt lat="46.15076" lon="6.77331">
        <ele>1510.7</ele>
        <time>2018-03-16T10:18:34Z</time>
      </trkpt>
      <trkpt lat="46.15075" lon="6.77335">
        <ele>1510.9</ele>
        <time>2018-03-16T10:18:39Z</time>
      </trkpt>
      <trkpt lat="46.15075" lon="6.77339">
        <ele>1511</ele>
        <time>2018-03-16T10:18:43Z</time>
      </trkpt>
      <trkpt lat="46.15078" lon="6.77342">
        <ele>1511</ele>
        <time>2018-03-16T10:18:49Z</time>
      </trkpt>
      <trkpt lat="46.1508" lon="6.77345">
        <ele>1511</ele>
        <time>2018-03-16T10:18:52Z</time>
      </trkpt>
      <trkpt lat="46.15077" lon="6.77354">
        <ele>1511.8</ele>
        <time>2018-03-16T10:19:18Z</time>
      </trkpt>
      <trkpt lat="46.15076" lon="6.77357">
        <ele>1512.1</ele>
        <time>2018-03-16T10:19:22Z</time>
      </trkpt>
      <trkpt lat="46.15076" lon="6.77362">
        <ele>1512.4</ele>
        <time>2018-03-16T10:19:25Z</time>
      </trkpt>
      <trkpt lat="46.15076" lon="6.77366">
        <ele>1512.7</ele>
        <time>2018-03-16T10:19:28Z</time>
      </trkpt>
      <trkpt lat="46.15078" lon="6.7737">
        <ele>1513</ele>
        <time>2018-03-16T10:19:33Z</time>
      </trkpt>
      <trkpt lat="46.15078" lon="6.77374">
        <ele>1513.3</ele>
        <time>2018-03-16T10:19:37Z</time>
      </trkpt>
      <trkpt lat="46.15078" lon="6.77378">
        <ele>1513.6</ele>
        <time>2018-03-16T10:19:42Z</time>
      </trkpt>
      <trkpt lat="46.15079" lon="6.77382">
        <ele>1513.8</ele>
        <time>2018-03-16T10:19:50Z</time>
      </trkpt>
      <trkpt lat="46.1508" lon="6.77386">
        <ele>1514</ele>
        <time>2018-03-16T10:19:54Z</time>
      </trkpt>
      <trkpt lat="46.1508" lon="6.77391">
        <ele>1514.3</ele>
        <time>2018-03-16T10:19:58Z</time>
      </trkpt>
      <trkpt lat="46.15079" lon="6.77395">
        <ele>1514.5</ele>
        <time>2018-03-16T10:20:01Z</time>
      </trkpt>
      <trkpt lat="46.15078" lon="6.77399">
        <ele>1514.7</ele>
        <time>2018-03-16T10:20:03Z</time>
      </trkpt>
      <trkpt lat="46.1508" lon="6.77404">
        <ele>1514.9</ele>
        <time>2018-03-16T10:20:12Z</time>
      </trkpt>
      <trkpt lat="46.15081" lon="6.77408">
        <ele>1515.1</ele>
        <time>2018-03-16T10:20:16Z</time>
      </trkpt>
      <trkpt lat="46.1508" lon="6.77412">
        <ele>1515.2</ele>
        <time>2018-03-16T10:20:20Z</time>
      </trkpt>
      <trkpt lat="46.15079" lon="6.77415">
        <ele>1515.4</ele>
        <time>2018-03-16T10:20:24Z</time>
      </trkpt>
      <trkpt lat="46.1508" lon="6.77419">
        <ele>1515.5</ele>
        <time>2018-03-16T10:20:28Z</time>
      </trkpt>
      <trkpt lat="46.15081" lon="6.77423">
        <ele>1515.7</ele>
        <time>2018-03-16T10:20:33Z</time>
      </trkpt>
      <trkpt lat="46.15079" lon="6.77427">
        <ele>1515.8</ele>
        <time>2018-03-16T10:20:39Z</time>
      </trkpt>
      <trkpt lat="46.15079" lon="6.77432">
        <ele>1516</ele>
        <time>2018-03-16T10:20:42Z</time>
      </trkpt>
      <trkpt lat="46.15079" lon="6.77437">
        <ele>1516.1</ele>
        <time>2018-03-16T10:20:45Z</time>
      </trkpt>
      <trkpt lat="46.15078" lon="6.77441">
        <ele>1516.2</ele>
        <time>2018-03-16T10:20:50Z</time>
      </trkpt>
      <trkpt lat="46.15078" lon="6.77447">
        <ele>1516.3</ele>
        <time>2018-03-16T10:20:54Z</time>
      </trkpt>
      <trkpt lat="46.15077" lon="6.77452">
        <ele>1516.3</ele>
        <time>2018-03-16T10:21:00Z</time>
      </trkpt>
      <trkpt lat="46.15076" lon="6.77456">
        <ele>1516.4</ele>
        <time>2018-03-16T10:21:04Z</time>
      </trkpt>
      <trkpt lat="46.15075" lon="6.77461">
        <ele>1516.5</ele>
        <time>2018-03-16T10:21:10Z</time>
      </trkpt>
      <trkpt lat="46.15073" lon="6.77465">
        <ele>1516.5</ele>
        <time>2018-03-16T10:21:15Z</time>
      </trkpt>
      <trkpt lat="46.15075" lon="6.77468">
        <ele>1516.6</ele>
        <time>2018-03-16T10:21:25Z</time>
      </trkpt>
      <trkpt lat="46.15078" lon="6.77471">
        <ele>1517.6</ele>
        <time>2018-03-16T10:21:32Z</time>
      </trkpt>
      <trkpt lat="46.15081" lon="6.77471">
        <ele>1517.9</ele>
        <time>2018-03-16T10:21:36Z</time>
      </trkpt>
      <trkpt lat="46.15083" lon="6.77474">
        <ele>1518.4</ele>
        <time>2018-03-16T10:21:56Z</time>
      </trkpt>
      <trkpt lat="46.15086" lon="6.77474">
        <ele>1518.8</ele>
        <time>2018-03-16T10:21:58Z</time>
      </trkpt>
      <trkpt lat="46.15089" lon="6.77475">
        <ele>1520.1</ele>
        <time>2018-03-16T10:22:00Z</time>
      </trkpt>
      <trkpt lat="46.15092" lon="6.77477">
        <ele>1520.6</ele>
        <time>2018-03-16T10:22:03Z</time>
      </trkpt>
      <trkpt lat="46.15093" lon="6.77479">
        <ele>1521.4</ele>
        <time>2018-03-16T10:22:11Z</time>
      </trkpt>
      <trkpt lat="46.15096" lon="6.77481">
        <ele>1522</ele>
        <time>2018-03-16T10:22:19Z</time>
      </trkpt>
      <trkpt lat="46.15098" lon="6.77483">
        <ele>1523.4</ele>
        <time>2018-03-16T10:22:27Z</time>
      </trkpt>
      <trkpt lat="46.15099" lon="6.77488">
        <ele>1524.2</ele>
        <time>2018-03-16T10:22:34Z</time>
      </trkpt>
      <trkpt lat="46.15099" lon="6.77492">
        <ele>1524.9</ele>
        <time>2018-03-16T10:22:38Z</time>
      </trkpt>
      <trkpt lat="46.15102" lon="6.77497">
        <ele>1526.4</ele>
        <time>2018-03-16T10:22:41Z</time>
      </trkpt>
      <trkpt lat="46.15104" lon="6.77501">
        <ele>1527.9</ele>
        <time>2018-03-16T10:22:47Z</time>
      </trkpt>
      <trkpt lat="46.15106" lon="6.77502">
        <ele>1528.9</ele>
        <time>2018-03-16T10:22:53Z</time>
      </trkpt>
      <trkpt lat="46.15106" lon="6.77506">
        <ele>1528.6</ele>
        <time>2018-03-16T10:23:00Z</time>
      </trkpt>
      <trkpt lat="46.15106" lon="6.77512">
        <ele>1529.3</ele>
        <time>2018-03-16T10:23:03Z</time>
      </trkpt>
      <trkpt lat="46.15105" lon="6.77516">
        <ele>1530</ele>
        <time>2018-03-16T10:23:06Z</time>
      </trkpt>
      <trkpt lat="46.15104" lon="6.77519">
        <ele>1530.7</ele>
        <time>2018-03-16T10:23:12Z</time>
      </trkpt>
      <trkpt lat="46.15102" lon="6.77523">
        <ele>1530.7</ele>
        <time>2018-03-16T10:23:17Z</time>
      </trkpt>
      <trkpt lat="46.151" lon="6.77525">
        <ele>1530</ele>
        <time>2018-03-16T10:23:30Z</time>
      </trkpt>
      <trkpt lat="46.15097" lon="6.77529">
        <ele>1530.9</ele>
        <time>2018-03-16T10:23:34Z</time>
      </trkpt>
      <trkpt lat="46.15095" lon="6.77531">
        <ele>1531.3</ele>
        <time>2018-03-16T10:23:43Z</time>
      </trkpt>
      <trkpt lat="46.15093" lon="6.77534">
        <ele>1530.7</ele>
        <time>2018-03-16T10:23:47Z</time>
      </trkpt>
      <trkpt lat="46.1509" lon="6.77536">
        <ele>1531.3</ele>
        <time>2018-03-16T10:23:53Z</time>
      </trkpt>
      <trkpt lat="46.15086" lon="6.77543">
        <ele>1531.8</ele>
        <time>2018-03-16T10:24:10Z</time>
      </trkpt>
      <trkpt lat="46.15083" lon="6.77546">
        <ele>1532.3</ele>
        <time>2018-03-16T10:24:12Z</time>
      </trkpt>
      <trkpt lat="46.1508" lon="6.77547">
        <ele>1531.9</ele>
        <time>2018-03-16T10:24:15Z</time>
      </trkpt>
      <trkpt lat="46.15078" lon="6.77549">
        <ele>1532.5</ele>
        <time>2018-03-16T10:24:28Z</time>
      </trkpt>
      <trkpt lat="46.15076" lon="6.77553">
        <ele>1533.2</ele>
        <time>2018-03-16T10:24:30Z</time>
      </trkpt>
      <trkpt lat="46.15075" lon="6.77557">
        <ele>1534.1</ele>
        <time>2018-03-16T10:24:35Z</time>
      </trkpt>
      <trkpt lat="46.15074" lon="6.77567">
        <ele>1536</ele>
        <time>2018-03-16T10:24:51Z</time>
      </trkpt>
      <trkpt lat="46.15076" lon="6.77576">
        <ele>1538.5</ele>
        <time>2018-03-16T10:25:09Z</time>
      </trkpt>
      <trkpt lat="46.15077" lon="6.77581">
        <ele>1539.7</ele>
        <time>2018-03-16T10:25:18Z</time>
      </trkpt>
      <trkpt lat="46.15077" lon="6.77586">
        <ele>1540.9</ele>
        <time>2018-03-16T10:25:22Z</time>
      </trkpt>
      <trkpt lat="46.15077" lon="6.7759">
        <ele>1542.1</ele>
        <time>2018-03-16T10:25:25Z</time>
      </trkpt>
      <trkpt lat="46.15077" lon="6.77594">
        <ele>1543.2</ele>
        <time>2018-03-16T10:25:32Z</time>
      </trkpt>
      <trkpt lat="46.15077" lon="6.776">
        <ele>1545.4</ele>
        <time>2018-03-16T10:25:35Z</time>
      </trkpt>
      <trkpt lat="46.15077" lon="6.77604">
        <ele>1546.5</ele>
        <time>2018-03-16T10:25:42Z</time>
      </trkpt>
      <trkpt lat="46.15076" lon="6.77608">
        <ele>1547.6</ele>
        <time>2018-03-16T10:25:50Z</time>
      </trkpt>
      <trkpt lat="46.15077" lon="6.77612">
        <ele>1547.5</ele>
        <time>2018-03-16T10:25:57Z</time>
      </trkpt>
      <trkpt lat="46.15078" lon="6.77616">
        <ele>1548.7</ele>
        <time>2018-03-16T10:26:02Z</time>
      </trkpt>
      <trkpt lat="46.15077" lon="6.7762">
        <ele>1549.8</ele>
        <time>2018-03-16T10:26:12Z</time>
      </trkpt>
      <trkpt lat="46.15076" lon="6.77624">
        <ele>1550.7</ele>
        <time>2018-03-16T10:26:16Z</time>
      </trkpt>
      <trkpt lat="46.15076" lon="6.77629">
        <ele>1552.9</ele>
        <time>2018-03-16T10:26:19Z</time>
      </trkpt>
      <trkpt lat="46.15077" lon="6.77633">
        <ele>1554.3</ele>
        <time>2018-03-16T10:26:24Z</time>
      </trkpt>
      <trkpt lat="46.15078" lon="6.77637">
        <ele>1554.3</ele>
        <time>2018-03-16T10:26:27Z</time>
      </trkpt>
      <trkpt lat="46.15078" lon="6.77642">
        <ele>1555.3</ele>
        <time>2018-03-16T10:26:32Z</time>
      </trkpt>
      <trkpt lat="46.15079" lon="6.77645">
        <ele>1556.4</ele>
        <time>2018-03-16T10:26:46Z</time>
      </trkpt>
      <trkpt lat="46.1508" lon="6.7765">
        <ele>1557.9</ele>
        <time>2018-03-16T10:26:51Z</time>
      </trkpt>
      <trkpt lat="46.1508" lon="6.77655">
        <ele>1560.1</ele>
        <time>2018-03-16T10:26:55Z</time>
      </trkpt>
      <trkpt lat="46.15081" lon="6.77659">
        <ele>1561.3</ele>
        <time>2018-03-16T10:27:02Z</time>
      </trkpt>
      <trkpt lat="46.15084" lon="6.77661">
        <ele>1561.8</ele>
        <time>2018-03-16T10:27:09Z</time>
      </trkpt>
      <trkpt lat="46.15085" lon="6.77664">
        <ele>1563.6</ele>
        <time>2018-03-16T10:27:17Z</time>
      </trkpt>
      <trkpt lat="46.15087" lon="6.77668">
        <ele>1565</ele>
        <time>2018-03-16T10:27:22Z</time>
      </trkpt>
      <trkpt lat="46.15088" lon="6.77671">
        <ele>1565.4</ele>
        <time>2018-03-16T10:27:27Z</time>
      </trkpt>
      <trkpt lat="46.15089" lon="6.77676">
        <ele>1566.7</ele>
        <time>2018-03-16T10:27:32Z</time>
      </trkpt>
      <trkpt lat="46.15088" lon="6.7768">
        <ele>1568</ele>
        <time>2018-03-16T10:27:35Z</time>
      </trkpt>
      <trkpt lat="46.15088" lon="6.77686">
        <ele>1570.1</ele>
        <time>2018-03-16T10:27:38Z</time>
      </trkpt>
      <trkpt lat="46.15088" lon="6.7769">
        <ele>1571.1</ele>
        <time>2018-03-16T10:27:43Z</time>
      </trkpt>
      <trkpt lat="46.1509" lon="6.77694">
        <ele>1572.1</ele>
        <time>2018-03-16T10:27:48Z</time>
      </trkpt>
      <trkpt lat="46.1509" lon="6.77698">
        <ele>1572</ele>
        <time>2018-03-16T10:27:56Z</time>
      </trkpt>
      <trkpt lat="46.15089" lon="6.77701">
        <ele>1573</ele>
        <time>2018-03-16T10:28:06Z</time>
      </trkpt>
      <trkpt lat="46.15088" lon="6.77706">
        <ele>1573.4</ele>
        <time>2018-03-16T10:28:10Z</time>
      </trkpt>
      <trkpt lat="46.15088" lon="6.7771">
        <ele>1574.4</ele>
        <time>2018-03-16T10:28:14Z</time>
      </trkpt>
      <trkpt lat="46.15089" lon="6.77714">
        <ele>1575.8</ele>
        <time>2018-03-16T10:28:18Z</time>
      </trkpt>
      <trkpt lat="46.15091" lon="6.77742">
        <ele>1582.6</ele>
        <time>2018-03-16T10:31:29Z</time>
      </trkpt>
      <trkpt lat="46.15092" lon="6.77747">
        <ele>1583.4</ele>
        <time>2018-03-16T10:31:40Z</time>
      </trkpt>
      <trkpt lat="46.15091" lon="6.77758">
        <ele>1584.5</ele>
        <time>2018-03-16T10:31:45Z</time>
      </trkpt>
      <trkpt lat="46.15091" lon="6.77762">
        <ele>1585.4</ele>
        <time>2018-03-16T10:31:48Z</time>
      </trkpt>
      <trkpt lat="46.15091" lon="6.77766">
        <ele>1586.1</ele>
        <time>2018-03-16T10:31:51Z</time>
      </trkpt>
      <trkpt lat="46.15092" lon="6.7777">
        <ele>1587.4</ele>
        <time>2018-03-16T10:32:03Z</time>
      </trkpt>
      <trkpt lat="46.15095" lon="6.77774">
        <ele>1588.6</ele>
        <time>2018-03-16T10:32:06Z</time>
      </trkpt>
      <trkpt lat="46.15097" lon="6.77778">
        <ele>1589.3</ele>
        <time>2018-03-16T10:32:09Z</time>
      </trkpt>
      <trkpt lat="46.15097" lon="6.77783">
        <ele>1590</ele>
        <time>2018-03-16T10:32:12Z</time>
      </trkpt>
      <trkpt lat="46.15095" lon="6.77786">
        <ele>1590.7</ele>
        <time>2018-03-16T10:32:14Z</time>
      </trkpt>
      <trkpt lat="46.15094" lon="6.7779">
        <ele>1591</ele>
        <time>2018-03-16T10:32:16Z</time>
      </trkpt>
      <trkpt lat="46.15092" lon="6.77794">
        <ele>1591.8</ele>
        <time>2018-03-16T10:32:19Z</time>
      </trkpt>
      <trkpt lat="46.15093" lon="6.77799">
        <ele>1592.6</ele>
        <time>2018-03-16T10:32:26Z</time>
      </trkpt>
      <trkpt lat="46.15096" lon="6.77801">
        <ele>1594</ele>
        <time>2018-03-16T10:32:31Z</time>
      </trkpt>
      <trkpt lat="46.15097" lon="6.77805">
        <ele>1594.5</ele>
        <time>2018-03-16T10:32:36Z</time>
      </trkpt>
      <trkpt lat="46.15096" lon="6.77809">
        <ele>1594.9</ele>
        <time>2018-03-16T10:32:44Z</time>
      </trkpt>
      <trkpt lat="46.15095" lon="6.77813">
        <ele>1595.8</ele>
        <time>2018-03-16T10:32:47Z</time>
      </trkpt>
      <trkpt lat="46.15095" lon="6.77818">
        <ele>1596.7</ele>
        <time>2018-03-16T10:32:50Z</time>
      </trkpt>
      <trkpt lat="46.15095" lon="6.77821">
        <ele>1597.6</ele>
        <time>2018-03-16T10:32:53Z</time>
      </trkpt>
      <trkpt lat="46.15096" lon="6.77825">
        <ele>1598.3</ele>
        <time>2018-03-16T10:32:57Z</time>
      </trkpt>
      <trkpt lat="46.15098" lon="6.77829">
        <ele>1599.6</ele>
        <time>2018-03-16T10:33:03Z</time>
      </trkpt>
      <trkpt lat="46.15099" lon="6.77833">
        <ele>1600.4</ele>
        <time>2018-03-16T10:33:09Z</time>
      </trkpt>
      <trkpt lat="46.15096" lon="6.77835">
        <ele>1600.7</ele>
        <time>2018-03-16T10:33:13Z</time>
      </trkpt>
      <trkpt lat="46.15095" lon="6.77839">
        <ele>1600.6</ele>
        <time>2018-03-16T10:33:19Z</time>
      </trkpt>
      <trkpt lat="46.15096" lon="6.77843">
        <ele>1601.4</ele>
        <time>2018-03-16T10:33:23Z</time>
      </trkpt>
      <trkpt lat="46.15096" lon="6.7785">
        <ele>1603</ele>
        <time>2018-03-16T10:33:26Z</time>
      </trkpt>
      <trkpt lat="46.15096" lon="6.77855">
        <ele>1603.8</ele>
        <time>2018-03-16T10:33:29Z</time>
      </trkpt>
      <trkpt lat="46.15095" lon="6.7786">
        <ele>1605.1</ele>
        <time>2018-03-16T10:33:37Z</time>
      </trkpt>
      <trkpt lat="46.15095" lon="6.77864">
        <ele>1605.9</ele>
        <time>2018-03-16T10:33:40Z</time>
      </trkpt>
      <trkpt lat="46.15094" lon="6.77869">
        <ele>1606.6</ele>
        <time>2018-03-16T10:33:42Z</time>
      </trkpt>
      <trkpt lat="46.15094" lon="6.77873">
        <ele>1606.8</ele>
        <time>2018-03-16T10:33:44Z</time>
      </trkpt>
      <trkpt lat="46.15093" lon="6.77878">
        <ele>1607.5</ele>
        <time>2018-03-16T10:33:46Z</time>
      </trkpt>
      <trkpt lat="46.15093" lon="6.77882">
        <ele>1608.2</ele>
        <time>2018-03-16T10:33:57Z</time>
      </trkpt>
      <trkpt lat="46.15092" lon="6.77886">
        <ele>1609</ele>
        <time>2018-03-16T10:34:02Z</time>
      </trkpt>
      <trkpt lat="46.15091" lon="6.7789">
        <ele>1609.4</ele>
        <time>2018-03-16T10:34:06Z</time>
      </trkpt>
      <trkpt lat="46.15089" lon="6.77893">
        <ele>1610.2</ele>
        <time>2018-03-16T10:34:19Z</time>
      </trkpt>
      <trkpt lat="46.15087" lon="6.77897">
        <ele>1610.7</ele>
        <time>2018-03-16T10:34:23Z</time>
      </trkpt>
      <trkpt lat="46.15088" lon="6.77901">
        <ele>1611.5</ele>
        <time>2018-03-16T10:34:26Z</time>
      </trkpt>
      <trkpt lat="46.15087" lon="6.77906">
        <ele>1612.3</ele>
        <time>2018-03-16T10:34:30Z</time>
      </trkpt>
      <trkpt lat="46.15087" lon="6.77911">
        <ele>1613.1</ele>
        <time>2018-03-16T10:34:34Z</time>
      </trkpt>
      <trkpt lat="46.15085" lon="6.77916">
        <ele>1613.9</ele>
        <time>2018-03-16T10:34:36Z</time>
      </trkpt>
      <trkpt lat="46.15085" lon="6.77922">
        <ele>1615.2</ele>
        <time>2018-03-16T10:34:40Z</time>
      </trkpt>
      <trkpt lat="46.15085" lon="6.77926">
        <ele>1616</ele>
        <time>2018-03-16T10:34:45Z</time>
      </trkpt>
      <trkpt lat="46.15085" lon="6.77931">
        <ele>1616.7</ele>
        <time>2018-03-16T10:34:53Z</time>
      </trkpt>
      <trkpt lat="46.15085" lon="6.77935">
        <ele>1617.5</ele>
        <time>2018-03-16T10:34:57Z</time>
      </trkpt>
      <trkpt lat="46.15085" lon="6.77939">
        <ele>1618.3</ele>
        <time>2018-03-16T10:35:00Z</time>
      </trkpt>
      <trkpt lat="46.15086" lon="6.77945">
        <ele>1619.5</ele>
        <time>2018-03-16T10:35:03Z</time>
      </trkpt>
      <trkpt lat="46.15087" lon="6.77949">
        <ele>1620.3</ele>
        <time>2018-03-16T10:35:05Z</time>
      </trkpt>
      <trkpt lat="46.15087" lon="6.77954">
        <ele>1621</ele>
        <time>2018-03-16T10:35:09Z</time>
      </trkpt>
      <trkpt lat="46.15086" lon="6.77958">
        <ele>1621.7</ele>
        <time>2018-03-16T10:35:13Z</time>
      </trkpt>
      <trkpt lat="46.15085" lon="6.77963">
        <ele>1622.4</ele>
        <time>2018-03-16T10:35:23Z</time>
      </trkpt>
      <trkpt lat="46.15086" lon="6.77967">
        <ele>1623.1</ele>
        <time>2018-03-16T10:35:32Z</time>
      </trkpt>
      <trkpt lat="46.15085" lon="6.77972">
        <ele>1623.3</ele>
        <time>2018-03-16T10:35:37Z</time>
      </trkpt>
      <trkpt lat="46.15086" lon="6.77977">
        <ele>1624.9</ele>
        <time>2018-03-16T10:35:41Z</time>
      </trkpt>
      <trkpt lat="46.15086" lon="6.77982">
        <ele>1626.8</ele>
        <time>2018-03-16T10:35:44Z</time>
      </trkpt>
      <trkpt lat="46.15086" lon="6.77986">
        <ele>1627.8</ele>
        <time>2018-03-16T10:35:46Z</time>
      </trkpt>
      <trkpt lat="46.15087" lon="6.77991">
        <ele>1628.8</ele>
        <time>2018-03-16T10:35:49Z</time>
      </trkpt>
      <trkpt lat="46.15088" lon="6.77995">
        <ele>1629.8</ele>
        <time>2018-03-16T10:35:59Z</time>
      </trkpt>
      <trkpt lat="46.15089" lon="6.78">
        <ele>1631.5</ele>
        <time>2018-03-16T10:36:03Z</time>
      </trkpt>
      <trkpt lat="46.15089" lon="6.78005">
        <ele>1632.5</ele>
        <time>2018-03-16T10:36:05Z</time>
      </trkpt>
      <trkpt lat="46.1509" lon="6.7801">
        <ele>1633.5</ele>
        <time>2018-03-16T10:36:08Z</time>
      </trkpt>
      <trkpt lat="46.15089" lon="6.78015">
        <ele>1634.6</ele>
        <time>2018-03-16T10:36:11Z</time>
      </trkpt>
      <trkpt lat="46.15086" lon="6.78033">
        <ele>1640.1</ele>
        <time>2018-03-16T10:36:46Z</time>
      </trkpt>
      <trkpt lat="46.15085" lon="6.78037">
        <ele>1641.3</ele>
        <time>2018-03-16T10:36:48Z</time>
      </trkpt>
      <trkpt lat="46.15075" lon="6.78082">
        <ele>1649.3</ele>
        <time>2018-03-16T10:39:45Z</time>
      </trkpt>
      <trkpt lat="46.15073" lon="6.78085">
        <ele>1649.7</ele>
        <time>2018-03-16T10:39:56Z</time>
      </trkpt>
      <trkpt lat="46.15064" lon="6.7811">
        <ele>1653.9</ele>
        <time>2018-03-16T10:40:26Z</time>
      </trkpt>
      <trkpt lat="46.15063" lon="6.78114">
        <ele>1654.8</ele>
        <time>2018-03-16T10:40:37Z</time>
      </trkpt>
      <trkpt lat="46.15075" lon="6.78123">
        <ele>1657.7</ele>
        <time>2018-03-16T10:41:25Z</time>
      </trkpt>
      <trkpt lat="46.15078" lon="6.78125">
        <ele>1659.1</ele>
        <time>2018-03-16T10:41:33Z</time>
      </trkpt>
      <trkpt lat="46.15089" lon="6.78127">
        <ele>1664.1</ele>
        <time>2018-03-16T10:41:52Z</time>
      </trkpt>
      <trkpt lat="46.15087" lon="6.78131">
        <ele>1663.6</ele>
        <time>2018-03-16T10:42:05Z</time>
      </trkpt>
      <trkpt lat="46.15085" lon="6.78134">
        <ele>1662.8</ele>
        <time>2018-03-16T10:42:07Z</time>
      </trkpt>
      <trkpt lat="46.15083" lon="6.78137">
        <ele>1662</ele>
        <time>2018-03-16T10:42:18Z</time>
      </trkpt>
      <trkpt lat="46.15075" lon="6.78152">
        <ele>1658.8</ele>
        <time>2018-03-16T10:43:02Z</time>
      </trkpt>
      <trkpt lat="46.15072" lon="6.78154">
        <ele>1657.8</ele>
        <time>2018-03-16T10:43:04Z</time>
      </trkpt>
      <trkpt lat="46.15084" lon="6.78164">
        <ele>1661.8</ele>
        <time>2018-03-16T10:44:01Z</time>
      </trkpt>
      <trkpt lat="46.15083" lon="6.78167">
        <ele>1662.7</ele>
        <time>2018-03-16T10:44:11Z</time>
      </trkpt>
      <trkpt lat="46.1508" lon="6.78174">
        <ele>1662.9</ele>
        <time>2018-03-16T10:44:23Z</time>
      </trkpt>
      <trkpt lat="46.15077" lon="6.78177">
        <ele>1663.2</ele>
        <time>2018-03-16T10:44:26Z</time>
      </trkpt>
      <trkpt lat="46.15075" lon="6.78179">
        <ele>1663.6</ele>
        <time>2018-03-16T10:44:30Z</time>
      </trkpt>
      <trkpt lat="46.15058" lon="6.78206">
        <ele>1667</ele>
        <time>2018-03-16T10:45:21Z</time>
      </trkpt>
      <trkpt lat="46.15057" lon="6.7821">
        <ele>1668.1</ele>
        <time>2018-03-16T10:45:25Z</time>
      </trkpt>
      <trkpt lat="46.15057" lon="6.78215">
        <ele>1669.2</ele>
        <time>2018-03-16T10:45:31Z</time>
      </trkpt>
      <trkpt lat="46.15056" lon="6.78228">
        <ele>1672.2</ele>
        <time>2018-03-16T10:45:50Z</time>
      </trkpt>
      <trkpt lat="46.15057" lon="6.78232">
        <ele>1673.4</ele>
        <time>2018-03-16T10:45:58Z</time>
      </trkpt>
      <trkpt lat="46.15057" lon="6.78236">
        <ele>1674.5</ele>
        <time>2018-03-16T10:46:03Z</time>
      </trkpt>
      <trkpt lat="46.15059" lon="6.78246">
        <ele>1677.3</ele>
        <time>2018-03-16T10:46:22Z</time>
      </trkpt>
      <trkpt lat="46.1506" lon="6.78252">
        <ele>1680</ele>
        <time>2018-03-16T10:46:25Z</time>
      </trkpt>
      <trkpt lat="46.15062" lon="6.78255">
        <ele>1680.7</ele>
        <time>2018-03-16T10:46:28Z</time>
      </trkpt>
      <trkpt lat="46.15064" lon="6.78258">
        <ele>1682.2</ele>
        <time>2018-03-16T10:46:32Z</time>
      </trkpt>
      <trkpt lat="46.15066" lon="6.78261">
        <ele>1684.1</ele>
        <time>2018-03-16T10:46:38Z</time>
      </trkpt>
      <trkpt lat="46.15064" lon="6.7827">
        <ele>1686.7</ele>
        <time>2018-03-16T10:47:09Z</time>
      </trkpt>
      <trkpt lat="46.15065" lon="6.78274">
        <ele>1688</ele>
        <time>2018-03-16T10:47:16Z</time>
      </trkpt>
      <trkpt lat="46.15065" lon="6.78278">
        <ele>1689.3</ele>
        <time>2018-03-16T10:47:20Z</time>
      </trkpt>
      <trkpt lat="46.15066" lon="6.78282">
        <ele>1690.6</ele>
        <time>2018-03-16T10:47:24Z</time>
      </trkpt>
      <trkpt lat="46.15066" lon="6.78287">
        <ele>1691.8</ele>
        <time>2018-03-16T10:47:28Z</time>
      </trkpt>
      <trkpt lat="46.15065" lon="6.7829">
        <ele>1693.1</ele>
        <time>2018-03-16T10:47:31Z</time>
      </trkpt>
      <trkpt lat="46.15064" lon="6.78294">
        <ele>1693.8</ele>
        <time>2018-03-16T10:47:35Z</time>
      </trkpt>
      <trkpt lat="46.15065" lon="6.78304">
        <ele>1696.7</ele>
        <time>2018-03-16T10:48:08Z</time>
      </trkpt>
      <trkpt lat="46.15066" lon="6.7831">
        <ele>1697.9</ele>
        <time>2018-03-16T10:48:10Z</time>
      </trkpt>
      <trkpt lat="46.15066" lon="6.78315">
        <ele>1699</ele>
        <time>2018-03-16T10:48:12Z</time>
      </trkpt>
      <trkpt lat="46.15067" lon="6.78321">
        <ele>1701.3</ele>
        <time>2018-03-16T10:48:14Z</time>
      </trkpt>
      <trkpt lat="46.15068" lon="6.78325">
        <ele>1702.4</ele>
        <time>2018-03-16T10:48:16Z</time>
      </trkpt>
      <trkpt lat="46.15066" lon="6.78326">
        <ele>1702.1</ele>
        <time>2018-03-16T10:48:27Z</time>
      </trkpt>
      <trkpt lat="46.15067" lon="6.78329">
        <ele>1703.2</ele>
        <time>2018-03-16T10:48:38Z</time>
      </trkpt>
      <trkpt lat="46.15068" lon="6.78333">
        <ele>1704.8</ele>
        <time>2018-03-16T10:48:43Z</time>
      </trkpt>
      <trkpt lat="46.15074" lon="6.78346">
        <ele>1708.9</ele>
        <time>2018-03-16T10:51:32Z</time>
      </trkpt>
      <trkpt lat="46.15076" lon="6.78349">
        <ele>1709.1</ele>
        <time>2018-03-16T10:51:40Z</time>
      </trkpt>
      <trkpt lat="46.15077" lon="6.78366">
        <ele>1713.8</ele>
        <time>2018-03-16T10:51:58Z</time>
      </trkpt>
      <trkpt lat="46.15077" lon="6.7837">
        <ele>1715</ele>
        <time>2018-03-16T10:52:00Z</time>
      </trkpt>
      <trkpt lat="46.15078" lon="6.78375">
        <ele>1716.2</ele>
        <time>2018-03-16T10:52:12Z</time>
      </trkpt>
      <trkpt lat="46.15075" lon="6.78386">
        <ele>1719.1</ele>
        <time>2018-03-16T10:52:32Z</time>
      </trkpt>
      <trkpt lat="46.15074" lon="6.7839">
        <ele>1720.4</ele>
        <time>2018-03-16T10:52:37Z</time>
      </trkpt>
      <trkpt lat="46.15075" lon="6.78395">
        <ele>1721.6</ele>
        <time>2018-03-16T10:52:43Z</time>
      </trkpt>
      <trkpt lat="46.15075" lon="6.78399">
        <ele>1722.8</ele>
        <time>2018-03-16T10:52:47Z</time>
      </trkpt>
      <trkpt lat="46.15077" lon="6.78404">
        <ele>1724.3</ele>
        <time>2018-03-16T10:52:48Z</time>
      </trkpt>
      <trkpt lat="46.15076" lon="6.78413">
        <ele>1725.8</ele>
        <time>2018-03-16T10:54:08Z</time>
      </trkpt>
      <trkpt lat="46.15074" lon="6.78415">
        <ele>1726.9</ele>
        <time>2018-03-16T10:54:11Z</time>
      </trkpt>
      <trkpt lat="46.15073" lon="6.78421">
        <ele>1727.7</ele>
        <time>2018-03-16T10:54:15Z</time>
      </trkpt>
      <trkpt lat="46.15073" lon="6.78425">
        <ele>1728.8</ele>
        <time>2018-03-16T10:54:17Z</time>
      </trkpt>
      <trkpt lat="46.15074" lon="6.7843">
        <ele>1730.4</ele>
        <time>2018-03-16T10:54:24Z</time>
      </trkpt>
      <trkpt lat="46.15074" lon="6.78435">
        <ele>1731.6</ele>
        <time>2018-03-16T10:54:27Z</time>
      </trkpt>
      <trkpt lat="46.15075" lon="6.78448">
        <ele>1734.8</ele>
        <time>2018-03-16T10:54:49Z</time>
      </trkpt>
      <trkpt lat="46.15075" lon="6.78453">
        <ele>1736</ele>
        <time>2018-03-16T10:54:53Z</time>
      </trkpt>
      <trkpt lat="46.15075" lon="6.78457">
        <ele>1737.1</ele>
        <time>2018-03-16T10:54:57Z</time>
      </trkpt>
      <trkpt lat="46.15076" lon="6.78463">
        <ele>1739</ele>
        <time>2018-03-16T10:54:59Z</time>
      </trkpt>
      <trkpt lat="46.15075" lon="6.78466">
        <ele>1740.1</ele>
        <time>2018-03-16T10:55:01Z</time>
      </trkpt>
      <trkpt lat="46.15074" lon="6.78471">
        <ele>1741.2</ele>
        <time>2018-03-16T10:55:17Z</time>
      </trkpt>
      <trkpt lat="46.15076" lon="6.78474">
        <ele>1741.4</ele>
        <time>2018-03-16T10:55:26Z</time>
      </trkpt>
      <trkpt lat="46.15077" lon="6.78478">
        <ele>1743.2</ele>
        <time>2018-03-16T10:55:30Z</time>
      </trkpt>
      <trkpt lat="46.15075" lon="6.78481">
        <ele>1743.7</ele>
        <time>2018-03-16T10:55:36Z</time>
      </trkpt>
      <trkpt lat="46.15076" lon="6.78485">
        <ele>1745.4</ele>
        <time>2018-03-16T10:55:40Z</time>
      </trkpt>
      <trkpt lat="46.15079" lon="6.78488">
        <ele>1746.4</ele>
        <time>2018-03-16T10:55:50Z</time>
      </trkpt>
      <trkpt lat="46.1508" lon="6.78491">
        <ele>1747.3</ele>
        <time>2018-03-16T10:55:56Z</time>
      </trkpt>
      <trkpt lat="46.1508" lon="6.78496">
        <ele>1748.3</ele>
        <time>2018-03-16T10:55:58Z</time>
      </trkpt>
      <trkpt lat="46.1508" lon="6.785">
        <ele>1749.3</ele>
        <time>2018-03-16T10:56:00Z</time>
      </trkpt>
      <trkpt lat="46.15081" lon="6.78505">
        <ele>1751.1</ele>
        <time>2018-03-16T10:56:02Z</time>
      </trkpt>
      <trkpt lat="46.15079" lon="6.78509">
        <ele>1752</ele>
        <time>2018-03-16T10:56:07Z</time>
      </trkpt>
      <trkpt lat="46.1508" lon="6.78514">
        <ele>1753</ele>
        <time>2018-03-16T10:56:10Z</time>
      </trkpt>
      <trkpt lat="46.1508" lon="6.78519">
        <ele>1754</ele>
        <time>2018-03-16T10:56:13Z</time>
      </trkpt>
      <trkpt lat="46.15082" lon="6.78523">
        <ele>1755.1</ele>
        <time>2018-03-16T10:56:14Z</time>
      </trkpt>
      <trkpt lat="46.15082" lon="6.78528">
        <ele>1756.1</ele>
        <time>2018-03-16T10:56:23Z</time>
      </trkpt>
      <trkpt lat="46.15081" lon="6.78532">
        <ele>1757.1</ele>
        <time>2018-03-16T10:56:26Z</time>
      </trkpt>
      <trkpt lat="46.15082" lon="6.78537">
        <ele>1758</ele>
        <time>2018-03-16T10:56:30Z</time>
      </trkpt>
      <trkpt lat="46.15083" lon="6.78541">
        <ele>1758.4</ele>
        <time>2018-03-16T10:56:34Z</time>
      </trkpt>
      <trkpt lat="46.15083" lon="6.78545">
        <ele>1758.7</ele>
        <time>2018-03-16T10:56:40Z</time>
      </trkpt>
      <trkpt lat="46.15081" lon="6.78548">
        <ele>1759</ele>
        <time>2018-03-16T10:56:46Z</time>
      </trkpt>
      <trkpt lat="46.1508" lon="6.78552">
        <ele>1759.4</ele>
        <time>2018-03-16T10:56:51Z</time>
      </trkpt>
      <trkpt lat="46.15078" lon="6.78555">
        <ele>1759.7</ele>
        <time>2018-03-16T10:56:56Z</time>
      </trkpt>
      <trkpt lat="46.15076" lon="6.78559">
        <ele>1760.2</ele>
        <time>2018-03-16T10:57:00Z</time>
      </trkpt>
      <trkpt lat="46.15075" lon="6.78563">
        <ele>1760.6</ele>
        <time>2018-03-16T10:57:10Z</time>
      </trkpt>
      <trkpt lat="46.15073" lon="6.78566">
        <ele>1760.9</ele>
        <time>2018-03-16T10:57:16Z</time>
      </trkpt>
      <trkpt lat="46.15072" lon="6.78579">
        <ele>1762.4</ele>
        <time>2018-03-16T10:57:36Z</time>
      </trkpt>
      <trkpt lat="46.15074" lon="6.78582">
        <ele>1762.8</ele>
        <time>2018-03-16T10:57:45Z</time>
      </trkpt>
      <trkpt lat="46.15076" lon="6.78585">
        <ele>1763.1</ele>
        <time>2018-03-16T10:57:48Z</time>
      </trkpt>
      <trkpt lat="46.15076" lon="6.78589">
        <ele>1763.4</ele>
        <time>2018-03-16T10:57:57Z</time>
      </trkpt>
      <trkpt lat="46.15076" lon="6.78593">
        <ele>1763.7</ele>
        <time>2018-03-16T10:58:04Z</time>
      </trkpt>
      <trkpt lat="46.15078" lon="6.78598">
        <ele>1764</ele>
        <time>2018-03-16T10:58:07Z</time>
      </trkpt>
      <trkpt lat="46.15079" lon="6.78602">
        <ele>1764.3</ele>
        <time>2018-03-16T10:58:10Z</time>
      </trkpt>
      <trkpt lat="46.1508" lon="6.78607">
        <ele>1764.6</ele>
        <time>2018-03-16T10:58:14Z</time>
      </trkpt>
      <trkpt lat="46.1508" lon="6.78611">
        <ele>1764.9</ele>
        <time>2018-03-16T10:58:17Z</time>
      </trkpt>
      <trkpt lat="46.15079" lon="6.78617">
        <ele>1765.1</ele>
        <time>2018-03-16T10:58:19Z</time>
      </trkpt>
      <trkpt lat="46.1508" lon="6.78621">
        <ele>1765.4</ele>
        <time>2018-03-16T10:58:22Z</time>
      </trkpt>
      <trkpt lat="46.15082" lon="6.78624">
        <ele>1765.6</ele>
        <time>2018-03-16T10:58:29Z</time>
      </trkpt>
      <trkpt lat="46.15082" lon="6.78628">
        <ele>1766.2</ele>
        <time>2018-03-16T10:58:33Z</time>
      </trkpt>
      <trkpt lat="46.15081" lon="6.78633">
        <ele>1766.8</ele>
        <time>2018-03-16T10:58:42Z</time>
      </trkpt>
      <trkpt lat="46.15082" lon="6.78639">
        <ele>1767.4</ele>
        <time>2018-03-16T10:58:51Z</time>
      </trkpt>
      <trkpt lat="46.15082" lon="6.78643">
        <ele>1767.9</ele>
        <time>2018-03-16T10:58:53Z</time>
      </trkpt>
      <trkpt lat="46.15084" lon="6.78648">
        <ele>1768.4</ele>
        <time>2018-03-16T10:58:58Z</time>
      </trkpt>
      <trkpt lat="46.15085" lon="6.78654">
        <ele>1769</ele>
        <time>2018-03-16T10:59:01Z</time>
      </trkpt>
      <trkpt lat="46.15084" lon="6.78658">
        <ele>1769.4</ele>
        <time>2018-03-16T10:59:05Z</time>
      </trkpt>
      <trkpt lat="46.15083" lon="6.78663">
        <ele>1770.2</ele>
        <time>2018-03-16T10:59:09Z</time>
      </trkpt>
      <trkpt lat="46.15082" lon="6.78667">
        <ele>1770.7</ele>
        <time>2018-03-16T10:59:12Z</time>
      </trkpt>
      <trkpt lat="46.1508" lon="6.78671">
        <ele>1771.3</ele>
        <time>2018-03-16T10:59:15Z</time>
      </trkpt>
      <trkpt lat="46.15078" lon="6.78674">
        <ele>1771.8</ele>
        <time>2018-03-16T10:59:19Z</time>
      </trkpt>
      <trkpt lat="46.15076" lon="6.78678">
        <ele>1772.6</ele>
        <time>2018-03-16T10:59:23Z</time>
      </trkpt>
      <trkpt lat="46.15076" lon="6.78682">
        <ele>1774.3</ele>
        <time>2018-03-16T10:59:27Z</time>
      </trkpt>
      <trkpt lat="46.15076" lon="6.78686">
        <ele>1775</ele>
        <time>2018-03-16T10:59:30Z</time>
      </trkpt>
      <trkpt lat="46.15074" lon="6.78689">
        <ele>1775.5</ele>
        <time>2018-03-16T10:59:39Z</time>
      </trkpt>
      <trkpt lat="46.15074" lon="6.78693">
        <ele>1775.6</ele>
        <time>2018-03-16T10:59:51Z</time>
      </trkpt>
      <trkpt lat="46.15073" lon="6.78697">
        <ele>1776.4</ele>
        <time>2018-03-16T10:59:55Z</time>
      </trkpt>
      <trkpt lat="46.15071" lon="6.78701">
        <ele>1777.4</ele>
        <time>2018-03-16T10:59:59Z</time>
      </trkpt>
      <trkpt lat="46.1507" lon="6.78705">
        <ele>1778.3</ele>
        <time>2018-03-16T11:00:03Z</time>
      </trkpt>
      <trkpt lat="46.15068" lon="6.78708">
        <ele>1779.4</ele>
        <time>2018-03-16T11:00:07Z</time>
      </trkpt>
      <trkpt lat="46.15065" lon="6.78711">
        <ele>1780.1</ele>
        <time>2018-03-16T11:00:14Z</time>
      </trkpt>
      <trkpt lat="46.15062" lon="6.78714">
        <ele>1779.9</ele>
        <time>2018-03-16T11:00:19Z</time>
      </trkpt>
      <trkpt lat="46.15061" lon="6.78719">
        <ele>1780.5</ele>
        <time>2018-03-16T11:00:22Z</time>
      </trkpt>
      <trkpt lat="46.1506" lon="6.78724">
        <ele>1782.5</ele>
        <time>2018-03-16T11:00:25Z</time>
      </trkpt>
      <trkpt lat="46.15058" lon="6.78728">
        <ele>1783.1</ele>
        <time>2018-03-16T11:00:29Z</time>
      </trkpt>
      <trkpt lat="46.15057" lon="6.78732">
        <ele>1783.2</ele>
        <time>2018-03-16T11:00:39Z</time>
      </trkpt>
      <trkpt lat="46.15056" lon="6.78735">
        <ele>1784.2</ele>
        <time>2018-03-16T11:00:43Z</time>
      </trkpt>
      <trkpt lat="46.15054" lon="6.7874">
        <ele>1784.8</ele>
        <time>2018-03-16T11:00:46Z</time>
      </trkpt>
      <trkpt lat="46.15053" lon="6.78743">
        <ele>1785.9</ele>
        <time>2018-03-16T11:00:52Z</time>
      </trkpt>
      <trkpt lat="46.15051" lon="6.78747">
        <ele>1786.5</ele>
        <time>2018-03-16T11:00:56Z</time>
      </trkpt>
      <trkpt lat="46.1505" lon="6.78752">
        <ele>1787.6</ele>
        <time>2018-03-16T11:01:00Z</time>
      </trkpt>
      <trkpt lat="46.15048" lon="6.78756">
        <ele>1788.2</ele>
        <time>2018-03-16T11:01:05Z</time>
      </trkpt>
      <trkpt lat="46.15046" lon="6.78759">
        <ele>1788.7</ele>
        <time>2018-03-16T11:01:13Z</time>
      </trkpt>
      <trkpt lat="46.15045" lon="6.78763">
        <ele>1789.7</ele>
        <time>2018-03-16T11:01:17Z</time>
      </trkpt>
      <trkpt lat="46.15044" lon="6.78768">
        <ele>1790.7</ele>
        <time>2018-03-16T11:01:22Z</time>
      </trkpt>
      <trkpt lat="46.15043" lon="6.78773">
        <ele>1791.1</ele>
        <time>2018-03-16T11:01:25Z</time>
      </trkpt>
      <trkpt lat="46.15043" lon="6.78777">
        <ele>1792.1</ele>
        <time>2018-03-16T11:01:28Z</time>
      </trkpt>
      <trkpt lat="46.15044" lon="6.78781">
        <ele>1793.7</ele>
        <time>2018-03-16T11:01:36Z</time>
      </trkpt>
      <trkpt lat="46.15042" lon="6.78784">
        <ele>1794.2</ele>
        <time>2018-03-16T11:01:43Z</time>
      </trkpt>
      <trkpt lat="46.15043" lon="6.78789">
        <ele>1795.2</ele>
        <time>2018-03-16T11:01:49Z</time>
      </trkpt>
      <trkpt lat="46.15043" lon="6.78794">
        <ele>1796.3</ele>
        <time>2018-03-16T11:01:53Z</time>
      </trkpt>
      <trkpt lat="46.15044" lon="6.788">
        <ele>1798</ele>
        <time>2018-03-16T11:01:56Z</time>
      </trkpt>
      <trkpt lat="46.15044" lon="6.78804">
        <ele>1799</ele>
        <time>2018-03-16T11:02:05Z</time>
      </trkpt>
      <trkpt lat="46.15042" lon="6.78808">
        <ele>1799.5</ele>
        <time>2018-03-16T11:02:13Z</time>
      </trkpt>
      <trkpt lat="46.1504" lon="6.78812">
        <ele>1799.9</ele>
        <time>2018-03-16T11:02:20Z</time>
      </trkpt>
      <trkpt lat="46.15038" lon="6.78816">
        <ele>1800.9</ele>
        <time>2018-03-16T11:02:24Z</time>
      </trkpt>
      <trkpt lat="46.15038" lon="6.7882">
        <ele>1801.4</ele>
        <time>2018-03-16T11:02:29Z</time>
      </trkpt>
      <trkpt lat="46.15036" lon="6.78823">
        <ele>1802.5</ele>
        <time>2018-03-16T11:02:34Z</time>
      </trkpt>
      <trkpt lat="46.15034" lon="6.78827">
        <ele>1803.1</ele>
        <time>2018-03-16T11:02:45Z</time>
      </trkpt>
      <trkpt lat="46.15036" lon="6.7883">
        <ele>1803.7</ele>
        <time>2018-03-16T11:02:53Z</time>
      </trkpt>
      <trkpt lat="46.15039" lon="6.78834">
        <ele>1805.4</ele>
        <time>2018-03-16T11:03:00Z</time>
      </trkpt>
      <trkpt lat="46.15041" lon="6.78837">
        <ele>1807.2</ele>
        <time>2018-03-16T11:03:01Z</time>
      </trkpt>
      <trkpt lat="46.15046" lon="6.78843">
        <ele>1808.9</ele>
        <time>2018-03-16T11:03:03Z</time>
      </trkpt>
      <trkpt lat="46.15047" lon="6.78847">
        <ele>1810.7</ele>
        <time>2018-03-16T11:03:05Z</time>
      </trkpt>
      <trkpt lat="46.15047" lon="6.78852">
        <ele>1811.8</ele>
        <time>2018-03-16T11:03:09Z</time>
      </trkpt>
      <trkpt lat="46.15045" lon="6.78855">
        <ele>1812.4</ele>
        <time>2018-03-16T11:03:21Z</time>
      </trkpt>
      <trkpt lat="46.15044" lon="6.78859">
        <ele>1813.6</ele>
        <time>2018-03-16T11:03:30Z</time>
      </trkpt>
      <trkpt lat="46.15042" lon="6.78862">
        <ele>1814.2</ele>
        <time>2018-03-16T11:03:35Z</time>
      </trkpt>
      <trkpt lat="46.1504" lon="6.78866">
        <ele>1814.9</ele>
        <time>2018-03-16T11:03:42Z</time>
      </trkpt>
      <trkpt lat="46.15038" lon="6.78869">
        <ele>1815</ele>
        <time>2018-03-16T11:03:50Z</time>
      </trkpt>
      <trkpt lat="46.15036" lon="6.78872">
        <ele>1815.7</ele>
        <time>2018-03-16T11:03:56Z</time>
      </trkpt>
      <trkpt lat="46.15034" lon="6.78875">
        <ele>1816.5</ele>
        <time>2018-03-16T11:04:02Z</time>
      </trkpt>
      <trkpt lat="46.15032" lon="6.78878">
        <ele>1817.8</ele>
        <time>2018-03-16T11:04:08Z</time>
      </trkpt>
      <trkpt lat="46.15029" lon="6.7888">
        <ele>1817.4</ele>
        <time>2018-03-16T11:04:11Z</time>
      </trkpt>
      <trkpt lat="46.15026" lon="6.78883">
        <ele>1818.2</ele>
        <time>2018-03-16T11:04:16Z</time>
      </trkpt>
      <trkpt lat="46.15024" lon="6.78886">
        <ele>1817.7</ele>
        <time>2018-03-16T11:04:21Z</time>
      </trkpt>
      <trkpt lat="46.15022" lon="6.7889">
        <ele>1818.5</ele>
        <time>2018-03-16T11:04:39Z</time>
      </trkpt>
      <trkpt lat="46.1502" lon="6.78893">
        <ele>1819.3</ele>
        <time>2018-03-16T11:04:43Z</time>
      </trkpt>
      <trkpt lat="46.15017" lon="6.78895">
        <ele>1820.5</ele>
        <time>2018-03-16T11:04:47Z</time>
      </trkpt>
      <trkpt lat="46.15015" lon="6.78898">
        <ele>1820.1</ele>
        <time>2018-03-16T11:04:50Z</time>
      </trkpt>
      <trkpt lat="46.15013" lon="6.789">
        <ele>1820.6</ele>
        <time>2018-03-16T11:04:57Z</time>
      </trkpt>
      <trkpt lat="46.15014" lon="6.78906">
        <ele>1821.7</ele>
        <time>2018-03-16T11:05:02Z</time>
      </trkpt>
      <trkpt lat="46.15016" lon="6.78904">
        <ele>1822.4</ele>
        <time>2018-03-16T11:05:09Z</time>
      </trkpt>
      <trkpt lat="46.15019" lon="6.78906">
        <ele>1823.1</ele>
        <time>2018-03-16T11:05:13Z</time>
      </trkpt>
      <trkpt lat="46.15017" lon="6.78908">
        <ele>1823.6</ele>
        <time>2018-03-16T11:05:28Z</time>
      </trkpt>
      <trkpt lat="46.15015" lon="6.78912">
        <ele>1823.7</ele>
        <time>2018-03-16T11:05:36Z</time>
      </trkpt>
      <trkpt lat="46.15014" lon="6.78935">
        <ele>1829.9</ele>
        <time>2018-03-16T11:06:00Z</time>
      </trkpt>
      <trkpt lat="46.15012" lon="6.78936">
        <ele>1829.3</ele>
        <time>2018-03-16T11:06:06Z</time>
      </trkpt>
      <trkpt lat="46.15015" lon="6.78934">
        <ele>1830.1</ele>
        <time>2018-03-16T11:06:17Z</time>
      </trkpt>
      <trkpt lat="46.15015" lon="6.78952">
        <ele>1833.9</ele>
        <time>2018-03-16T11:06:45Z</time>
      </trkpt>
      <trkpt lat="46.15013" lon="6.78954">
        <ele>1833.3</ele>
        <time>2018-03-16T11:06:47Z</time>
      </trkpt>
      <trkpt lat="46.1501" lon="6.78955">
        <ele>1832.8</ele>
        <time>2018-03-16T11:06:50Z</time>
      </trkpt>
      <trkpt lat="46.15007" lon="6.78955">
        <ele>1833.8</ele>
        <time>2018-03-16T11:06:59Z</time>
      </trkpt>
      <trkpt lat="46.15005" lon="6.7896">
        <ele>1834.9</ele>
        <time>2018-03-16T11:08:57Z</time>
      </trkpt>
      <trkpt lat="46.15006" lon="6.78964">
        <ele>1836.1</ele>
        <time>2018-03-16T11:09:00Z</time>
      </trkpt>
      <trkpt lat="46.15006" lon="6.78969">
        <ele>1837.4</ele>
        <time>2018-03-16T11:09:04Z</time>
      </trkpt>
      <trkpt lat="46.15006" lon="6.78973">
        <ele>1838.6</ele>
        <time>2018-03-16T11:09:08Z</time>
      </trkpt>
      <trkpt lat="46.15007" lon="6.78978">
        <ele>1839.9</ele>
        <time>2018-03-16T11:09:12Z</time>
      </trkpt>
      <trkpt lat="46.1501" lon="6.7898">
        <ele>1840.6</ele>
        <time>2018-03-16T11:09:20Z</time>
      </trkpt>
      <trkpt lat="46.15019" lon="6.78981">
        <ele>1843.6</ele>
        <time>2018-03-16T11:09:38Z</time>
      </trkpt>
      <trkpt lat="46.15022" lon="6.78981">
        <ele>1844.3</ele>
        <time>2018-03-16T11:09:42Z</time>
      </trkpt>
      <trkpt lat="46.15024" lon="6.78982">
        <ele>1845.2</ele>
        <time>2018-03-16T11:09:46Z</time>
      </trkpt>
      <trkpt lat="46.15027" lon="6.78982">
        <ele>1846</ele>
        <time>2018-03-16T11:09:50Z</time>
      </trkpt>
      <trkpt lat="46.15031" lon="6.78984">
        <ele>1846.9</ele>
        <time>2018-03-16T11:09:53Z</time>
      </trkpt>
      <trkpt lat="46.15034" lon="6.78985">
        <ele>1847.7</ele>
        <time>2018-03-16T11:09:55Z</time>
      </trkpt>
      <trkpt lat="46.15037" lon="6.78987">
        <ele>1849.7</ele>
        <time>2018-03-16T11:09:59Z</time>
      </trkpt>
      <trkpt lat="46.1504" lon="6.78988">
        <ele>1850.5</ele>
        <time>2018-03-16T11:10:03Z</time>
      </trkpt>
      <trkpt lat="46.15042" lon="6.7899">
        <ele>1852.4</ele>
        <time>2018-03-16T11:10:07Z</time>
      </trkpt>
      <trkpt lat="46.15045" lon="6.78994">
        <ele>1853.3</ele>
        <time>2018-03-16T11:10:12Z</time>
      </trkpt>
      <trkpt lat="46.15048" lon="6.78996">
        <ele>1855.2</ele>
        <time>2018-03-16T11:10:16Z</time>
      </trkpt>
      <trkpt lat="46.1505" lon="6.78998">
        <ele>1857.2</ele>
        <time>2018-03-16T11:10:20Z</time>
      </trkpt>
      <trkpt lat="46.15052" lon="6.79003">
        <ele>1858.5</ele>
        <time>2018-03-16T11:10:28Z</time>
      </trkpt>
      <trkpt lat="46.15052" lon="6.79007">
        <ele>1859.8</ele>
        <time>2018-03-16T11:10:35Z</time>
      </trkpt>
      <trkpt lat="46.15053" lon="6.79011">
        <ele>1862</ele>
        <time>2018-03-16T11:10:42Z</time>
      </trkpt>
      <trkpt lat="46.15054" lon="6.79016">
        <ele>1863.4</ele>
        <time>2018-03-16T11:10:46Z</time>
      </trkpt>
      <trkpt lat="46.15054" lon="6.7902">
        <ele>1864.8</ele>
        <time>2018-03-16T11:10:50Z</time>
      </trkpt>
      <trkpt lat="46.15054" lon="6.79025">
        <ele>1866.3</ele>
        <time>2018-03-16T11:10:59Z</time>
      </trkpt>
      <trkpt lat="46.15054" lon="6.79029">
        <ele>1867.7</ele>
        <time>2018-03-16T11:11:02Z</time>
      </trkpt>
      <trkpt lat="46.15053" lon="6.79033">
        <ele>1869</ele>
        <time>2018-03-16T11:11:14Z</time>
      </trkpt>
      <trkpt lat="46.15054" lon="6.79038">
        <ele>1870.3</ele>
        <time>2018-03-16T11:11:18Z</time>
      </trkpt>
      <trkpt lat="46.15055" lon="6.79042">
        <ele>1871.7</ele>
        <time>2018-03-16T11:11:23Z</time>
      </trkpt>
      <trkpt lat="46.15056" lon="6.79046">
        <ele>1873.8</ele>
        <time>2018-03-16T11:11:27Z</time>
      </trkpt>
      <trkpt lat="46.15056" lon="6.79051">
        <ele>1875.1</ele>
        <time>2018-03-16T11:11:33Z</time>
      </trkpt>
      <trkpt lat="46.15057" lon="6.79055">
        <ele>1876.5</ele>
        <time>2018-03-16T11:11:36Z</time>
      </trkpt>
      <trkpt lat="46.15057" lon="6.79059">
        <ele>1877.9</ele>
        <time>2018-03-16T11:11:39Z</time>
      </trkpt>
      <trkpt lat="46.15055" lon="6.79076">
        <ele>1882.1</ele>
        <time>2018-03-16T11:12:27Z</time>
      </trkpt>
      <trkpt lat="46.15053" lon="6.7908">
        <ele>1883.3</ele>
        <time>2018-03-16T11:12:40Z</time>
      </trkpt>
      <trkpt lat="46.15052" lon="6.79085">
        <ele>1884.3</ele>
        <time>2018-03-16T11:12:54Z</time>
      </trkpt>
      <trkpt lat="46.1505" lon="6.79087">
        <ele>1885</ele>
        <time>2018-03-16T11:12:58Z</time>
      </trkpt>
      <trkpt lat="46.15047" lon="6.79088">
        <ele>1885.7</ele>
        <time>2018-03-16T11:13:03Z</time>
      </trkpt>
      <trkpt lat="46.15046" lon="6.79092">
        <ele>1886.4</ele>
        <time>2018-03-16T11:13:06Z</time>
      </trkpt>
      <trkpt lat="46.15045" lon="6.79096">
        <ele>1887.1</ele>
        <time>2018-03-16T11:13:09Z</time>
      </trkpt>
      <trkpt lat="46.15043" lon="6.791">
        <ele>1887.8</ele>
        <time>2018-03-16T11:13:13Z</time>
      </trkpt>
      <trkpt lat="46.15042" lon="6.79104">
        <ele>1888.5</ele>
        <time>2018-03-16T11:13:16Z</time>
      </trkpt>
      <trkpt lat="46.15041" lon="6.79108">
        <ele>1889</ele>
        <time>2018-03-16T11:13:20Z</time>
      </trkpt>
      <trkpt lat="46.1504" lon="6.79111">
        <ele>1889.5</ele>
        <time>2018-03-16T11:13:23Z</time>
      </trkpt>
      <trkpt lat="46.15038" lon="6.79115">
        <ele>1890</ele>
        <time>2018-03-16T11:13:27Z</time>
      </trkpt>
      <trkpt lat="46.15037" lon="6.79118">
        <ele>1890.5</ele>
        <time>2018-03-16T11:13:33Z</time>
      </trkpt>
      <trkpt lat="46.15035" lon="6.79121">
        <ele>1891.2</ele>
        <time>2018-03-16T11:13:44Z</time>
      </trkpt>
      <trkpt lat="46.15026" lon="6.79164">
        <ele>1897</ele>
        <time>2018-03-16T11:15:01Z</time>
      </trkpt>
      <trkpt lat="46.15025" lon="6.79168">
        <ele>1897.5</ele>
        <time>2018-03-16T11:15:02Z</time>
      </trkpt>
      <trkpt lat="46.15024" lon="6.79172">
        <ele>1898.4</ele>
        <time>2018-03-16T11:15:04Z</time>
      </trkpt>
      <trkpt lat="46.15023" lon="6.79177">
        <ele>1899.7</ele>
        <time>2018-03-16T11:15:07Z</time>
      </trkpt>
      <trkpt lat="46.1502" lon="6.79208">
        <ele>1905.6</ele>
        <time>2018-03-16T11:15:51Z</time>
      </trkpt>
      <trkpt lat="46.15019" lon="6.79212">
        <ele>1906.2</ele>
        <time>2018-03-16T11:15:54Z</time>
      </trkpt>
      <trkpt lat="46.1502" lon="6.79216">
        <ele>1906.8</ele>
        <time>2018-03-16T11:15:59Z</time>
      </trkpt>
      <trkpt lat="46.1502" lon="6.7922">
        <ele>1907.3</ele>
        <time>2018-03-16T11:16:05Z</time>
      </trkpt>
      <trkpt lat="46.15017" lon="6.79222">
        <ele>1907.8</ele>
        <time>2018-03-16T11:16:11Z</time>
      </trkpt>
      <trkpt lat="46.15016" lon="6.79227">
        <ele>1908.4</ele>
        <time>2018-03-16T11:16:14Z</time>
      </trkpt>
      <trkpt lat="46.15016" lon="6.79232">
        <ele>1908.9</ele>
        <time>2018-03-16T11:16:16Z</time>
      </trkpt>
      <trkpt lat="46.15013" lon="6.79234">
        <ele>1909.2</ele>
        <time>2018-03-16T11:16:22Z</time>
      </trkpt>
      <trkpt lat="46.15013" lon="6.79238">
        <ele>1909.5</ele>
        <time>2018-03-16T11:16:32Z</time>
      </trkpt>
      <trkpt lat="46.15012" lon="6.79243">
        <ele>1909.9</ele>
        <time>2018-03-16T11:16:36Z</time>
      </trkpt>
      <trkpt lat="46.15011" lon="6.79246">
        <ele>1910.1</ele>
        <time>2018-03-16T11:16:39Z</time>
      </trkpt>
      <trkpt lat="46.15009" lon="6.7925">
        <ele>1910.3</ele>
        <time>2018-03-16T11:16:44Z</time>
      </trkpt>
      <trkpt lat="46.15008" lon="6.79254">
        <ele>1910.4</ele>
        <time>2018-03-16T11:16:49Z</time>
      </trkpt>
      <trkpt lat="46.15007" lon="6.79262">
        <ele>1910.7</ele>
        <time>2018-03-16T11:17:15Z</time>
      </trkpt>
      <trkpt lat="46.15007" lon="6.79266">
        <ele>1910.9</ele>
        <time>2018-03-16T11:17:23Z</time>
      </trkpt>
      <trkpt lat="46.15006" lon="6.7927">
        <ele>1913</ele>
        <time>2018-03-16T11:17:27Z</time>
      </trkpt>
      <trkpt lat="46.15004" lon="6.79274">
        <ele>1913.6</ele>
        <time>2018-03-16T11:17:31Z</time>
      </trkpt>
      <trkpt lat="46.15001" lon="6.79277">
        <ele>1914.1</ele>
        <time>2018-03-16T11:17:36Z</time>
      </trkpt>
      <trkpt lat="46.14999" lon="6.7928">
        <ele>1914.3</ele>
        <time>2018-03-16T11:17:41Z</time>
      </trkpt>
      <trkpt lat="46.14997" lon="6.79284">
        <ele>1914.5</ele>
        <time>2018-03-16T11:17:52Z</time>
      </trkpt>
      <trkpt lat="46.14994" lon="6.79286">
        <ele>1914.6</ele>
        <time>2018-03-16T11:17:56Z</time>
      </trkpt>
      <trkpt lat="46.14992" lon="6.79289">
        <ele>1914.9</ele>
        <time>2018-03-16T11:18:01Z</time>
      </trkpt>
      <trkpt lat="46.14991" lon="6.79285">
        <ele>1915.2</ele>
        <time>2018-03-16T11:18:08Z</time>
      </trkpt>
      <trkpt lat="46.1499" lon="6.7929">
        <ele>1915.6</ele>
        <time>2018-03-16T11:18:17Z</time>
      </trkpt>
      <trkpt lat="46.14988" lon="6.79294">
        <ele>1915.8</ele>
        <time>2018-03-16T11:18:20Z</time>
      </trkpt>
      <trkpt lat="46.14986" lon="6.79297">
        <ele>1916</ele>
        <time>2018-03-16T11:18:26Z</time>
      </trkpt>
      <trkpt lat="46.14983" lon="6.793">
        <ele>1916.2</ele>
        <time>2018-03-16T11:18:30Z</time>
      </trkpt>
      <trkpt lat="46.1498" lon="6.793">
        <ele>1916.3</ele>
        <time>2018-03-16T11:18:35Z</time>
      </trkpt>
      <trkpt lat="46.14978" lon="6.79302">
        <ele>1916.5</ele>
        <time>2018-03-16T11:18:39Z</time>
      </trkpt>
      <trkpt lat="46.14975" lon="6.79304">
        <ele>1916.6</ele>
        <time>2018-03-16T11:18:42Z</time>
      </trkpt>
      <trkpt lat="46.14972" lon="6.79307">
        <ele>1916.8</ele>
        <time>2018-03-16T11:18:47Z</time>
      </trkpt>
      <trkpt lat="46.1497" lon="6.79308">
        <ele>1917</ele>
        <time>2018-03-16T11:18:57Z</time>
      </trkpt>
      <trkpt lat="46.14967" lon="6.79312">
        <ele>1917.1</ele>
        <time>2018-03-16T11:19:02Z</time>
      </trkpt>
      <trkpt lat="46.14965" lon="6.79314">
        <ele>1917.3</ele>
        <time>2018-03-16T11:19:05Z</time>
      </trkpt>
      <trkpt lat="46.14961" lon="6.79315">
        <ele>1917.4</ele>
        <time>2018-03-16T11:19:08Z</time>
      </trkpt>
      <trkpt lat="46.14959" lon="6.79317">
        <ele>1917.5</ele>
        <time>2018-03-16T11:19:14Z</time>
      </trkpt>
      <trkpt lat="46.14957" lon="6.79321">
        <ele>1917.4</ele>
        <time>2018-03-16T11:19:19Z</time>
      </trkpt>
      <trkpt lat="46.14953" lon="6.79328">
        <ele>1917.1</ele>
        <time>2018-03-16T11:20:16Z</time>
      </trkpt>
      <trkpt lat="46.1495" lon="6.79329">
        <ele>1917</ele>
        <time>2018-03-16T11:20:17Z</time>
      </trkpt>
      <trkpt lat="46.14947" lon="6.79327">
        <ele>1916.9</ele>
        <time>2018-03-16T11:20:24Z</time>
      </trkpt>
      <trkpt lat="46.14944" lon="6.79329">
        <ele>1917</ele>
        <time>2018-03-16T11:20:31Z</time>
      </trkpt>
      <trkpt lat="46.14941" lon="6.79331">
        <ele>1917.3</ele>
        <time>2018-03-16T11:20:33Z</time>
      </trkpt>
      <trkpt lat="46.14938" lon="6.7933">
        <ele>1917.5</ele>
        <time>2018-03-16T11:20:40Z</time>
      </trkpt>
      <trkpt lat="46.14935" lon="6.79331">
        <ele>1917.8</ele>
        <time>2018-03-16T11:20:45Z</time>
      </trkpt>
      <trkpt lat="46.14932" lon="6.79332">
        <ele>1918</ele>
        <time>2018-03-16T11:20:47Z</time>
      </trkpt>
      <trkpt lat="46.1493" lon="6.79335">
        <ele>1918.3</ele>
        <time>2018-03-16T11:20:51Z</time>
      </trkpt>
      <trkpt lat="46.14927" lon="6.79338">
        <ele>1918.3</ele>
        <time>2018-03-16T11:20:54Z</time>
      </trkpt>
      <trkpt lat="46.14925" lon="6.79341">
        <ele>1918.4</ele>
        <time>2018-03-16T11:21:00Z</time>
      </trkpt>
      <trkpt lat="46.14922" lon="6.79343">
        <ele>1918.6</ele>
        <time>2018-03-16T11:21:04Z</time>
      </trkpt>
      <trkpt lat="46.14919" lon="6.79344">
        <ele>1918.8</ele>
        <time>2018-03-16T11:21:08Z</time>
      </trkpt>
      <trkpt lat="46.14916" lon="6.79344">
        <ele>1918.6</ele>
        <time>2018-03-16T11:21:15Z</time>
      </trkpt>
      <trkpt lat="46.14914" lon="6.79345">
        <ele>1918.5</ele>
        <time>2018-03-16T11:21:19Z</time>
      </trkpt>
      <trkpt lat="46.14911" lon="6.79346">
        <ele>1918.6</ele>
        <time>2018-03-16T11:21:22Z</time>
      </trkpt>
      <trkpt lat="46.14908" lon="6.79347">
        <ele>1918.7</ele>
        <time>2018-03-16T11:21:26Z</time>
      </trkpt>
      <trkpt lat="46.14905" lon="6.79348">
        <ele>1918.9</ele>
        <time>2018-03-16T11:21:40Z</time>
      </trkpt>
      <trkpt lat="46.14903" lon="6.79347">
        <ele>1919.1</ele>
        <time>2018-03-16T11:21:50Z</time>
      </trkpt>
      <trkpt lat="46.14902" lon="6.79342">
        <ele>1919.4</ele>
        <time>2018-03-16T11:22:15Z</time>
      </trkpt>
      <trkpt lat="46.14899" lon="6.79342">
        <ele>1919.9</ele>
        <time>2018-03-16T11:22:29Z</time>
      </trkpt>
      <trkpt lat="46.14896" lon="6.79345">
        <ele>1920.7</ele>
        <time>2018-03-16T11:22:34Z</time>
      </trkpt>
      <trkpt lat="46.14893" lon="6.79345">
        <ele>1921.3</ele>
        <time>2018-03-16T11:22:39Z</time>
      </trkpt>
      <trkpt lat="46.1489" lon="6.79345">
        <ele>1922.1</ele>
        <time>2018-03-16T11:22:50Z</time>
      </trkpt>
      <trkpt lat="46.14888" lon="6.79347">
        <ele>1922.8</ele>
        <time>2018-03-16T11:22:54Z</time>
      </trkpt>
      <trkpt lat="46.14886" lon="6.79351">
        <ele>1923.6</ele>
        <time>2018-03-16T11:23:04Z</time>
      </trkpt>
      <trkpt lat="46.14884" lon="6.79354">
        <ele>1924.3</ele>
        <time>2018-03-16T11:23:10Z</time>
      </trkpt>
      <trkpt lat="46.14882" lon="6.79357">
        <ele>1925</ele>
        <time>2018-03-16T11:23:17Z</time>
      </trkpt>
      <trkpt lat="46.1488" lon="6.7936">
        <ele>1925.9</ele>
        <time>2018-03-16T11:23:22Z</time>
      </trkpt>
      <trkpt lat="46.14879" lon="6.79364">
        <ele>1927</ele>
        <time>2018-03-16T11:23:32Z</time>
      </trkpt>
      <trkpt lat="46.14881" lon="6.79366">
        <ele>1927.8</ele>
        <time>2018-03-16T11:23:45Z</time>
      </trkpt>
      <trkpt lat="46.14878" lon="6.79364">
        <ele>1928</ele>
        <time>2018-03-16T11:24:01Z</time>
      </trkpt>
      <trkpt lat="46.14875" lon="6.79363">
        <ele>1928.8</ele>
        <time>2018-03-16T11:24:04Z</time>
      </trkpt>
      <trkpt lat="46.14872" lon="6.79363">
        <ele>1929.5</ele>
        <time>2018-03-16T11:24:06Z</time>
      </trkpt>
      <trkpt lat="46.14869" lon="6.79364">
        <ele>1930.7</ele>
        <time>2018-03-16T11:24:14Z</time>
      </trkpt>
      <trkpt lat="46.14866" lon="6.79362">
        <ele>1931.8</ele>
        <time>2018-03-16T11:24:20Z</time>
      </trkpt>
      <trkpt lat="46.14862" lon="6.79362">
        <ele>1932.5</ele>
        <time>2018-03-16T11:24:25Z</time>
      </trkpt>
      <trkpt lat="46.1486" lon="6.79359">
        <ele>1933.6</ele>
        <time>2018-03-16T11:24:30Z</time>
      </trkpt>
      <trkpt lat="46.14858" lon="6.7936">
        <ele>1934.6</ele>
        <time>2018-03-16T11:24:36Z</time>
      </trkpt>
      <trkpt lat="46.14855" lon="6.79364">
        <ele>1935.7</ele>
        <time>2018-03-16T11:24:41Z</time>
      </trkpt>
      <trkpt lat="46.14852" lon="6.79366">
        <ele>1936.8</ele>
        <time>2018-03-16T11:24:46Z</time>
      </trkpt>
      <trkpt lat="46.14847" lon="6.79376">
        <ele>1938.9</ele>
        <time>2018-03-16T11:25:10Z</time>
      </trkpt>
      <trkpt lat="46.14846" lon="6.7938">
        <ele>1939.6</ele>
        <time>2018-03-16T11:25:17Z</time>
      </trkpt>
      <trkpt lat="46.14844" lon="6.79383">
        <ele>1940.1</ele>
        <time>2018-03-16T11:25:24Z</time>
      </trkpt>
      <trkpt lat="46.14841" lon="6.79386">
        <ele>1940.3</ele>
        <time>2018-03-16T11:25:28Z</time>
      </trkpt>
      <trkpt lat="46.14838" lon="6.79388">
        <ele>1940.9</ele>
        <time>2018-03-16T11:25:34Z</time>
      </trkpt>
      <trkpt lat="46.14836" lon="6.7939">
        <ele>1942</ele>
        <time>2018-03-16T11:25:38Z</time>
      </trkpt>
      <trkpt lat="46.14829" lon="6.794">
        <ele>1943.7</ele>
        <time>2018-03-16T11:25:59Z</time>
      </trkpt>
      <trkpt lat="46.14827" lon="6.79404">
        <ele>1944.3</ele>
        <time>2018-03-16T11:26:05Z</time>
      </trkpt>
      <trkpt lat="46.14827" lon="6.79409">
        <ele>1944.9</ele>
        <time>2018-03-16T11:26:13Z</time>
      </trkpt>
      <trkpt lat="46.14829" lon="6.7941">
        <ele>1945.3</ele>
        <time>2018-03-16T11:26:23Z</time>
      </trkpt>
      <trkpt lat="46.14828" lon="6.79407">
        <ele>1945.4</ele>
        <time>2018-03-16T11:26:39Z</time>
      </trkpt>
      <trkpt lat="46.14829" lon="6.79403">
        <ele>1945.6</ele>
        <time>2018-03-16T11:26:47Z</time>
      </trkpt>
      <trkpt lat="46.14831" lon="6.794">
        <ele>1946</ele>
        <time>2018-03-16T11:26:50Z</time>
      </trkpt>
      <trkpt lat="46.14829" lon="6.79398">
        <ele>1946.4</ele>
        <time>2018-03-16T11:26:57Z</time>
      </trkpt>
      <trkpt lat="46.14826" lon="6.794">
        <ele>1946.9</ele>
        <time>2018-03-16T11:27:05Z</time>
      </trkpt>
      <trkpt lat="46.14823" lon="6.79399">
        <ele>1947.3</ele>
        <time>2018-03-16T11:27:12Z</time>
      </trkpt>
      <trkpt lat="46.14816" lon="6.79411">
        <ele>1948.7</ele>
        <time>2018-03-16T11:27:36Z</time>
      </trkpt>
      <trkpt lat="46.14815" lon="6.79415">
        <ele>1949.5</ele>
        <time>2018-03-16T11:27:42Z</time>
      </trkpt>
      <trkpt lat="46.14812" lon="6.79417">
        <ele>1950.4</ele>
        <time>2018-03-16T11:27:47Z</time>
      </trkpt>
      <trkpt lat="46.14809" lon="6.79419">
        <ele>1951.4</ele>
        <time>2018-03-16T11:27:55Z</time>
      </trkpt>
      <trkpt lat="46.14807" lon="6.79421">
        <ele>1952</ele>
        <time>2018-03-16T11:27:59Z</time>
      </trkpt>
      <trkpt lat="46.14804" lon="6.79423">
        <ele>1952.7</ele>
        <time>2018-03-16T11:28:09Z</time>
      </trkpt>
      <trkpt lat="46.14802" lon="6.79425">
        <ele>1953.2</ele>
        <time>2018-03-16T11:28:13Z</time>
      </trkpt>
      <trkpt lat="46.148" lon="6.79429">
        <ele>1953.6</ele>
        <time>2018-03-16T11:28:18Z</time>
      </trkpt>
      <trkpt lat="46.14798" lon="6.79431">
        <ele>1954</ele>
        <time>2018-03-16T11:28:23Z</time>
      </trkpt>
      <trkpt lat="46.14796" lon="6.79434">
        <ele>1954.5</ele>
        <time>2018-03-16T11:28:29Z</time>
      </trkpt>
      <trkpt lat="46.14794" lon="6.79438">
        <ele>1955.2</ele>
        <time>2018-03-16T11:28:35Z</time>
      </trkpt>
      <trkpt lat="46.14791" lon="6.79442">
        <ele>1955.9</ele>
        <time>2018-03-16T11:28:40Z</time>
      </trkpt>
      <trkpt lat="46.14789" lon="6.79444">
        <ele>1956.5</ele>
        <time>2018-03-16T11:28:46Z</time>
      </trkpt>
      <trkpt lat="46.14786" lon="6.79445">
        <ele>1957</ele>
        <time>2018-03-16T11:28:50Z</time>
      </trkpt>
      <trkpt lat="46.14785" lon="6.7945">
        <ele>1957.6</ele>
        <time>2018-03-16T11:28:56Z</time>
      </trkpt>
      <trkpt lat="46.14786" lon="6.7944">
        <ele>1956.6</ele>
        <time>2018-03-16T11:43:13Z</time>
      </trkpt>
      <trkpt lat="46.14787" lon="6.79436">
        <ele>1956.3</ele>
        <time>2018-03-16T11:43:14Z</time>
      </trkpt>
      <trkpt lat="46.14787" lon="6.79426">
        <ele>1955.6</ele>
        <time>2018-03-16T11:43:15Z</time>
      </trkpt>
      <trkpt lat="46.14784" lon="6.79416">
        <ele>1954.9</ele>
        <time>2018-03-16T11:43:16Z</time>
      </trkpt>
      <trkpt lat="46.1478" lon="6.79407">
        <ele>1954.2</ele>
        <time>2018-03-16T11:43:17Z</time>
      </trkpt>
      <trkpt lat="46.14777" lon="6.79401">
        <ele>1953.9</ele>
        <time>2018-03-16T11:43:18Z</time>
      </trkpt>
      <trkpt lat="46.14775" lon="6.79397">
        <ele>1953.9</ele>
        <time>2018-03-16T11:43:19Z</time>
      </trkpt>
      <trkpt lat="46.14773" lon="6.79392">
        <ele>1953.8</ele>
        <time>2018-03-16T11:43:20Z</time>
      </trkpt>
      <trkpt lat="46.14771" lon="6.79388">
        <ele>1953.1</ele>
        <time>2018-03-16T11:43:21Z</time>
      </trkpt>
      <trkpt lat="46.1477" lon="6.79384">
        <ele>1953.4</ele>
        <time>2018-03-16T11:43:23Z</time>
      </trkpt>
      <trkpt lat="46.14769" lon="6.79381">
        <ele>1952.7</ele>
        <time>2018-03-16T11:43:26Z</time>
      </trkpt>
      <trkpt lat="46.14766" lon="6.79377">
        <ele>1952.3</ele>
        <time>2018-03-16T11:43:30Z</time>
      </trkpt>
      <trkpt lat="46.14763" lon="6.79372">
        <ele>1951.9</ele>
        <time>2018-03-16T11:43:32Z</time>
      </trkpt>
      <trkpt lat="46.14761" lon="6.79368">
        <ele>1951.4</ele>
        <time>2018-03-16T11:43:34Z</time>
      </trkpt>
      <trkpt lat="46.14759" lon="6.79364">
        <ele>1950.7</ele>
        <time>2018-03-16T11:43:35Z</time>
      </trkpt>
      <trkpt lat="46.14757" lon="6.79359">
        <ele>1950.2</ele>
        <time>2018-03-16T11:43:36Z</time>
      </trkpt>
      <trkpt lat="46.14754" lon="6.79356">
        <ele>1949.6</ele>
        <time>2018-03-16T11:43:37Z</time>
      </trkpt>
      <trkpt lat="46.14751" lon="6.79353">
        <ele>1948.9</ele>
        <time>2018-03-16T11:43:38Z</time>
      </trkpt>
      <trkpt lat="46.14747" lon="6.7935">
        <ele>1948.2</ele>
        <time>2018-03-16T11:43:40Z</time>
      </trkpt>
      <trkpt lat="46.14745" lon="6.79346">
        <ele>1948.2</ele>
        <time>2018-03-16T11:43:43Z</time>
      </trkpt>
      <trkpt lat="46.14748" lon="6.79344">
        <ele>1947.1</ele>
        <time>2018-03-16T11:43:52Z</time>
      </trkpt>
      <trkpt lat="46.14751" lon="6.79342">
        <ele>1946.8</ele>
        <time>2018-03-16T11:44:02Z</time>
      </trkpt>
      <trkpt lat="46.14757" lon="6.7934">
        <ele>1945.5</ele>
        <time>2018-03-16T11:44:40Z</time>
      </trkpt>
      <trkpt lat="46.14757" lon="6.79335">
        <ele>1944.4</ele>
        <time>2018-03-16T11:44:41Z</time>
      </trkpt>
      <trkpt lat="46.14754" lon="6.79332">
        <ele>1943.4</ele>
        <time>2018-03-16T11:44:42Z</time>
      </trkpt>
      <trkpt lat="46.14757" lon="6.79323">
        <ele>1940.9</ele>
        <time>2018-03-16T11:44:50Z</time>
      </trkpt>
      <trkpt lat="46.14757" lon="6.79319">
        <ele>1939.7</ele>
        <time>2018-03-16T11:44:51Z</time>
      </trkpt>
      <trkpt lat="46.1476" lon="6.79315">
        <ele>1938.3</ele>
        <time>2018-03-16T11:44:53Z</time>
      </trkpt>
      <trkpt lat="46.1476" lon="6.7931">
        <ele>1937</ele>
        <time>2018-03-16T11:44:55Z</time>
      </trkpt>
      <trkpt lat="46.14762" lon="6.79305">
        <ele>1935.5</ele>
        <time>2018-03-16T11:44:56Z</time>
      </trkpt>
      <trkpt lat="46.1476" lon="6.79297">
        <ele>1933.3</ele>
        <time>2018-03-16T11:44:57Z</time>
      </trkpt>
      <trkpt lat="46.1476" lon="6.79292">
        <ele>1931.9</ele>
        <time>2018-03-16T11:44:58Z</time>
      </trkpt>
      <trkpt lat="46.14758" lon="6.79283">
        <ele>1929.2</ele>
        <time>2018-03-16T11:45:00Z</time>
      </trkpt>
      <trkpt lat="46.14757" lon="6.79278">
        <ele>1928.1</ele>
        <time>2018-03-16T11:45:03Z</time>
      </trkpt>
      <trkpt lat="46.14755" lon="6.79274">
        <ele>1927</ele>
        <time>2018-03-16T11:45:17Z</time>
      </trkpt>
      <trkpt lat="46.14753" lon="6.7927">
        <ele>1925.6</ele>
        <time>2018-03-16T11:45:21Z</time>
      </trkpt>
      <trkpt lat="46.14752" lon="6.79265">
        <ele>1924.6</ele>
        <time>2018-03-16T11:45:23Z</time>
      </trkpt>
      <trkpt lat="46.1475" lon="6.79261">
        <ele>1923.3</ele>
        <time>2018-03-16T11:45:25Z</time>
      </trkpt>
      <trkpt lat="46.14748" lon="6.79257">
        <ele>1922.3</ele>
        <time>2018-03-16T11:45:28Z</time>
      </trkpt>
      <trkpt lat="46.14747" lon="6.79253">
        <ele>1920.9</ele>
        <time>2018-03-16T11:46:40Z</time>
      </trkpt>
      <trkpt lat="46.14745" lon="6.79248">
        <ele>1919.8</ele>
        <time>2018-03-16T11:46:41Z</time>
      </trkpt>
      <trkpt lat="46.14747" lon="6.79243">
        <ele>1916.4</ele>
        <time>2018-03-16T11:46:42Z</time>
      </trkpt>
      <trkpt lat="46.14746" lon="6.79234">
        <ele>1913.4</ele>
        <time>2018-03-16T11:46:43Z</time>
      </trkpt>
      <trkpt lat="46.14747" lon="6.79225">
        <ele>1910.3</ele>
        <time>2018-03-16T11:46:44Z</time>
      </trkpt>
      <trkpt lat="46.14747" lon="6.79216">
        <ele>1907.1</ele>
        <time>2018-03-16T11:46:45Z</time>
      </trkpt>
      <trkpt lat="46.14748" lon="6.79208">
        <ele>1903.8</ele>
        <time>2018-03-16T11:46:46Z</time>
      </trkpt>
      <trkpt lat="46.14749" lon="6.792">
        <ele>1901.9</ele>
        <time>2018-03-16T11:46:47Z</time>
      </trkpt>
      <trkpt lat="46.14747" lon="6.79192">
        <ele>1898.1</ele>
        <time>2018-03-16T11:46:48Z</time>
      </trkpt>
      <trkpt lat="46.14742" lon="6.79187">
        <ele>1897.2</ele>
        <time>2018-03-16T11:46:49Z</time>
      </trkpt>
      <trkpt lat="46.14738" lon="6.79184">
        <ele>1895.8</ele>
        <time>2018-03-16T11:46:50Z</time>
      </trkpt>
      <trkpt lat="46.14735" lon="6.79181">
        <ele>1894.5</ele>
        <time>2018-03-16T11:46:51Z</time>
      </trkpt>
      <trkpt lat="46.14737" lon="6.79184">
        <ele>1895.6</ele>
        <time>2018-03-16T11:47:03Z</time>
      </trkpt>
      <trkpt lat="46.14742" lon="6.79175">
        <ele>1891.5</ele>
        <time>2018-03-16T11:47:18Z</time>
      </trkpt>
      <trkpt lat="46.14742" lon="6.7917">
        <ele>1888.1</ele>
        <time>2018-03-16T11:47:19Z</time>
      </trkpt>
      <trkpt lat="46.14744" lon="6.79161">
        <ele>1883.8</ele>
        <time>2018-03-16T11:47:21Z</time>
      </trkpt>
      <trkpt lat="46.14746" lon="6.79155">
        <ele>1881.8</ele>
        <time>2018-03-16T11:47:22Z</time>
      </trkpt>
      <trkpt lat="46.14746" lon="6.79151">
        <ele>1879.8</ele>
        <time>2018-03-16T11:47:23Z</time>
      </trkpt>
      <trkpt lat="46.14747" lon="6.79145">
        <ele>1877.2</ele>
        <time>2018-03-16T11:47:24Z</time>
      </trkpt>
      <trkpt lat="46.14748" lon="6.79138">
        <ele>1873.5</ele>
        <time>2018-03-16T11:47:25Z</time>
      </trkpt>
      <trkpt lat="46.14749" lon="6.7913">
        <ele>1869.6</ele>
        <time>2018-03-16T11:47:26Z</time>
      </trkpt>
      <trkpt lat="46.14751" lon="6.79121">
        <ele>1866.5</ele>
        <time>2018-03-16T11:47:27Z</time>
      </trkpt>
      <trkpt lat="46.14754" lon="6.79113">
        <ele>1862.9</ele>
        <time>2018-03-16T11:47:28Z</time>
      </trkpt>
      <trkpt lat="46.14757" lon="6.79105">
        <ele>1860.8</ele>
        <time>2018-03-16T11:47:29Z</time>
      </trkpt>
      <trkpt lat="46.14761" lon="6.79097">
        <ele>1856.9</ele>
        <time>2018-03-16T11:47:30Z</time>
      </trkpt>
      <trkpt lat="46.14764" lon="6.7909">
        <ele>1855</ele>
        <time>2018-03-16T11:47:31Z</time>
      </trkpt>
      <trkpt lat="46.14767" lon="6.79082">
        <ele>1852.8</ele>
        <time>2018-03-16T11:47:32Z</time>
      </trkpt>
      <trkpt lat="46.14769" lon="6.79073">
        <ele>1849.9</ele>
        <time>2018-03-16T11:47:33Z</time>
      </trkpt>
      <trkpt lat="46.1477" lon="6.79064">
        <ele>1847.4</ele>
        <time>2018-03-16T11:47:34Z</time>
      </trkpt>
      <trkpt lat="46.14772" lon="6.79057">
        <ele>1845.6</ele>
        <time>2018-03-16T11:47:35Z</time>
      </trkpt>
      <trkpt lat="46.14774" lon="6.79048">
        <ele>1843.7</ele>
        <time>2018-03-16T11:47:36Z</time>
      </trkpt>
      <trkpt lat="46.14777" lon="6.7904">
        <ele>1841.4</ele>
        <time>2018-03-16T11:47:37Z</time>
      </trkpt>
      <trkpt lat="46.14779" lon="6.79032">
        <ele>1838.1</ele>
        <time>2018-03-16T11:47:38Z</time>
      </trkpt>
      <trkpt lat="46.14781" lon="6.79024">
        <ele>1834.4</ele>
        <time>2018-03-16T11:47:39Z</time>
      </trkpt>
      <trkpt lat="46.14784" lon="6.79015">
        <ele>1832.9</ele>
        <time>2018-03-16T11:47:40Z</time>
      </trkpt>
      <trkpt lat="46.14787" lon="6.79008">
        <ele>1832.2</ele>
        <time>2018-03-16T11:47:41Z</time>
      </trkpt>
      <trkpt lat="46.14789" lon="6.79001">
        <ele>1831.3</ele>
        <time>2018-03-16T11:47:42Z</time>
      </trkpt>
      <trkpt lat="46.14792" lon="6.78993">
        <ele>1830.5</ele>
        <time>2018-03-16T11:47:43Z</time>
      </trkpt>
      <trkpt lat="46.14795" lon="6.78987">
        <ele>1829.8</ele>
        <time>2018-03-16T11:47:44Z</time>
      </trkpt>
      <trkpt lat="46.14798" lon="6.78979">
        <ele>1828.9</ele>
        <time>2018-03-16T11:47:45Z</time>
      </trkpt>
      <trkpt lat="46.14788" lon="6.78973">
        <ele>1827.2</ele>
        <time>2018-03-16T11:48:54Z</time>
      </trkpt>
      <trkpt lat="46.14785" lon="6.78971">
        <ele>1826.6</ele>
        <time>2018-03-16T11:48:55Z</time>
      </trkpt>
      <trkpt lat="46.14782" lon="6.78969">
        <ele>1826</ele>
        <time>2018-03-16T11:48:56Z</time>
      </trkpt>
      <trkpt lat="46.14779" lon="6.78966">
        <ele>1825.2</ele>
        <time>2018-03-16T11:48:57Z</time>
      </trkpt>
      <trkpt lat="46.14777" lon="6.78964">
        <ele>1824.4</ele>
        <time>2018-03-16T11:48:58Z</time>
      </trkpt>
      <trkpt lat="46.14771" lon="6.78961">
        <ele>1822.7</ele>
        <time>2018-03-16T11:49:00Z</time>
      </trkpt>
      <trkpt lat="46.14766" lon="6.78959">
        <ele>1821.4</ele>
        <time>2018-03-16T11:49:01Z</time>
      </trkpt>
      <trkpt lat="46.14762" lon="6.78958">
        <ele>1820.5</ele>
        <time>2018-03-16T11:49:02Z</time>
      </trkpt>
      <trkpt lat="46.14759" lon="6.78956">
        <ele>1819.8</ele>
        <time>2018-03-16T11:49:05Z</time>
      </trkpt>
      <trkpt lat="46.14756" lon="6.78954">
        <ele>1818.9</ele>
        <time>2018-03-16T11:49:07Z</time>
      </trkpt>
      <trkpt lat="46.14752" lon="6.78952">
        <ele>1817.9</ele>
        <time>2018-03-16T11:49:09Z</time>
      </trkpt>
      <trkpt lat="46.1475" lon="6.78946">
        <ele>1816.6</ele>
        <time>2018-03-16T11:49:11Z</time>
      </trkpt>
      <trkpt lat="46.1475" lon="6.78942">
        <ele>1816</ele>
        <time>2018-03-16T11:49:38Z</time>
      </trkpt>
      <trkpt lat="46.14751" lon="6.78939">
        <ele>1815.4</ele>
        <time>2018-03-16T11:49:39Z</time>
      </trkpt>
      <trkpt lat="46.14749" lon="6.78934">
        <ele>1814.4</ele>
        <time>2018-03-16T11:49:40Z</time>
      </trkpt>
      <trkpt lat="46.14746" lon="6.78927">
        <ele>1813</ele>
        <time>2018-03-16T11:49:41Z</time>
      </trkpt>
      <trkpt lat="46.14749" lon="6.78922">
        <ele>1811.9</ele>
        <time>2018-03-16T11:49:42Z</time>
      </trkpt>
      <trkpt lat="46.1475" lon="6.78912">
        <ele>1810.3</ele>
        <time>2018-03-16T11:49:43Z</time>
      </trkpt>
      <trkpt lat="46.14751" lon="6.78902">
        <ele>1808.4</ele>
        <time>2018-03-16T11:49:44Z</time>
      </trkpt>
      <trkpt lat="46.14753" lon="6.78892">
        <ele>1806.6</ele>
        <time>2018-03-16T11:49:45Z</time>
      </trkpt>
      <trkpt lat="46.14749" lon="6.78817">
        <ele>1781.7</ele>
        <time>2018-03-16T11:49:53Z</time>
      </trkpt>
      <trkpt lat="46.1475" lon="6.78807">
        <ele>1778.7</ele>
        <time>2018-03-16T11:49:54Z</time>
      </trkpt>
      <trkpt lat="46.14751" lon="6.78798">
        <ele>1775.8</ele>
        <time>2018-03-16T11:49:55Z</time>
      </trkpt>
      <trkpt lat="46.14752" lon="6.78789">
        <ele>1772.3</ele>
        <time>2018-03-16T11:49:56Z</time>
      </trkpt>
      <trkpt lat="46.14754" lon="6.78782">
        <ele>1769.3</ele>
        <time>2018-03-16T11:49:57Z</time>
      </trkpt>
      <trkpt lat="46.14754" lon="6.78768">
        <ele>1765.3</ele>
        <time>2018-03-16T11:49:58Z</time>
      </trkpt>
      <trkpt lat="46.14754" lon="6.78755">
        <ele>1761.4</ele>
        <time>2018-03-16T11:49:59Z</time>
      </trkpt>
      <trkpt lat="46.14755" lon="6.78746">
        <ele>1758.1</ele>
        <time>2018-03-16T11:50:00Z</time>
      </trkpt>
      <trkpt lat="46.14757" lon="6.78737">
        <ele>1755.6</ele>
        <time>2018-03-16T11:50:01Z</time>
      </trkpt>
      <trkpt lat="46.14759" lon="6.78727">
        <ele>1751.6</ele>
        <time>2018-03-16T11:50:02Z</time>
      </trkpt>
      <trkpt lat="46.14759" lon="6.78719">
        <ele>1750.4</ele>
        <time>2018-03-16T11:50:03Z</time>
      </trkpt>
      <trkpt lat="46.14758" lon="6.78715">
        <ele>1749.8</ele>
        <time>2018-03-16T11:50:04Z</time>
      </trkpt>
      <trkpt lat="46.14756" lon="6.78708">
        <ele>1747.6</ele>
        <time>2018-03-16T11:50:05Z</time>
      </trkpt>
      <trkpt lat="46.14752" lon="6.78702">
        <ele>1746.6</ele>
        <time>2018-03-16T11:50:06Z</time>
      </trkpt>
      <trkpt lat="46.14749" lon="6.78695">
        <ele>1746.2</ele>
        <time>2018-03-16T11:50:07Z</time>
      </trkpt>
      <trkpt lat="46.14746" lon="6.78689">
        <ele>1744.9</ele>
        <time>2018-03-16T11:50:08Z</time>
      </trkpt>
      <trkpt lat="46.14743" lon="6.78682">
        <ele>1743.9</ele>
        <time>2018-03-16T11:50:09Z</time>
      </trkpt>
      <trkpt lat="46.14741" lon="6.78674">
        <ele>1742.7</ele>
        <time>2018-03-16T11:50:10Z</time>
      </trkpt>
      <trkpt lat="46.14739" lon="6.78668">
        <ele>1741.3</ele>
        <time>2018-03-16T11:50:11Z</time>
      </trkpt>
      <trkpt lat="46.14742" lon="6.78661">
        <ele>1739.7</ele>
        <time>2018-03-16T11:50:12Z</time>
      </trkpt>
      <trkpt lat="46.14744" lon="6.78655">
        <ele>1738.1</ele>
        <time>2018-03-16T11:50:13Z</time>
      </trkpt>
      <trkpt lat="46.14744" lon="6.78648">
        <ele>1736</ele>
        <time>2018-03-16T11:50:14Z</time>
      </trkpt>
      <trkpt lat="46.14745" lon="6.78641">
        <ele>1733.9</ele>
        <time>2018-03-16T11:50:15Z</time>
      </trkpt>
      <trkpt lat="46.14742" lon="6.78633">
        <ele>1732.5</ele>
        <time>2018-03-16T11:50:16Z</time>
      </trkpt>
      <trkpt lat="46.14742" lon="6.78627">
        <ele>1731.4</ele>
        <time>2018-03-16T11:50:17Z</time>
      </trkpt>
      <trkpt lat="46.14738" lon="6.78623">
        <ele>1730.9</ele>
        <time>2018-03-16T11:50:19Z</time>
      </trkpt>
      <trkpt lat="46.14743" lon="6.78619">
        <ele>1728.9</ele>
        <time>2018-03-16T11:53:09Z</time>
      </trkpt>
      <trkpt lat="46.14745" lon="6.78617">
        <ele>1728.8</ele>
        <time>2018-03-16T11:53:10Z</time>
      </trkpt>
      <trkpt lat="46.14747" lon="6.78614">
        <ele>1727.3</ele>
        <time>2018-03-16T11:53:11Z</time>
      </trkpt>
      <trkpt lat="46.14749" lon="6.78609">
        <ele>1726.3</ele>
        <time>2018-03-16T11:53:12Z</time>
      </trkpt>
      <trkpt lat="46.14751" lon="6.78605">
        <ele>1724.8</ele>
        <time>2018-03-16T11:53:13Z</time>
      </trkpt>
      <trkpt lat="46.14753" lon="6.786">
        <ele>1723.4</ele>
        <time>2018-03-16T11:53:14Z</time>
      </trkpt>
      <trkpt lat="46.14755" lon="6.78596">
        <ele>1722.5</ele>
        <time>2018-03-16T11:53:15Z</time>
      </trkpt>
      <trkpt lat="46.14757" lon="6.78591">
        <ele>1721</ele>
        <time>2018-03-16T11:53:16Z</time>
      </trkpt>
      <trkpt lat="46.1476" lon="6.78586">
        <ele>1718.6</ele>
        <time>2018-03-16T11:53:17Z</time>
      </trkpt>
      <trkpt lat="46.14762" lon="6.78582">
        <ele>1718.1</ele>
        <time>2018-03-16T11:53:18Z</time>
      </trkpt>
      <trkpt lat="46.14764" lon="6.78578">
        <ele>1717</ele>
        <time>2018-03-16T11:53:19Z</time>
      </trkpt>
      <trkpt lat="46.14766" lon="6.78575">
        <ele>1715.5</ele>
        <time>2018-03-16T11:53:20Z</time>
      </trkpt>
      <trkpt lat="46.14768" lon="6.78572">
        <ele>1713.9</ele>
        <time>2018-03-16T11:53:21Z</time>
      </trkpt>
      <trkpt lat="46.1477" lon="6.7857">
        <ele>1713.4</ele>
        <time>2018-03-16T11:53:22Z</time>
      </trkpt>
      <trkpt lat="46.14773" lon="6.78567">
        <ele>1712.2</ele>
        <time>2018-03-16T11:53:23Z</time>
      </trkpt>
      <trkpt lat="46.14772" lon="6.78561">
        <ele>1711.1</ele>
        <time>2018-03-16T11:53:24Z</time>
      </trkpt>
      <trkpt lat="46.14771" lon="6.78554">
        <ele>1708.9</ele>
        <time>2018-03-16T11:53:25Z</time>
      </trkpt>
      <trkpt lat="46.14771" lon="6.7855">
        <ele>1707.8</ele>
        <time>2018-03-16T11:53:26Z</time>
      </trkpt>
      <trkpt lat="46.14772" lon="6.78544">
        <ele>1706.8</ele>
        <time>2018-03-16T11:53:28Z</time>
      </trkpt>
      <trkpt lat="46.14772" lon="6.7854">
        <ele>1705.8</ele>
        <time>2018-03-16T11:53:29Z</time>
      </trkpt>
      <trkpt lat="46.14776" lon="6.78543">
        <ele>1705.2</ele>
        <time>2018-03-16T11:53:32Z</time>
      </trkpt>
      <trkpt lat="46.14778" lon="6.78546">
        <ele>1705.7</ele>
        <time>2018-03-16T11:53:33Z</time>
      </trkpt>
      <trkpt lat="46.14781" lon="6.78547">
        <ele>1706.3</ele>
        <time>2018-03-16T11:53:45Z</time>
      </trkpt>
      <trkpt lat="46.14784" lon="6.78546">
        <ele>1704.9</ele>
        <time>2018-03-16T11:53:48Z</time>
      </trkpt>
      <trkpt lat="46.14789" lon="6.78544">
        <ele>1704.3</ele>
        <time>2018-03-16T11:53:50Z</time>
      </trkpt>
      <trkpt lat="46.14793" lon="6.78542">
        <ele>1703.1</ele>
        <time>2018-03-16T11:53:52Z</time>
      </trkpt>
      <trkpt lat="46.14796" lon="6.78541">
        <ele>1702.8</ele>
        <time>2018-03-16T11:53:53Z</time>
      </trkpt>
      <trkpt lat="46.14799" lon="6.7854">
        <ele>1702.6</ele>
        <time>2018-03-16T11:53:54Z</time>
      </trkpt>
      <trkpt lat="46.14801" lon="6.78537">
        <ele>1701.4</ele>
        <time>2018-03-16T11:53:55Z</time>
      </trkpt>
      <trkpt lat="46.14803" lon="6.78533">
        <ele>1700.3</ele>
        <time>2018-03-16T11:53:56Z</time>
      </trkpt>
      <trkpt lat="46.14805" lon="6.78527">
        <ele>1699.2</ele>
        <time>2018-03-16T11:53:57Z</time>
      </trkpt>
      <trkpt lat="46.14806" lon="6.78522">
        <ele>1698.1</ele>
        <time>2018-03-16T11:53:58Z</time>
      </trkpt>
      <trkpt lat="46.14808" lon="6.78518">
        <ele>1697</ele>
        <time>2018-03-16T11:54:00Z</time>
      </trkpt>
      <trkpt lat="46.1481" lon="6.7851">
        <ele>1695</ele>
        <time>2018-03-16T11:54:02Z</time>
      </trkpt>
      <trkpt lat="46.14809" lon="6.78505">
        <ele>1694.1</ele>
        <time>2018-03-16T11:55:51Z</time>
      </trkpt>
      <trkpt lat="46.14808" lon="6.78501">
        <ele>1693</ele>
        <time>2018-03-16T11:55:52Z</time>
      </trkpt>
      <trkpt lat="46.14806" lon="6.78493">
        <ele>1691.1</ele>
        <time>2018-03-16T11:55:53Z</time>
      </trkpt>
      <trkpt lat="46.14805" lon="6.78488">
        <ele>1690</ele>
        <time>2018-03-16T11:55:54Z</time>
      </trkpt>
      <trkpt lat="46.14804" lon="6.78481">
        <ele>1688.1</ele>
        <time>2018-03-16T11:55:55Z</time>
      </trkpt>
      <trkpt lat="46.14803" lon="6.78473">
        <ele>1686.1</ele>
        <time>2018-03-16T11:55:56Z</time>
      </trkpt>
      <trkpt lat="46.14803" lon="6.78465">
        <ele>1684.2</ele>
        <time>2018-03-16T11:55:57Z</time>
      </trkpt>
      <trkpt lat="46.14803" lon="6.78458">
        <ele>1683.3</ele>
        <time>2018-03-16T11:55:58Z</time>
      </trkpt>
      <trkpt lat="46.14804" lon="6.78452">
        <ele>1681.5</ele>
        <time>2018-03-16T11:55:59Z</time>
      </trkpt>
      <trkpt lat="46.14806" lon="6.78448">
        <ele>1680.6</ele>
        <time>2018-03-16T11:56:04Z</time>
      </trkpt>
      <trkpt lat="46.14809" lon="6.78451">
        <ele>1681.5</ele>
        <time>2018-03-16T11:56:14Z</time>
      </trkpt>
      <trkpt lat="46.14811" lon="6.78446">
        <ele>1680.5</ele>
        <time>2018-03-16T11:56:21Z</time>
      </trkpt>
      <trkpt lat="46.14811" lon="6.7844">
        <ele>1679.5</ele>
        <time>2018-03-16T11:56:22Z</time>
      </trkpt>
      <trkpt lat="46.1481" lon="6.78435">
        <ele>1677.5</ele>
        <time>2018-03-16T11:56:23Z</time>
      </trkpt>
      <trkpt lat="46.14809" lon="6.7843">
        <ele>1676.5</ele>
        <time>2018-03-16T11:56:24Z</time>
      </trkpt>
      <trkpt lat="46.14807" lon="6.78427">
        <ele>1675.5</ele>
        <time>2018-03-16T11:56:38Z</time>
      </trkpt>
      <trkpt lat="46.14807" lon="6.78423">
        <ele>1674.5</ele>
        <time>2018-03-16T11:56:42Z</time>
      </trkpt>
      <trkpt lat="46.14807" lon="6.78418">
        <ele>1673.7</ele>
        <time>2018-03-16T11:56:48Z</time>
      </trkpt>
      <trkpt lat="46.14808" lon="6.78414">
        <ele>1672.8</ele>
        <time>2018-03-16T11:56:51Z</time>
      </trkpt>
      <trkpt lat="46.14808" lon="6.78409">
        <ele>1672.1</ele>
        <time>2018-03-16T11:56:55Z</time>
      </trkpt>
      <trkpt lat="46.14811" lon="6.78406">
        <ele>1671.4</ele>
        <time>2018-03-16T11:56:59Z</time>
      </trkpt>
      <trkpt lat="46.14812" lon="6.78401">
        <ele>1670.7</ele>
        <time>2018-03-16T11:57:06Z</time>
      </trkpt>
      <trkpt lat="46.14813" lon="6.78398">
        <ele>1670.6</ele>
        <time>2018-03-16T11:57:08Z</time>
      </trkpt>
      <trkpt lat="46.14815" lon="6.78394">
        <ele>1669.9</ele>
        <time>2018-03-16T11:57:11Z</time>
      </trkpt>
      <trkpt lat="46.14817" lon="6.78389">
        <ele>1669.1</ele>
        <time>2018-03-16T11:57:13Z</time>
      </trkpt>
      <trkpt lat="46.14818" lon="6.78384">
        <ele>1667.8</ele>
        <time>2018-03-16T11:57:15Z</time>
      </trkpt>
      <trkpt lat="46.14819" lon="6.78377">
        <ele>1667</ele>
        <time>2018-03-16T11:57:17Z</time>
      </trkpt>
      <trkpt lat="46.14822" lon="6.78375">
        <ele>1666.3</ele>
        <time>2018-03-16T11:57:30Z</time>
      </trkpt>
      <trkpt lat="46.14823" lon="6.78369">
        <ele>1665.6</ele>
        <time>2018-03-16T11:57:34Z</time>
      </trkpt>
      <trkpt lat="46.14823" lon="6.78365">
        <ele>1664.8</ele>
        <time>2018-03-16T11:57:36Z</time>
      </trkpt>
      <trkpt lat="46.14823" lon="6.7836">
        <ele>1664</ele>
        <time>2018-03-16T11:57:39Z</time>
      </trkpt>
      <trkpt lat="46.14822" lon="6.78356">
        <ele>1663.2</ele>
        <time>2018-03-16T11:57:45Z</time>
      </trkpt>
      <trkpt lat="46.14824" lon="6.78353">
        <ele>1662.5</ele>
        <time>2018-03-16T11:57:47Z</time>
      </trkpt>
      <trkpt lat="46.14827" lon="6.7835">
        <ele>1662.6</ele>
        <time>2018-03-16T11:57:50Z</time>
      </trkpt>
      <trkpt lat="46.1483" lon="6.78347">
        <ele>1662</ele>
        <time>2018-03-16T11:57:53Z</time>
      </trkpt>
      <trkpt lat="46.14833" lon="6.78347">
        <ele>1662.2</ele>
        <time>2018-03-16T11:57:56Z</time>
      </trkpt>
      <trkpt lat="46.14835" lon="6.78343">
        <ele>1661.5</ele>
        <time>2018-03-16T11:57:58Z</time>
      </trkpt>
      <trkpt lat="46.14837" lon="6.78337">
        <ele>1661.1</ele>
        <time>2018-03-16T11:57:59Z</time>
      </trkpt>
      <trkpt lat="46.14839" lon="6.78333">
        <ele>1660</ele>
        <time>2018-03-16T11:58:00Z</time>
      </trkpt>
      <trkpt lat="46.14839" lon="6.78325">
        <ele>1659.3</ele>
        <time>2018-03-16T11:58:01Z</time>
      </trkpt>
      <trkpt lat="46.14839" lon="6.78317">
        <ele>1658</ele>
        <time>2018-03-16T11:58:02Z</time>
      </trkpt>
      <trkpt lat="46.1484" lon="6.78309">
        <ele>1656.5</ele>
        <time>2018-03-16T11:58:03Z</time>
      </trkpt>
      <trkpt lat="46.14842" lon="6.78304">
        <ele>1655.9</ele>
        <time>2018-03-16T11:58:04Z</time>
      </trkpt>
      <trkpt lat="46.14844" lon="6.78297">
        <ele>1654.3</ele>
        <time>2018-03-16T11:58:05Z</time>
      </trkpt>
      <trkpt lat="46.14842" lon="6.78292">
        <ele>1653.4</ele>
        <time>2018-03-16T11:58:06Z</time>
      </trkpt>
      <trkpt lat="46.1484" lon="6.78288">
        <ele>1652.4</ele>
        <time>2018-03-16T11:58:12Z</time>
      </trkpt>
      <trkpt lat="46.1484" lon="6.78283">
        <ele>1651.7</ele>
        <time>2018-03-16T11:58:29Z</time>
      </trkpt>
      <trkpt lat="46.1484" lon="6.78279">
        <ele>1650.9</ele>
        <time>2018-03-16T11:58:32Z</time>
      </trkpt>
      <trkpt lat="46.1484" lon="6.78275">
        <ele>1650.2</ele>
        <time>2018-03-16T11:58:41Z</time>
      </trkpt>
      <trkpt lat="46.14842" lon="6.78271">
        <ele>1649.8</ele>
        <time>2018-03-16T11:58:45Z</time>
      </trkpt>
      <trkpt lat="46.14843" lon="6.78266">
        <ele>1649.1</ele>
        <time>2018-03-16T11:58:48Z</time>
      </trkpt>
      <trkpt lat="46.14844" lon="6.78261">
        <ele>1648.3</ele>
        <time>2018-03-16T11:58:50Z</time>
      </trkpt>
      <trkpt lat="46.14843" lon="6.78255">
        <ele>1646.9</ele>
        <time>2018-03-16T11:58:53Z</time>
      </trkpt>
      <trkpt lat="46.14843" lon="6.78251">
        <ele>1646</ele>
        <time>2018-03-16T11:58:56Z</time>
      </trkpt>
      <trkpt lat="46.14843" lon="6.78247">
        <ele>1645.2</ele>
        <time>2018-03-16T11:59:01Z</time>
      </trkpt>
      <trkpt lat="46.14843" lon="6.78241">
        <ele>1644.4</ele>
        <time>2018-03-16T11:59:04Z</time>
      </trkpt>
      <trkpt lat="46.14844" lon="6.78235">
        <ele>1643.6</ele>
        <time>2018-03-16T11:59:06Z</time>
      </trkpt>
      <trkpt lat="46.14845" lon="6.78227">
        <ele>1642.4</ele>
        <time>2018-03-16T11:59:08Z</time>
      </trkpt>
      <trkpt lat="46.14846" lon="6.78222">
        <ele>1641.6</ele>
        <time>2018-03-16T11:59:09Z</time>
      </trkpt>
      <trkpt lat="46.14848" lon="6.78215">
        <ele>1640.2</ele>
        <time>2018-03-16T11:59:11Z</time>
      </trkpt>
      <trkpt lat="46.14848" lon="6.78208">
        <ele>1638.4</ele>
        <time>2018-03-16T11:59:13Z</time>
      </trkpt>
      <trkpt lat="46.14846" lon="6.78201">
        <ele>1637.1</ele>
        <time>2018-03-16T11:59:14Z</time>
      </trkpt>
      <trkpt lat="46.14847" lon="6.78194">
        <ele>1635.3</ele>
        <time>2018-03-16T11:59:15Z</time>
      </trkpt>
      <trkpt lat="46.14846" lon="6.78189">
        <ele>1634.4</ele>
        <time>2018-03-16T11:59:19Z</time>
      </trkpt>
      <trkpt lat="46.14846" lon="6.78185">
        <ele>1633.4</ele>
        <time>2018-03-16T11:59:23Z</time>
      </trkpt>
      <trkpt lat="46.14848" lon="6.78181">
        <ele>1632.9</ele>
        <time>2018-03-16T11:59:30Z</time>
      </trkpt>
      <trkpt lat="46.14852" lon="6.78177">
        <ele>1632.3</ele>
        <time>2018-03-16T11:59:33Z</time>
      </trkpt>
      <trkpt lat="46.14856" lon="6.78173">
        <ele>1631.7</ele>
        <time>2018-03-16T11:59:34Z</time>
      </trkpt>
      <trkpt lat="46.14856" lon="6.78167">
        <ele>1631.1</ele>
        <time>2018-03-16T11:59:37Z</time>
      </trkpt>
      <trkpt lat="46.14857" lon="6.78161">
        <ele>1630</ele>
        <time>2018-03-16T11:59:38Z</time>
      </trkpt>
      <trkpt lat="46.14858" lon="6.78154">
        <ele>1628.1</ele>
        <time>2018-03-16T11:59:39Z</time>
      </trkpt>
      <trkpt lat="46.1486" lon="6.78149">
        <ele>1627.6</ele>
        <time>2018-03-16T11:59:40Z</time>
      </trkpt>
      <trkpt lat="46.14864" lon="6.78144">
        <ele>1627.2</ele>
        <time>2018-03-16T11:59:41Z</time>
      </trkpt>
      <trkpt lat="46.14866" lon="6.78141">
        <ele>1626.9</ele>
        <time>2018-03-16T11:59:42Z</time>
      </trkpt>
      <trkpt lat="46.14868" lon="6.78138">
        <ele>1626</ele>
        <time>2018-03-16T11:59:49Z</time>
      </trkpt>
      <trkpt lat="46.14872" lon="6.78137">
        <ele>1626.8</ele>
        <time>2018-03-16T11:59:52Z</time>
      </trkpt>
      <trkpt lat="46.14874" lon="6.78138">
        <ele>1627.2</ele>
        <time>2018-03-16T11:59:54Z</time>
      </trkpt>
      <trkpt lat="46.1487" lon="6.78132">
        <ele>1625.4</ele>
        <time>2018-03-16T12:00:14Z</time>
      </trkpt>
      <trkpt lat="46.14871" lon="6.78126">
        <ele>1623.5</ele>
        <time>2018-03-16T12:00:16Z</time>
      </trkpt>
      <trkpt lat="46.14871" lon="6.7812">
        <ele>1622.5</ele>
        <time>2018-03-16T12:00:17Z</time>
      </trkpt>
      <trkpt lat="46.1487" lon="6.78114">
        <ele>1621.4</ele>
        <time>2018-03-16T12:00:18Z</time>
      </trkpt>
      <trkpt lat="46.1487" lon="6.78109">
        <ele>1619.4</ele>
        <time>2018-03-16T12:00:19Z</time>
      </trkpt>
      <trkpt lat="46.14871" lon="6.78103">
        <ele>1618.4</ele>
        <time>2018-03-16T12:00:20Z</time>
      </trkpt>
      <trkpt lat="46.14871" lon="6.78097">
        <ele>1617.4</ele>
        <time>2018-03-16T12:00:21Z</time>
      </trkpt>
      <trkpt lat="46.14872" lon="6.78093">
        <ele>1616.9</ele>
        <time>2018-03-16T12:00:22Z</time>
      </trkpt>
      <trkpt lat="46.14872" lon="6.78088">
        <ele>1616</ele>
        <time>2018-03-16T12:00:23Z</time>
      </trkpt>
      <trkpt lat="46.14872" lon="6.78084">
        <ele>1614.3</ele>
        <time>2018-03-16T12:00:24Z</time>
      </trkpt>
      <trkpt lat="46.14872" lon="6.78077">
        <ele>1613.3</ele>
        <time>2018-03-16T12:00:25Z</time>
      </trkpt>
      <trkpt lat="46.14871" lon="6.78072">
        <ele>1612.4</ele>
        <time>2018-03-16T12:00:26Z</time>
      </trkpt>
      <trkpt lat="46.14871" lon="6.78067">
        <ele>1610.3</ele>
        <time>2018-03-16T12:00:27Z</time>
      </trkpt>
      <trkpt lat="46.14871" lon="6.7806">
        <ele>1609.8</ele>
        <time>2018-03-16T12:00:29Z</time>
      </trkpt>
      <trkpt lat="46.14872" lon="6.78053">
        <ele>1608.1</ele>
        <time>2018-03-16T12:00:31Z</time>
      </trkpt>
      <trkpt lat="46.14873" lon="6.78049">
        <ele>1607.3</ele>
        <time>2018-03-16T12:00:33Z</time>
      </trkpt>
      <trkpt lat="46.14874" lon="6.78044">
        <ele>1606.4</ele>
        <time>2018-03-16T12:00:35Z</time>
      </trkpt>
      <trkpt lat="46.14875" lon="6.78039">
        <ele>1605.8</ele>
        <time>2018-03-16T12:00:36Z</time>
      </trkpt>
      <trkpt lat="46.14876" lon="6.78034">
        <ele>1604.9</ele>
        <time>2018-03-16T12:00:37Z</time>
      </trkpt>
      <trkpt lat="46.14877" lon="6.78028">
        <ele>1603.1</ele>
        <time>2018-03-16T12:00:38Z</time>
      </trkpt>
      <trkpt lat="46.14878" lon="6.78021">
        <ele>1602.4</ele>
        <time>2018-03-16T12:00:39Z</time>
      </trkpt>
      <trkpt lat="46.14879" lon="6.78016">
        <ele>1601.5</ele>
        <time>2018-03-16T12:00:40Z</time>
      </trkpt>
      <trkpt lat="46.14879" lon="6.78009">
        <ele>1600.1</ele>
        <time>2018-03-16T12:00:41Z</time>
      </trkpt>
      <trkpt lat="46.1488" lon="6.78004">
        <ele>1599.4</ele>
        <time>2018-03-16T12:00:42Z</time>
      </trkpt>
      <trkpt lat="46.1488" lon="6.77998">
        <ele>1598.3</ele>
        <time>2018-03-16T12:00:43Z</time>
      </trkpt>
      <trkpt lat="46.1488" lon="6.77992">
        <ele>1597.4</ele>
        <time>2018-03-16T12:00:44Z</time>
      </trkpt>
      <trkpt lat="46.1488" lon="6.77985">
        <ele>1596.7</ele>
        <time>2018-03-16T12:00:45Z</time>
      </trkpt>
      <trkpt lat="46.1488" lon="6.77978">
        <ele>1595.5</ele>
        <time>2018-03-16T12:00:46Z</time>
      </trkpt>
      <trkpt lat="46.1488" lon="6.7797">
        <ele>1594.3</ele>
        <time>2018-03-16T12:00:47Z</time>
      </trkpt>
      <trkpt lat="46.1488" lon="6.77962">
        <ele>1593.2</ele>
        <time>2018-03-16T12:00:48Z</time>
      </trkpt>
      <trkpt lat="46.1488" lon="6.77952">
        <ele>1592.1</ele>
        <time>2018-03-16T12:00:49Z</time>
      </trkpt>
      <trkpt lat="46.1488" lon="6.77943">
        <ele>1590.8</ele>
        <time>2018-03-16T12:00:50Z</time>
      </trkpt>
      <trkpt lat="46.14881" lon="6.77934">
        <ele>1588.9</ele>
        <time>2018-03-16T12:00:51Z</time>
      </trkpt>
      <trkpt lat="46.14881" lon="6.77922">
        <ele>1587.8</ele>
        <time>2018-03-16T12:00:52Z</time>
      </trkpt>
      <trkpt lat="46.14881" lon="6.77913">
        <ele>1586.8</ele>
        <time>2018-03-16T12:00:53Z</time>
      </trkpt>
      <trkpt lat="46.14879" lon="6.77901">
        <ele>1585.4</ele>
        <time>2018-03-16T12:00:54Z</time>
      </trkpt>
      <trkpt lat="46.14878" lon="6.77891">
        <ele>1584.5</ele>
        <time>2018-03-16T12:00:55Z</time>
      </trkpt>
      <trkpt lat="46.14876" lon="6.77882">
        <ele>1583.6</ele>
        <time>2018-03-16T12:00:56Z</time>
      </trkpt>
      <trkpt lat="46.14877" lon="6.77873">
        <ele>1582.9</ele>
        <time>2018-03-16T12:00:57Z</time>
      </trkpt>
      <trkpt lat="46.14879" lon="6.77868">
        <ele>1582.3</ele>
        <time>2018-03-16T12:00:58Z</time>
      </trkpt>
      <trkpt lat="46.14881" lon="6.77863">
        <ele>1581.6</ele>
        <time>2018-03-16T12:00:59Z</time>
      </trkpt>
      <trkpt lat="46.14883" lon="6.77856">
        <ele>1580.4</ele>
        <time>2018-03-16T12:01:00Z</time>
      </trkpt>
      <trkpt lat="46.14884" lon="6.7785">
        <ele>1579.6</ele>
        <time>2018-03-16T12:01:01Z</time>
      </trkpt>
      <trkpt lat="46.14885" lon="6.77844">
        <ele>1579</ele>
        <time>2018-03-16T12:01:02Z</time>
      </trkpt>
      <trkpt lat="46.14884" lon="6.7784">
        <ele>1578.6</ele>
        <time>2018-03-16T12:01:03Z</time>
      </trkpt>
      <trkpt lat="46.14881" lon="6.77836">
        <ele>1578.2</ele>
        <time>2018-03-16T12:01:04Z</time>
      </trkpt>
      <trkpt lat="46.14878" lon="6.77835">
        <ele>1577.9</ele>
        <time>2018-03-16T12:01:05Z</time>
      </trkpt>
      <trkpt lat="46.14874" lon="6.77833">
        <ele>1577.4</ele>
        <time>2018-03-16T12:01:06Z</time>
      </trkpt>
      <trkpt lat="46.1487" lon="6.77832">
        <ele>1576.9</ele>
        <time>2018-03-16T12:01:07Z</time>
      </trkpt>
      <trkpt lat="46.14852" lon="6.77817">
        <ele>1574.7</ele>
        <time>2018-03-16T12:02:00Z</time>
      </trkpt>
      <trkpt lat="46.1485" lon="6.77816">
        <ele>1574.5</ele>
        <time>2018-03-16T12:02:01Z</time>
      </trkpt>
      <trkpt lat="46.14844" lon="6.77813">
        <ele>1574.1</ele>
        <time>2018-03-16T12:02:02Z</time>
      </trkpt>
      <trkpt lat="46.14838" lon="6.77809">
        <ele>1573.6</ele>
        <time>2018-03-16T12:02:03Z</time>
      </trkpt>
      <trkpt lat="46.14834" lon="6.77804">
        <ele>1573.2</ele>
        <time>2018-03-16T12:02:04Z</time>
      </trkpt>
      <trkpt lat="46.14831" lon="6.778">
        <ele>1573</ele>
        <time>2018-03-16T12:02:05Z</time>
      </trkpt>
      <trkpt lat="46.14828" lon="6.77794">
        <ele>1572.7</ele>
        <time>2018-03-16T12:02:06Z</time>
      </trkpt>
      <trkpt lat="46.14825" lon="6.77787">
        <ele>1572.1</ele>
        <time>2018-03-16T12:02:07Z</time>
      </trkpt>
      <trkpt lat="46.14823" lon="6.77782">
        <ele>1571.4</ele>
        <time>2018-03-16T12:02:08Z</time>
      </trkpt>
      <trkpt lat="46.1482" lon="6.77773">
        <ele>1569.9</ele>
        <time>2018-03-16T12:02:09Z</time>
      </trkpt>
      <trkpt lat="46.14818" lon="6.77766">
        <ele>1568.8</ele>
        <time>2018-03-16T12:02:10Z</time>
      </trkpt>
      <trkpt lat="46.14816" lon="6.77759">
        <ele>1567.5</ele>
        <time>2018-03-16T12:02:11Z</time>
      </trkpt>
      <trkpt lat="46.14815" lon="6.77753">
        <ele>1566.5</ele>
        <time>2018-03-16T12:02:12Z</time>
      </trkpt>
      <trkpt lat="46.14814" lon="6.77745">
        <ele>1565</ele>
        <time>2018-03-16T12:02:13Z</time>
      </trkpt>
      <trkpt lat="46.14812" lon="6.77739">
        <ele>1563.4</ele>
        <time>2018-03-16T12:02:14Z</time>
      </trkpt>
      <trkpt lat="46.14811" lon="6.77733">
        <ele>1562.1</ele>
        <time>2018-03-16T12:02:15Z</time>
      </trkpt>
      <trkpt lat="46.1481" lon="6.77727">
        <ele>1560.8</ele>
        <time>2018-03-16T12:02:16Z</time>
      </trkpt>
      <trkpt lat="46.14809" lon="6.77719">
        <ele>1559.3</ele>
        <time>2018-03-16T12:02:17Z</time>
      </trkpt>
      <trkpt lat="46.14808" lon="6.7771">
        <ele>1558</ele>
        <time>2018-03-16T12:02:18Z</time>
      </trkpt>
      <trkpt lat="46.14807" lon="6.77702">
        <ele>1556.6</ele>
        <time>2018-03-16T12:02:19Z</time>
      </trkpt>
      <trkpt lat="46.14806" lon="6.77694">
        <ele>1555.9</ele>
        <time>2018-03-16T12:02:20Z</time>
      </trkpt>
      <trkpt lat="46.14805" lon="6.77683">
        <ele>1554.7</ele>
        <time>2018-03-16T12:02:21Z</time>
      </trkpt>
      <trkpt lat="46.14804" lon="6.7767">
        <ele>1551.8</ele>
        <time>2018-03-16T12:02:22Z</time>
      </trkpt>
      <trkpt lat="46.14803" lon="6.77656">
        <ele>1548.8</ele>
        <time>2018-03-16T12:02:23Z</time>
      </trkpt>
      <trkpt lat="46.14802" lon="6.77644">
        <ele>1546.5</ele>
        <time>2018-03-16T12:02:24Z</time>
      </trkpt>
      <trkpt lat="46.14805" lon="6.77633">
        <ele>1544</ele>
        <time>2018-03-16T12:02:25Z</time>
      </trkpt>
      <trkpt lat="46.14808" lon="6.77622">
        <ele>1541.7</ele>
        <time>2018-03-16T12:02:26Z</time>
      </trkpt>
      <trkpt lat="46.14809" lon="6.77614">
        <ele>1539.6</ele>
        <time>2018-03-16T12:02:27Z</time>
      </trkpt>
      <trkpt lat="46.1481" lon="6.77604">
        <ele>1539</ele>
        <time>2018-03-16T12:02:28Z</time>
      </trkpt>
      <trkpt lat="46.14813" lon="6.77594">
        <ele>1538.6</ele>
        <time>2018-03-16T12:02:29Z</time>
      </trkpt>
      <trkpt lat="46.14817" lon="6.77583">
        <ele>1538</ele>
        <time>2018-03-16T12:02:30Z</time>
      </trkpt>
      <trkpt lat="46.1482" lon="6.77574">
        <ele>1537.3</ele>
        <time>2018-03-16T12:02:31Z</time>
      </trkpt>
      <trkpt lat="46.14823" lon="6.77564">
        <ele>1536.3</ele>
        <time>2018-03-16T12:02:32Z</time>
      </trkpt>
      <trkpt lat="46.14827" lon="6.77553">
        <ele>1535.8</ele>
        <time>2018-03-16T12:02:33Z</time>
      </trkpt>
      <trkpt lat="46.14829" lon="6.77541">
        <ele>1535.5</ele>
        <time>2018-03-16T12:02:34Z</time>
      </trkpt>
      <trkpt lat="46.1483" lon="6.77533">
        <ele>1534.6</ele>
        <time>2018-03-16T12:02:35Z</time>
      </trkpt>
      <trkpt lat="46.14832" lon="6.77523">
        <ele>1533.4</ele>
        <time>2018-03-16T12:02:36Z</time>
      </trkpt>
      <trkpt lat="46.14834" lon="6.77514">
        <ele>1532.9</ele>
        <time>2018-03-16T12:02:37Z</time>
      </trkpt>
      <trkpt lat="46.14836" lon="6.77507">
        <ele>1532.6</ele>
        <time>2018-03-16T12:02:38Z</time>
      </trkpt>
      <trkpt lat="46.14839" lon="6.77501">
        <ele>1532.6</ele>
        <time>2018-03-16T12:02:39Z</time>
      </trkpt>
      <trkpt lat="46.14843" lon="6.77494">
        <ele>1532.4</ele>
        <time>2018-03-16T12:02:40Z</time>
      </trkpt>
      <trkpt lat="46.14846" lon="6.77487">
        <ele>1532.1</ele>
        <time>2018-03-16T12:02:41Z</time>
      </trkpt>
      <trkpt lat="46.14849" lon="6.77478">
        <ele>1532</ele>
        <time>2018-03-16T12:02:42Z</time>
      </trkpt>
      <trkpt lat="46.14851" lon="6.77467">
        <ele>1531.4</ele>
        <time>2018-03-16T12:02:43Z</time>
      </trkpt>
      <trkpt lat="46.14854" lon="6.77456">
        <ele>1530.3</ele>
        <time>2018-03-16T12:02:44Z</time>
      </trkpt>
      <trkpt lat="46.14859" lon="6.77448">
        <ele>1529.6</ele>
        <time>2018-03-16T12:02:45Z</time>
      </trkpt>
      <trkpt lat="46.14863" lon="6.77442">
        <ele>1529</ele>
        <time>2018-03-16T12:02:46Z</time>
      </trkpt>
      <trkpt lat="46.14866" lon="6.77438">
        <ele>1528.6</ele>
        <time>2018-03-16T12:02:47Z</time>
      </trkpt>
      <trkpt lat="46.14869" lon="6.77436">
        <ele>1528.3</ele>
        <time>2018-03-16T12:02:48Z</time>
      </trkpt>
      <trkpt lat="46.14871" lon="6.77432">
        <ele>1528</ele>
        <time>2018-03-16T12:02:49Z</time>
      </trkpt>
      <trkpt lat="46.14874" lon="6.77426">
        <ele>1527.8</ele>
        <time>2018-03-16T12:02:51Z</time>
      </trkpt>
      <trkpt lat="46.14875" lon="6.77422">
        <ele>1527.9</ele>
        <time>2018-03-16T12:02:53Z</time>
      </trkpt>
      <trkpt lat="46.14876" lon="6.77418">
        <ele>1528</ele>
        <time>2018-03-16T12:02:55Z</time>
      </trkpt>
      <trkpt lat="46.14876" lon="6.77414">
        <ele>1528.1</ele>
        <time>2018-03-16T12:02:58Z</time>
      </trkpt>
      <trkpt lat="46.14878" lon="6.77402">
        <ele>1528.8</ele>
        <time>2018-03-16T12:03:10Z</time>
      </trkpt>
      <trkpt lat="46.14889" lon="6.77379">
        <ele>1527.6</ele>
        <time>2018-03-16T12:05:12Z</time>
      </trkpt>
      <trkpt lat="46.1489" lon="6.77372">
        <ele>1527.3</ele>
        <time>2018-03-16T12:05:14Z</time>
      </trkpt>
      <trkpt lat="46.1489" lon="6.77367">
        <ele>1526.5</ele>
        <time>2018-03-16T12:05:15Z</time>
      </trkpt>
      <trkpt lat="46.1489" lon="6.77361">
        <ele>1525.9</ele>
        <time>2018-03-16T12:05:17Z</time>
      </trkpt>
      <trkpt lat="46.14889" lon="6.77353">
        <ele>1524.6</ele>
        <time>2018-03-16T12:05:19Z</time>
      </trkpt>
      <trkpt lat="46.14886" lon="6.77352">
        <ele>1524.6</ele>
        <time>2018-03-16T12:05:20Z</time>
      </trkpt>
      <trkpt lat="46.14884" lon="6.7735">
        <ele>1523.7</ele>
        <time>2018-03-16T12:05:21Z</time>
      </trkpt>
      <trkpt lat="46.14881" lon="6.77347">
        <ele>1523.5</ele>
        <time>2018-03-16T12:05:23Z</time>
      </trkpt>
      <trkpt lat="46.14878" lon="6.7734">
        <ele>1521.9</ele>
        <time>2018-03-16T12:05:28Z</time>
      </trkpt>
      <trkpt lat="46.14875" lon="6.77338">
        <ele>1521.6</ele>
        <time>2018-03-16T12:05:30Z</time>
      </trkpt>
      <trkpt lat="46.1487" lon="6.77336">
        <ele>1520.3</ele>
        <time>2018-03-16T12:05:32Z</time>
      </trkpt>
      <trkpt lat="46.14868" lon="6.77331">
        <ele>1519.2</ele>
        <time>2018-03-16T12:05:34Z</time>
      </trkpt>
      <trkpt lat="46.14866" lon="6.77328">
        <ele>1518.4</ele>
        <time>2018-03-16T12:05:35Z</time>
      </trkpt>
      <trkpt lat="46.14864" lon="6.77322">
        <ele>1517.3</ele>
        <time>2018-03-16T12:05:37Z</time>
      </trkpt>
      <trkpt lat="46.14864" lon="6.77317">
        <ele>1516.4</ele>
        <time>2018-03-16T12:05:38Z</time>
      </trkpt>
      <trkpt lat="46.14863" lon="6.7731">
        <ele>1514.6</ele>
        <time>2018-03-16T12:05:39Z</time>
      </trkpt>
      <trkpt lat="46.14862" lon="6.77305">
        <ele>1513.3</ele>
        <time>2018-03-16T12:05:40Z</time>
      </trkpt>
      <trkpt lat="46.14861" lon="6.77301">
        <ele>1512.4</ele>
        <time>2018-03-16T12:05:41Z</time>
      </trkpt>
      <trkpt lat="46.1486" lon="6.77295">
        <ele>1511.5</ele>
        <time>2018-03-16T12:05:42Z</time>
      </trkpt>
      <trkpt lat="46.14859" lon="6.77289">
        <ele>1509.4</ele>
        <time>2018-03-16T12:05:43Z</time>
      </trkpt>
      <trkpt lat="46.14858" lon="6.77281">
        <ele>1507.7</ele>
        <time>2018-03-16T12:05:44Z</time>
      </trkpt>
      <trkpt lat="46.14859" lon="6.77277">
        <ele>1506.8</ele>
        <time>2018-03-16T12:05:45Z</time>
      </trkpt>
      <trkpt lat="46.1486" lon="6.77272">
        <ele>1506.2</ele>
        <time>2018-03-16T12:05:46Z</time>
      </trkpt>
      <trkpt lat="46.14861" lon="6.77267">
        <ele>1505.4</ele>
        <time>2018-03-16T12:05:47Z</time>
      </trkpt>
      <trkpt lat="46.14863" lon="6.7726">
        <ele>1504.8</ele>
        <time>2018-03-16T12:05:48Z</time>
      </trkpt>
      <trkpt lat="46.14864" lon="6.77256">
        <ele>1503.2</ele>
        <time>2018-03-16T12:05:49Z</time>
      </trkpt>
      <trkpt lat="46.14865" lon="6.77251">
        <ele>1502.7</ele>
        <time>2018-03-16T12:05:50Z</time>
      </trkpt>
      <trkpt lat="46.14867" lon="6.77246">
        <ele>1502</ele>
        <time>2018-03-16T12:05:51Z</time>
      </trkpt>
      <trkpt lat="46.14868" lon="6.77241">
        <ele>1501.4</ele>
        <time>2018-03-16T12:05:52Z</time>
      </trkpt>
      <trkpt lat="46.14869" lon="6.77237">
        <ele>1500.9</ele>
        <time>2018-03-16T12:05:53Z</time>
      </trkpt>
      <trkpt lat="46.1487" lon="6.77232">
        <ele>1500.3</ele>
        <time>2018-03-16T12:05:54Z</time>
      </trkpt>
      <trkpt lat="46.1487" lon="6.77228">
        <ele>1499.6</ele>
        <time>2018-03-16T12:05:55Z</time>
      </trkpt>
      <trkpt lat="46.14871" lon="6.77224">
        <ele>1498.9</ele>
        <time>2018-03-16T12:05:56Z</time>
      </trkpt>
      <trkpt lat="46.14872" lon="6.7722">
        <ele>1498.3</ele>
        <time>2018-03-16T12:05:57Z</time>
      </trkpt>
      <trkpt lat="46.14872" lon="6.77215">
        <ele>1497.5</ele>
        <time>2018-03-16T12:05:58Z</time>
      </trkpt>
      <trkpt lat="46.14873" lon="6.77211">
        <ele>1496.9</ele>
        <time>2018-03-16T12:05:59Z</time>
      </trkpt>
      <trkpt lat="46.14873" lon="6.77205">
        <ele>1496.2</ele>
        <time>2018-03-16T12:06:00Z</time>
      </trkpt>
      <trkpt lat="46.14874" lon="6.772">
        <ele>1495.3</ele>
        <time>2018-03-16T12:06:01Z</time>
      </trkpt>
      <trkpt lat="46.14875" lon="6.77194">
        <ele>1494.7</ele>
        <time>2018-03-16T12:06:02Z</time>
      </trkpt>
      <trkpt lat="46.14876" lon="6.77188">
        <ele>1494.1</ele>
        <time>2018-03-16T12:06:03Z</time>
      </trkpt>
      <trkpt lat="46.14877" lon="6.77181">
        <ele>1493</ele>
        <time>2018-03-16T12:06:04Z</time>
      </trkpt>
      <trkpt lat="46.14878" lon="6.77175">
        <ele>1492.3</ele>
        <time>2018-03-16T12:06:05Z</time>
      </trkpt>
      <trkpt lat="46.14878" lon="6.7717">
        <ele>1491.5</ele>
        <time>2018-03-16T12:06:06Z</time>
      </trkpt>
      <trkpt lat="46.14879" lon="6.77165">
        <ele>1490</ele>
        <time>2018-03-16T12:06:07Z</time>
      </trkpt>
      <trkpt lat="46.1488" lon="6.7716">
        <ele>1489.4</ele>
        <time>2018-03-16T12:06:08Z</time>
      </trkpt>
      <trkpt lat="46.1488" lon="6.77156">
        <ele>1488.7</ele>
        <time>2018-03-16T12:06:09Z</time>
      </trkpt>
      <trkpt lat="46.14881" lon="6.77151">
        <ele>1488.2</ele>
        <time>2018-03-16T12:06:11Z</time>
      </trkpt>
      <trkpt lat="46.14881" lon="6.77143">
        <ele>1487</ele>
        <time>2018-03-16T12:06:13Z</time>
      </trkpt>
      <trkpt lat="46.14882" lon="6.77136">
        <ele>1486.3</ele>
        <time>2018-03-16T12:06:15Z</time>
      </trkpt>
      <trkpt lat="46.14884" lon="6.77129">
        <ele>1485</ele>
        <time>2018-03-16T12:06:17Z</time>
      </trkpt>
      <trkpt lat="46.14884" lon="6.77125">
        <ele>1484.2</ele>
        <time>2018-03-16T12:06:18Z</time>
      </trkpt>
      <trkpt lat="46.14878" lon="6.77119">
        <ele>1483.2</ele>
        <time>2018-03-16T12:06:20Z</time>
      </trkpt>
      <trkpt lat="46.14877" lon="6.77115">
        <ele>1482.1</ele>
        <time>2018-03-16T12:06:21Z</time>
      </trkpt>
      <trkpt lat="46.14876" lon="6.77109">
        <ele>1480.3</ele>
        <time>2018-03-16T12:06:22Z</time>
      </trkpt>
      <trkpt lat="46.14877" lon="6.77105">
        <ele>1479.4</ele>
        <time>2018-03-16T12:06:23Z</time>
      </trkpt>
      <trkpt lat="46.14881" lon="6.77094">
        <ele>1477.8</ele>
        <time>2018-03-16T12:07:19Z</time>
      </trkpt>
      <trkpt lat="46.14882" lon="6.77086">
        <ele>1475.6</ele>
        <time>2018-03-16T12:07:22Z</time>
      </trkpt>
      <trkpt lat="46.14881" lon="6.77076">
        <ele>1473.3</ele>
        <time>2018-03-16T12:07:24Z</time>
      </trkpt>
      <trkpt lat="46.1488" lon="6.77069">
        <ele>1471</ele>
        <time>2018-03-16T12:07:25Z</time>
      </trkpt>
      <trkpt lat="46.14879" lon="6.77064">
        <ele>1469.6</ele>
        <time>2018-03-16T12:07:26Z</time>
      </trkpt>
      <trkpt lat="46.1488" lon="6.77057">
        <ele>1467.5</ele>
        <time>2018-03-16T12:07:28Z</time>
      </trkpt>
      <trkpt lat="46.14885" lon="6.77052">
        <ele>1466.4</ele>
        <time>2018-03-16T12:07:30Z</time>
      </trkpt>
      <trkpt lat="46.14887" lon="6.77046">
        <ele>1465.2</ele>
        <time>2018-03-16T12:07:31Z</time>
      </trkpt>
      <trkpt lat="46.14886" lon="6.77037">
        <ele>1462.3</ele>
        <time>2018-03-16T12:07:32Z</time>
      </trkpt>
      <trkpt lat="46.14883" lon="6.7703">
        <ele>1459</ele>
        <time>2018-03-16T12:07:33Z</time>
      </trkpt>
      <trkpt lat="46.14882" lon="6.77022">
        <ele>1455.8</ele>
        <time>2018-03-16T12:07:34Z</time>
      </trkpt>
      <trkpt lat="46.14879" lon="6.77018">
        <ele>1454.3</ele>
        <time>2018-03-16T12:07:35Z</time>
      </trkpt>
      <trkpt lat="46.14877" lon="6.77015">
        <ele>1452.7</ele>
        <time>2018-03-16T12:07:46Z</time>
      </trkpt>
      <trkpt lat="46.14875" lon="6.77001">
        <ele>1449</ele>
        <time>2018-03-16T12:07:51Z</time>
      </trkpt>
      <trkpt lat="46.14872" lon="6.76999">
        <ele>1448.8</ele>
        <time>2018-03-16T12:07:56Z</time>
      </trkpt>
      <trkpt lat="46.14876" lon="6.76993">
        <ele>1446.4</ele>
        <time>2018-03-16T12:08:00Z</time>
      </trkpt>
      <trkpt lat="46.14877" lon="6.76989">
        <ele>1445.2</ele>
        <time>2018-03-16T12:08:03Z</time>
      </trkpt>
      <trkpt lat="46.14878" lon="6.76985">
        <ele>1444</ele>
        <time>2018-03-16T12:08:05Z</time>
      </trkpt>
      <trkpt lat="46.14881" lon="6.76982">
        <ele>1443.9</ele>
        <time>2018-03-16T12:08:08Z</time>
      </trkpt>
      <trkpt lat="46.14876" lon="6.7697">
        <ele>1440.5</ele>
        <time>2018-03-16T12:08:44Z</time>
      </trkpt>
      <trkpt lat="46.14879" lon="6.76966">
        <ele>1439.2</ele>
        <time>2018-03-16T12:08:46Z</time>
      </trkpt>
      <trkpt lat="46.14882" lon="6.76966">
        <ele>1439.1</ele>
        <time>2018-03-16T12:08:47Z</time>
      </trkpt>
      <trkpt lat="46.14885" lon="6.76963">
        <ele>1437.8</ele>
        <time>2018-03-16T12:08:50Z</time>
      </trkpt>
      <trkpt lat="46.14888" lon="6.76958">
        <ele>1436.5</ele>
        <time>2018-03-16T12:08:51Z</time>
      </trkpt>
      <trkpt lat="46.1489" lon="6.76954">
        <ele>1435.1</ele>
        <time>2018-03-16T12:08:52Z</time>
      </trkpt>
      <trkpt lat="46.14893" lon="6.76951">
        <ele>1433.8</ele>
        <time>2018-03-16T12:08:53Z</time>
      </trkpt>
      <trkpt lat="46.14896" lon="6.76946">
        <ele>1432.4</ele>
        <time>2018-03-16T12:08:54Z</time>
      </trkpt>
      <trkpt lat="46.14898" lon="6.76941">
        <ele>1431.2</ele>
        <time>2018-03-16T12:08:55Z</time>
      </trkpt>
      <trkpt lat="46.14901" lon="6.76942">
        <ele>1432.4</ele>
        <time>2018-03-16T12:09:10Z</time>
      </trkpt>
      <trkpt lat="46.14907" lon="6.76938">
        <ele>1430</ele>
        <time>2018-03-16T12:10:58Z</time>
      </trkpt>
      <trkpt lat="46.14908" lon="6.76933">
        <ele>1428.9</ele>
        <time>2018-03-16T12:10:59Z</time>
      </trkpt>
      <trkpt lat="46.14909" lon="6.76929">
        <ele>1427.7</ele>
        <time>2018-03-16T12:11:00Z</time>
      </trkpt>
      <trkpt lat="46.14909" lon="6.76922">
        <ele>1426.6</ele>
        <time>2018-03-16T12:11:02Z</time>
      </trkpt>
      <trkpt lat="46.14909" lon="6.76917">
        <ele>1424.4</ele>
        <time>2018-03-16T12:11:04Z</time>
      </trkpt>
      <trkpt lat="46.14909" lon="6.76912">
        <ele>1424.3</ele>
        <time>2018-03-16T12:11:06Z</time>
      </trkpt>
      <trkpt lat="46.14908" lon="6.76909">
        <ele>1423.2</ele>
        <time>2018-03-16T12:11:10Z</time>
      </trkpt>
      <trkpt lat="46.14907" lon="6.76905">
        <ele>1422.1</ele>
        <time>2018-03-16T12:11:12Z</time>
      </trkpt>
      <trkpt lat="46.14907" lon="6.769">
        <ele>1421.2</ele>
        <time>2018-03-16T12:11:15Z</time>
      </trkpt>
      <trkpt lat="46.14904" lon="6.76896">
        <ele>1420.2</ele>
        <time>2018-03-16T12:11:20Z</time>
      </trkpt>
      <trkpt lat="46.14904" lon="6.76892">
        <ele>1419.4</ele>
        <time>2018-03-16T12:11:23Z</time>
      </trkpt>
      <trkpt lat="46.14904" lon="6.76887">
        <ele>1418.7</ele>
        <time>2018-03-16T12:11:27Z</time>
      </trkpt>
      <trkpt lat="46.14903" lon="6.76882">
        <ele>1418.1</ele>
        <time>2018-03-16T12:11:29Z</time>
      </trkpt>
      <trkpt lat="46.14904" lon="6.76878">
        <ele>1417.2</ele>
        <time>2018-03-16T12:11:33Z</time>
      </trkpt>
      <trkpt lat="46.14906" lon="6.76875">
        <ele>1417</ele>
        <time>2018-03-16T12:11:36Z</time>
      </trkpt>
      <trkpt lat="46.14908" lon="6.76871">
        <ele>1416.5</ele>
        <time>2018-03-16T12:11:39Z</time>
      </trkpt>
      <trkpt lat="46.14911" lon="6.76867">
        <ele>1416</ele>
        <time>2018-03-16T12:11:42Z</time>
      </trkpt>
      <trkpt lat="46.14914" lon="6.76863">
        <ele>1415.5</ele>
        <time>2018-03-16T12:11:44Z</time>
      </trkpt>
      <trkpt lat="46.14917" lon="6.76859">
        <ele>1415</ele>
        <time>2018-03-16T12:11:45Z</time>
      </trkpt>
      <trkpt lat="46.1492" lon="6.76854">
        <ele>1414.6</ele>
        <time>2018-03-16T12:11:46Z</time>
      </trkpt>
      <trkpt lat="46.14923" lon="6.76852">
        <ele>1414.1</ele>
        <time>2018-03-16T12:11:47Z</time>
      </trkpt>
      <trkpt lat="46.14926" lon="6.76851">
        <ele>1414.2</ele>
        <time>2018-03-16T12:11:55Z</time>
      </trkpt>
      <trkpt lat="46.1493" lon="6.76849">
        <ele>1414.4</ele>
        <time>2018-03-16T12:11:57Z</time>
      </trkpt>
      <trkpt lat="46.14933" lon="6.76845">
        <ele>1414</ele>
        <time>2018-03-16T12:12:03Z</time>
      </trkpt>
      <trkpt lat="46.14933" lon="6.7684">
        <ele>1413.4</ele>
        <time>2018-03-16T12:12:06Z</time>
      </trkpt>
      <trkpt lat="46.14928" lon="6.76835">
        <ele>1412.3</ele>
        <time>2018-03-16T12:12:08Z</time>
      </trkpt>
      <trkpt lat="46.14927" lon="6.76828">
        <ele>1411.1</ele>
        <time>2018-03-16T12:12:10Z</time>
      </trkpt>
      <trkpt lat="46.14928" lon="6.76823">
        <ele>1410.6</ele>
        <time>2018-03-16T12:12:12Z</time>
      </trkpt>
      <trkpt lat="46.14926" lon="6.76821">
        <ele>1409.7</ele>
        <time>2018-03-16T12:12:22Z</time>
      </trkpt>
      <trkpt lat="46.14923" lon="6.7682">
        <ele>1409.6</ele>
        <time>2018-03-16T12:12:27Z</time>
      </trkpt>
      <trkpt lat="46.14918" lon="6.76819">
        <ele>1409.4</ele>
        <time>2018-03-16T12:12:33Z</time>
      </trkpt>
      <trkpt lat="46.14915" lon="6.76818">
        <ele>1408.7</ele>
        <time>2018-03-16T12:12:35Z</time>
      </trkpt>
      <trkpt lat="46.14915" lon="6.76813">
        <ele>1408</ele>
        <time>2018-03-16T12:13:06Z</time>
      </trkpt>
      <trkpt lat="46.14915" lon="6.76806">
        <ele>1407.3</ele>
        <time>2018-03-16T12:13:09Z</time>
      </trkpt>
      <trkpt lat="46.14915" lon="6.76802">
        <ele>1406.7</ele>
        <time>2018-03-16T12:13:10Z</time>
      </trkpt>
      <trkpt lat="46.14914" lon="6.76798">
        <ele>1406.1</ele>
        <time>2018-03-16T12:13:11Z</time>
      </trkpt>
      <trkpt lat="46.14918" lon="6.7679">
        <ele>1405.3</ele>
        <time>2018-03-16T12:13:28Z</time>
      </trkpt>
      <trkpt lat="46.14919" lon="6.76787">
        <ele>1405.2</ele>
        <time>2018-03-16T12:13:30Z</time>
      </trkpt>
      <trkpt lat="46.14921" lon="6.76782">
        <ele>1404.7</ele>
        <time>2018-03-16T12:13:33Z</time>
      </trkpt>
      <trkpt lat="46.14922" lon="6.76778">
        <ele>1404.6</ele>
        <time>2018-03-16T12:13:37Z</time>
      </trkpt>
      <trkpt lat="46.14923" lon="6.76773">
        <ele>1404.1</ele>
        <time>2018-03-16T12:13:39Z</time>
      </trkpt>
      <trkpt lat="46.14925" lon="6.7677">
        <ele>1403.8</ele>
        <time>2018-03-16T12:13:41Z</time>
      </trkpt>
      <trkpt lat="46.14927" lon="6.76765">
        <ele>1403.2</ele>
        <time>2018-03-16T12:13:44Z</time>
      </trkpt>
      <trkpt lat="46.14926" lon="6.76762">
        <ele>1402.5</ele>
        <time>2018-03-16T12:13:47Z</time>
      </trkpt>
      <trkpt lat="46.14919" lon="6.76754">
        <ele>1400.8</ele>
        <time>2018-03-16T12:14:13Z</time>
      </trkpt>
      <trkpt lat="46.14916" lon="6.76754">
        <ele>1400.1</ele>
        <time>2018-03-16T12:14:18Z</time>
      </trkpt>
      <trkpt lat="46.14913" lon="6.76753">
        <ele>1399.5</ele>
        <time>2018-03-16T12:14:24Z</time>
      </trkpt>
      <trkpt lat="46.14909" lon="6.76752">
        <ele>1399.1</ele>
        <time>2018-03-16T12:14:27Z</time>
      </trkpt>
      <trkpt lat="46.14905" lon="6.76753">
        <ele>1399</ele>
        <time>2018-03-16T12:14:34Z</time>
      </trkpt>
      <trkpt lat="46.14902" lon="6.76752">
        <ele>1398.9</ele>
        <time>2018-03-16T12:14:37Z</time>
      </trkpt>
      <trkpt lat="46.14899" lon="6.76751">
        <ele>1398.9</ele>
        <time>2018-03-16T12:14:42Z</time>
      </trkpt>
      <trkpt lat="46.14896" lon="6.76752">
        <ele>1399</ele>
        <time>2018-03-16T12:14:46Z</time>
      </trkpt>
      <trkpt lat="46.14893" lon="6.76749">
        <ele>1399.1</ele>
        <time>2018-03-16T12:14:51Z</time>
      </trkpt>
      <trkpt lat="46.14891" lon="6.76747">
        <ele>1398.8</ele>
        <time>2018-03-16T12:15:00Z</time>
      </trkpt>
      <trkpt lat="46.14889" lon="6.76744">
        <ele>1398.3</ele>
        <time>2018-03-16T12:15:10Z</time>
      </trkpt>
      <trkpt lat="46.14886" lon="6.76743">
        <ele>1398.4</ele>
        <time>2018-03-16T12:15:15Z</time>
      </trkpt>
      <trkpt lat="46.14883" lon="6.76745">
        <ele>1399</ele>
        <time>2018-03-16T12:15:24Z</time>
      </trkpt>
      <trkpt lat="46.1488" lon="6.76742">
        <ele>1398.4</ele>
        <time>2018-03-16T12:15:54Z</time>
      </trkpt>
      <trkpt lat="46.14877" lon="6.76742">
        <ele>1398.5</ele>
        <time>2018-03-16T12:15:59Z</time>
      </trkpt>
      <trkpt lat="46.14875" lon="6.76739">
        <ele>1397.3</ele>
        <time>2018-03-16T12:16:04Z</time>
      </trkpt>
      <trkpt lat="46.14874" lon="6.76734">
        <ele>1395.7</ele>
        <time>2018-03-16T12:16:10Z</time>
      </trkpt>
      <trkpt lat="46.14872" lon="6.76731">
        <ele>1393.5</ele>
        <time>2018-03-16T12:16:14Z</time>
      </trkpt>
      <trkpt lat="46.1487" lon="6.76728">
        <ele>1391.5</ele>
        <time>2018-03-16T12:16:17Z</time>
      </trkpt>
      <trkpt lat="46.14868" lon="6.76724">
        <ele>1391.5</ele>
        <time>2018-03-16T12:16:18Z</time>
      </trkpt>
      <trkpt lat="46.14866" lon="6.76722">
        <ele>1391.6</ele>
        <time>2018-03-16T12:16:21Z</time>
      </trkpt>
      <trkpt lat="46.14863" lon="6.76721">
        <ele>1391.6</ele>
        <time>2018-03-16T12:16:25Z</time>
      </trkpt>
      <trkpt lat="46.1486" lon="6.76718">
        <ele>1391.6</ele>
        <time>2018-03-16T12:16:28Z</time>
      </trkpt>
      <trkpt lat="46.14861" lon="6.76712">
        <ele>1391.6</ele>
        <time>2018-03-16T12:16:35Z</time>
      </trkpt>
      <trkpt lat="46.14862" lon="6.76707">
        <ele>1391.6</ele>
        <time>2018-03-16T12:16:38Z</time>
      </trkpt>
      <trkpt lat="46.14862" lon="6.76701">
        <ele>1391.7</ele>
        <time>2018-03-16T12:16:42Z</time>
      </trkpt>
      <trkpt lat="46.14861" lon="6.76697">
        <ele>1391.7</ele>
        <time>2018-03-16T12:16:46Z</time>
      </trkpt>
      <trkpt lat="46.1486" lon="6.76692">
        <ele>1391.7</ele>
        <time>2018-03-16T12:16:49Z</time>
      </trkpt>
      <trkpt lat="46.14859" lon="6.76688">
        <ele>1391.7</ele>
        <time>2018-03-16T12:16:51Z</time>
      </trkpt>
      <trkpt lat="46.14857" lon="6.76684">
        <ele>1391.8</ele>
        <time>2018-03-16T12:16:55Z</time>
      </trkpt>
      <trkpt lat="46.14854" lon="6.76679">
        <ele>1391.8</ele>
        <time>2018-03-16T12:16:58Z</time>
      </trkpt>
      <trkpt lat="46.14853" lon="6.76675">
        <ele>1391.8</ele>
        <time>2018-03-16T12:17:01Z</time>
      </trkpt>
      <trkpt lat="46.14852" lon="6.7667">
        <ele>1391.8</ele>
        <time>2018-03-16T12:17:05Z</time>
      </trkpt>
      <trkpt lat="46.14852" lon="6.76666">
        <ele>1391.8</ele>
        <time>2018-03-16T12:17:09Z</time>
      </trkpt>
      <trkpt lat="46.14852" lon="6.76659">
        <ele>1391.8</ele>
        <time>2018-03-16T12:17:12Z</time>
      </trkpt>
      <trkpt lat="46.14851" lon="6.76655">
        <ele>1391.9</ele>
        <time>2018-03-16T12:17:15Z</time>
      </trkpt>
      <trkpt lat="46.14851" lon="6.7665">
        <ele>1391.9</ele>
        <time>2018-03-16T12:17:17Z</time>
      </trkpt>
      <trkpt lat="46.14851" lon="6.76646">
        <ele>1391.9</ele>
        <time>2018-03-16T12:17:20Z</time>
      </trkpt>
      <trkpt lat="46.14849" lon="6.76642">
        <ele>1391.9</ele>
        <time>2018-03-16T12:17:24Z</time>
      </trkpt>
      <trkpt lat="46.14848" lon="6.76638">
        <ele>1391.9</ele>
        <time>2018-03-16T12:17:31Z</time>
      </trkpt>
      <trkpt lat="46.14849" lon="6.76635">
        <ele>1391.9</ele>
        <time>2018-03-16T12:17:35Z</time>
      </trkpt>
      <trkpt lat="46.14849" lon="6.7663">
        <ele>1392</ele>
        <time>2018-03-16T12:17:39Z</time>
      </trkpt>
      <trkpt lat="46.14848" lon="6.76626">
        <ele>1392</ele>
        <time>2018-03-16T12:17:42Z</time>
      </trkpt>
      <trkpt lat="46.14845" lon="6.76626">
        <ele>1392</ele>
        <time>2018-03-16T12:17:48Z</time>
      </trkpt>
      <trkpt lat="46.14843" lon="6.76624">
        <ele>1392</ele>
        <time>2018-03-16T12:17:52Z</time>
      </trkpt>
      <trkpt lat="46.14842" lon="6.76619">
        <ele>1392</ele>
        <time>2018-03-16T12:17:53Z</time>
      </trkpt>
      <trkpt lat="46.14841" lon="6.76611">
        <ele>1392</ele>
        <time>2018-03-16T12:17:54Z</time>
      </trkpt>
      <trkpt lat="46.14839" lon="6.76607">
        <ele>1385.6</ele>
        <time>2018-03-16T12:17:55Z</time>
      </trkpt>
      <trkpt lat="46.14836" lon="6.76603">
        <ele>1378.9</ele>
        <time>2018-03-16T12:17:56Z</time>
      </trkpt>
      <trkpt lat="46.14834" lon="6.76597">
        <ele>1378</ele>
        <time>2018-03-16T12:17:57Z</time>
      </trkpt>
      <trkpt lat="46.14831" lon="6.76591">
        <ele>1377.5</ele>
        <time>2018-03-16T12:17:58Z</time>
      </trkpt>
      <trkpt lat="46.1483" lon="6.76585">
        <ele>1377.1</ele>
        <time>2018-03-16T12:17:59Z</time>
      </trkpt>
      <trkpt lat="46.14829" lon="6.76581">
        <ele>1376.8</ele>
        <time>2018-03-16T12:18:00Z</time>
      </trkpt>
      <trkpt lat="46.14828" lon="6.76576">
        <ele>1376.4</ele>
        <time>2018-03-16T12:18:01Z</time>
      </trkpt>
      <trkpt lat="46.14826" lon="6.7657">
        <ele>1375.8</ele>
        <time>2018-03-16T12:18:02Z</time>
      </trkpt>
      <trkpt lat="46.14823" lon="6.76565">
        <ele>1375.1</ele>
        <time>2018-03-16T12:18:03Z</time>
      </trkpt>
      <trkpt lat="46.14821" lon="6.76562">
        <ele>1374.4</ele>
        <time>2018-03-16T12:18:04Z</time>
      </trkpt>
      <trkpt lat="46.14817" lon="6.76559">
        <ele>1374</ele>
        <time>2018-03-16T12:18:06Z</time>
      </trkpt>
      <trkpt lat="46.14814" lon="6.76552">
        <ele>1373.7</ele>
        <time>2018-03-16T12:18:50Z</time>
      </trkpt>
      <trkpt lat="46.1481" lon="6.76552">
        <ele>1373.5</ele>
        <time>2018-03-16T12:18:51Z</time>
      </trkpt>
      <trkpt lat="46.14807" lon="6.76552">
        <ele>1373.3</ele>
        <time>2018-03-16T12:18:52Z</time>
      </trkpt>
      <trkpt lat="46.14803" lon="6.76553">
        <ele>1372.7</ele>
        <time>2018-03-16T12:18:54Z</time>
      </trkpt>
      <trkpt lat="46.14799" lon="6.76554">
        <ele>1372.1</ele>
        <time>2018-03-16T12:18:56Z</time>
      </trkpt>
      <trkpt lat="46.14796" lon="6.76555">
        <ele>1371.7</ele>
        <time>2018-03-16T12:18:57Z</time>
      </trkpt>
      <trkpt lat="46.14792" lon="6.76556">
        <ele>1371.3</ele>
        <time>2018-03-16T12:18:58Z</time>
      </trkpt>
      <trkpt lat="46.14789" lon="6.76557">
        <ele>1370.9</ele>
        <time>2018-03-16T12:18:59Z</time>
      </trkpt>
      <trkpt lat="46.14784" lon="6.76562">
        <ele>1370.4</ele>
        <time>2018-03-16T12:19:00Z</time>
      </trkpt>
      <trkpt lat="46.14777" lon="6.76564">
        <ele>1369.1</ele>
        <time>2018-03-16T12:19:01Z</time>
      </trkpt>
      <trkpt lat="46.14773" lon="6.76567">
        <ele>1368.4</ele>
        <time>2018-03-16T12:19:02Z</time>
      </trkpt>
      <trkpt lat="46.14767" lon="6.76567">
        <ele>1367.8</ele>
        <time>2018-03-16T12:19:04Z</time>
      </trkpt>
      <trkpt lat="46.14761" lon="6.76567">
        <ele>1366.4</ele>
        <time>2018-03-16T12:19:05Z</time>
      </trkpt>
      <trkpt lat="46.14755" lon="6.76567">
        <ele>1365.7</ele>
        <time>2018-03-16T12:19:06Z</time>
      </trkpt>
      <trkpt lat="46.14748" lon="6.76567">
        <ele>1365</ele>
        <time>2018-03-16T12:19:07Z</time>
      </trkpt>
      <trkpt lat="46.14742" lon="6.76567">
        <ele>1364.1</ele>
        <time>2018-03-16T12:19:08Z</time>
      </trkpt>
      <trkpt lat="46.14737" lon="6.76567">
        <ele>1363.4</ele>
        <time>2018-03-16T12:19:09Z</time>
      </trkpt>
      <trkpt lat="46.14731" lon="6.76566">
        <ele>1362.9</ele>
        <time>2018-03-16T12:19:10Z</time>
      </trkpt>
      <trkpt lat="46.14726" lon="6.76565">
        <ele>1362.3</ele>
        <time>2018-03-16T12:19:11Z</time>
      </trkpt>
      <trkpt lat="46.14719" lon="6.76565">
        <ele>1360.4</ele>
        <time>2018-03-16T12:19:12Z</time>
      </trkpt>
      <trkpt lat="46.14713" lon="6.76565">
        <ele>1359</ele>
        <time>2018-03-16T12:19:13Z</time>
      </trkpt>
      <trkpt lat="46.14707" lon="6.76568">
        <ele>1357.7</ele>
        <time>2018-03-16T12:19:14Z</time>
      </trkpt>
      <trkpt lat="46.14702" lon="6.76571">
        <ele>1356.4</ele>
        <time>2018-03-16T12:19:15Z</time>
      </trkpt>
      <trkpt lat="46.14696" lon="6.76576">
        <ele>1355.3</ele>
        <time>2018-03-16T12:19:16Z</time>
      </trkpt>
      <trkpt lat="46.1469" lon="6.76581">
        <ele>1354.3</ele>
        <time>2018-03-16T12:19:17Z</time>
      </trkpt>
      <trkpt lat="46.14683" lon="6.76588">
        <ele>1352.9</ele>
        <time>2018-03-16T12:19:18Z</time>
      </trkpt>
      <trkpt lat="46.14678" lon="6.76593">
        <ele>1352.4</ele>
        <time>2018-03-16T12:19:19Z</time>
      </trkpt>
      <trkpt lat="46.14673" lon="6.76601">
        <ele>1351.7</ele>
        <time>2018-03-16T12:19:20Z</time>
      </trkpt>
      <trkpt lat="46.14667" lon="6.76608">
        <ele>1350.2</ele>
        <time>2018-03-16T12:19:21Z</time>
      </trkpt>
      <trkpt lat="46.14662" lon="6.76613">
        <ele>1349.6</ele>
        <time>2018-03-16T12:19:22Z</time>
      </trkpt>
      <trkpt lat="46.14657" lon="6.76621">
        <ele>1348.2</ele>
        <time>2018-03-16T12:19:23Z</time>
      </trkpt>
      <trkpt lat="46.14652" lon="6.76631">
        <ele>1347.3</ele>
        <time>2018-03-16T12:19:24Z</time>
      </trkpt>
      <trkpt lat="46.14646" lon="6.76639">
        <ele>1346.4</ele>
        <time>2018-03-16T12:19:25Z</time>
      </trkpt>
      <trkpt lat="46.14641" lon="6.76645">
        <ele>1345.5</ele>
        <time>2018-03-16T12:19:26Z</time>
      </trkpt>
      <trkpt lat="46.14635" lon="6.7665">
        <ele>1344.5</ele>
        <time>2018-03-16T12:19:27Z</time>
      </trkpt>
      <trkpt lat="46.14633" lon="6.76651">
        <ele>1344.2</ele>
        <time>2018-03-16T12:19:28Z</time>
      </trkpt>
      <trkpt lat="46.14629" lon="6.7665">
        <ele>1343.7</ele>
        <time>2018-03-16T12:19:29Z</time>
      </trkpt>
      <trkpt lat="46.14623" lon="6.76651">
        <ele>1342.7</ele>
        <time>2018-03-16T12:19:30Z</time>
      </trkpt>
      <trkpt lat="46.14616" lon="6.76652">
        <ele>1342</ele>
        <time>2018-03-16T12:19:31Z</time>
      </trkpt>
      <trkpt lat="46.14609" lon="6.76656">
        <ele>1341.4</ele>
        <time>2018-03-16T12:19:32Z</time>
      </trkpt>
      <trkpt lat="46.14601" lon="6.76662">
        <ele>1340.3</ele>
        <time>2018-03-16T12:19:33Z</time>
      </trkpt>
      <trkpt lat="46.14593" lon="6.76667">
        <ele>1339</ele>
        <time>2018-03-16T12:19:34Z</time>
      </trkpt>
      <trkpt lat="46.14585" lon="6.76672">
        <ele>1337.9</ele>
        <time>2018-03-16T12:19:35Z</time>
      </trkpt>
      <trkpt lat="46.14579" lon="6.76676">
        <ele>1336.6</ele>
        <time>2018-03-16T12:19:36Z</time>
      </trkpt>
      <trkpt lat="46.14573" lon="6.76675">
        <ele>1336</ele>
        <time>2018-03-16T12:19:37Z</time>
      </trkpt>
      <trkpt lat="46.14568" lon="6.76673">
        <ele>1334.4</ele>
        <time>2018-03-16T12:19:38Z</time>
      </trkpt>
      <trkpt lat="46.14562" lon="6.7667">
        <ele>1333.6</ele>
        <time>2018-03-16T12:19:39Z</time>
      </trkpt>
      <trkpt lat="46.14554" lon="6.76667">
        <ele>1332.3</ele>
        <time>2018-03-16T12:19:40Z</time>
      </trkpt>
      <trkpt lat="46.14547" lon="6.76665">
        <ele>1331.2</ele>
        <time>2018-03-16T12:19:41Z</time>
      </trkpt>
      <trkpt lat="46.1454" lon="6.76665">
        <ele>1330.6</ele>
        <time>2018-03-16T12:19:42Z</time>
      </trkpt>
      <trkpt lat="46.14533" lon="6.76663">
        <ele>1329.3</ele>
        <time>2018-03-16T12:19:43Z</time>
      </trkpt>
      <trkpt lat="46.14527" lon="6.76658">
        <ele>1328.4</ele>
        <time>2018-03-16T12:19:44Z</time>
      </trkpt>
      <trkpt lat="46.14526" lon="6.76653">
        <ele>1328.1</ele>
        <time>2018-03-16T12:19:45Z</time>
      </trkpt>
      <trkpt lat="46.1453" lon="6.76654">
        <ele>1328</ele>
        <time>2018-03-16T12:19:48Z</time>
      </trkpt>
      <trkpt lat="46.14532" lon="6.76653">
        <ele>1327.9</ele>
        <time>2018-03-16T12:19:49Z</time>
      </trkpt>
      <trkpt lat="46.14536" lon="6.76651">
        <ele>1327.8</ele>
        <time>2018-03-16T12:19:50Z</time>
      </trkpt>
      <trkpt lat="46.1454" lon="6.76649">
        <ele>1327.7</ele>
        <time>2018-03-16T12:19:51Z</time>
      </trkpt>
      <trkpt lat="46.14544" lon="6.76647">
        <ele>1327.5</ele>
        <time>2018-03-16T12:19:52Z</time>
      </trkpt>
      <trkpt lat="46.14548" lon="6.76644">
        <ele>1327.1</ele>
        <time>2018-03-16T12:19:53Z</time>
      </trkpt>
      <trkpt lat="46.14553" lon="6.7664">
        <ele>1326.9</ele>
        <time>2018-03-16T12:19:54Z</time>
      </trkpt>
      <trkpt lat="46.14559" lon="6.76637">
        <ele>1326.6</ele>
        <time>2018-03-16T12:19:55Z</time>
      </trkpt>
      <trkpt lat="46.14564" lon="6.76633">
        <ele>1326.2</ele>
        <time>2018-03-16T12:19:56Z</time>
      </trkpt>
      <trkpt lat="46.14568" lon="6.76628">
        <ele>1326</ele>
        <time>2018-03-16T12:19:57Z</time>
      </trkpt>
      <trkpt lat="46.14572" lon="6.76623">
        <ele>1325.9</ele>
        <time>2018-03-16T12:19:58Z</time>
      </trkpt>
      <trkpt lat="46.14576" lon="6.76619">
        <ele>1325.9</ele>
        <time>2018-03-16T12:19:59Z</time>
      </trkpt>
      <trkpt lat="46.14578" lon="6.7661">
        <ele>1325.8</ele>
        <time>2018-03-16T12:20:00Z</time>
      </trkpt>
      <trkpt lat="46.14581" lon="6.76603">
        <ele>1325.6</ele>
        <time>2018-03-16T12:20:01Z</time>
      </trkpt>
      <trkpt lat="46.14586" lon="6.76597">
        <ele>1325.4</ele>
        <time>2018-03-16T12:20:02Z</time>
      </trkpt>
      <trkpt lat="46.14589" lon="6.7659">
        <ele>1325.3</ele>
        <time>2018-03-16T12:20:03Z</time>
      </trkpt>
      <trkpt lat="46.14593" lon="6.76584">
        <ele>1325.2</ele>
        <time>2018-03-16T12:20:04Z</time>
      </trkpt>
      <trkpt lat="46.14596" lon="6.76577">
        <ele>1324.9</ele>
        <time>2018-03-16T12:20:05Z</time>
      </trkpt>
      <trkpt lat="46.14599" lon="6.76571">
        <ele>1324.8</ele>
        <time>2018-03-16T12:20:06Z</time>
      </trkpt>
      <trkpt lat="46.14603" lon="6.76563">
        <ele>1324.6</ele>
        <time>2018-03-16T12:20:07Z</time>
      </trkpt>
      <trkpt lat="46.14606" lon="6.76556">
        <ele>1324.4</ele>
        <time>2018-03-16T12:20:08Z</time>
      </trkpt>
      <trkpt lat="46.14608" lon="6.76549">
        <ele>1324.2</ele>
        <time>2018-03-16T12:20:09Z</time>
      </trkpt>
      <trkpt lat="46.1461" lon="6.76542">
        <ele>1324</ele>
        <time>2018-03-16T12:20:10Z</time>
      </trkpt>
      <trkpt lat="46.14612" lon="6.76535">
        <ele>1323.9</ele>
        <time>2018-03-16T12:20:11Z</time>
      </trkpt>
      <trkpt lat="46.14615" lon="6.76527">
        <ele>1323.6</ele>
        <time>2018-03-16T12:20:12Z</time>
      </trkpt>
      <trkpt lat="46.14618" lon="6.76519">
        <ele>1323.3</ele>
        <time>2018-03-16T12:20:13Z</time>
      </trkpt>
      <trkpt lat="46.14621" lon="6.76509">
        <ele>1322.8</ele>
        <time>2018-03-16T12:20:14Z</time>
      </trkpt>
      <trkpt lat="46.14623" lon="6.76504">
        <ele>1322.6</ele>
        <time>2018-03-16T12:20:15Z</time>
      </trkpt>
      <trkpt lat="46.14625" lon="6.76497">
        <ele>1322.5</ele>
        <time>2018-03-16T12:20:16Z</time>
      </trkpt>
      <trkpt lat="46.14626" lon="6.76486">
        <ele>1322.3</ele>
        <time>2018-03-16T12:20:17Z</time>
      </trkpt>
      <trkpt lat="46.14628" lon="6.76478">
        <ele>1322</ele>
        <time>2018-03-16T12:20:18Z</time>
      </trkpt>
      <trkpt lat="46.14629" lon="6.76474">
        <ele>1322</ele>
        <time>2018-03-16T12:20:19Z</time>
      </trkpt>
      <trkpt lat="46.1463" lon="6.76466">
        <ele>1321.9</ele>
        <time>2018-03-16T12:20:20Z</time>
      </trkpt>
      <trkpt lat="46.14632" lon="6.76457">
        <ele>1321.8</ele>
        <time>2018-03-16T12:20:21Z</time>
      </trkpt>
      <trkpt lat="46.14636" lon="6.76447">
        <ele>1321.6</ele>
        <time>2018-03-16T12:20:22Z</time>
      </trkpt>
      <trkpt lat="46.1464" lon="6.76438">
        <ele>1321.5</ele>
        <time>2018-03-16T12:20:23Z</time>
      </trkpt>
      <trkpt lat="46.14643" lon="6.76428">
        <ele>1321.2</ele>
        <time>2018-03-16T12:20:24Z</time>
      </trkpt>
      <trkpt lat="46.14647" lon="6.7642">
        <ele>1321</ele>
        <time>2018-03-16T12:20:25Z</time>
      </trkpt>
      <trkpt lat="46.14652" lon="6.76412">
        <ele>1320.8</ele>
        <time>2018-03-16T12:20:26Z</time>
      </trkpt>
      <trkpt lat="46.14657" lon="6.76404">
        <ele>1320.6</ele>
        <time>2018-03-16T12:20:27Z</time>
      </trkpt>
      <trkpt lat="46.14661" lon="6.76397">
        <ele>1320.5</ele>
        <time>2018-03-16T12:20:28Z</time>
      </trkpt>
      <trkpt lat="46.14665" lon="6.76387">
        <ele>1320.2</ele>
        <time>2018-03-16T12:20:29Z</time>
      </trkpt>
      <trkpt lat="46.14668" lon="6.76379">
        <ele>1320</ele>
        <time>2018-03-16T12:20:30Z</time>
      </trkpt>
      <trkpt lat="46.14672" lon="6.7637">
        <ele>1319.7</ele>
        <time>2018-03-16T12:20:31Z</time>
      </trkpt>
      <trkpt lat="46.14677" lon="6.7636">
        <ele>1319.2</ele>
        <time>2018-03-16T12:20:32Z</time>
      </trkpt>
      <trkpt lat="46.14681" lon="6.76347">
        <ele>1319</ele>
        <time>2018-03-16T12:20:33Z</time>
      </trkpt>
      <trkpt lat="46.14685" lon="6.76338">
        <ele>1318.2</ele>
        <time>2018-03-16T12:20:34Z</time>
      </trkpt>
      <trkpt lat="46.14689" lon="6.76327">
        <ele>1316.9</ele>
        <time>2018-03-16T12:20:35Z</time>
      </trkpt>
      <trkpt lat="46.14692" lon="6.76317">
        <ele>1315.3</ele>
        <time>2018-03-16T12:20:36Z</time>
      </trkpt>
      <trkpt lat="46.14693" lon="6.76306">
        <ele>1313.7</ele>
        <time>2018-03-16T12:20:37Z</time>
      </trkpt>
      <trkpt lat="46.14694" lon="6.76296">
        <ele>1312.5</ele>
        <time>2018-03-16T12:20:38Z</time>
      </trkpt>
      <trkpt lat="46.14696" lon="6.76284">
        <ele>1309.9</ele>
        <time>2018-03-16T12:20:39Z</time>
      </trkpt>
      <trkpt lat="46.14697" lon="6.76271">
        <ele>1307.2</ele>
        <time>2018-03-16T12:20:40Z</time>
      </trkpt>
      <trkpt lat="46.14698" lon="6.76258">
        <ele>1304.9</ele>
        <time>2018-03-16T12:20:41Z</time>
      </trkpt>
      <trkpt lat="46.14699" lon="6.76246">
        <ele>1303.1</ele>
        <time>2018-03-16T12:20:42Z</time>
      </trkpt>
      <trkpt lat="46.147" lon="6.76233">
        <ele>1301.4</ele>
        <time>2018-03-16T12:20:43Z</time>
      </trkpt>
      <trkpt lat="46.147" lon="6.76221">
        <ele>1299.4</ele>
        <time>2018-03-16T12:20:44Z</time>
      </trkpt>
      <trkpt lat="46.14701" lon="6.76207">
        <ele>1297.1</ele>
        <time>2018-03-16T12:20:45Z</time>
      </trkpt>
      <trkpt lat="46.14699" lon="6.76195">
        <ele>1295.1</ele>
        <time>2018-03-16T12:20:46Z</time>
      </trkpt>
      <trkpt lat="46.14697" lon="6.76184">
        <ele>1293.3</ele>
        <time>2018-03-16T12:20:47Z</time>
      </trkpt>
      <trkpt lat="46.14695" lon="6.7617">
        <ele>1290.9</ele>
        <time>2018-03-16T12:20:48Z</time>
      </trkpt>
      <trkpt lat="46.14693" lon="6.76156">
        <ele>1288.7</ele>
        <time>2018-03-16T12:20:49Z</time>
      </trkpt>
      <trkpt lat="46.14694" lon="6.76145">
        <ele>1286.8</ele>
        <time>2018-03-16T12:20:50Z</time>
      </trkpt>
      <trkpt lat="46.14694" lon="6.76133">
        <ele>1284.7</ele>
        <time>2018-03-16T12:20:51Z</time>
      </trkpt>
      <trkpt lat="46.14694" lon="6.76124">
        <ele>1282.7</ele>
        <time>2018-03-16T12:20:52Z</time>
      </trkpt>
      <trkpt lat="46.14695" lon="6.76115">
        <ele>1281</ele>
        <time>2018-03-16T12:20:53Z</time>
      </trkpt>
      <trkpt lat="46.14693" lon="6.76109">
        <ele>1279.7</ele>
        <time>2018-03-16T12:20:54Z</time>
      </trkpt>
      <trkpt lat="46.14695" lon="6.76101">
        <ele>1278.2</ele>
        <time>2018-03-16T12:20:56Z</time>
      </trkpt>
      <trkpt lat="46.14694" lon="6.76096">
        <ele>1277.5</ele>
        <time>2018-03-16T12:20:57Z</time>
      </trkpt>
      <trkpt lat="46.147" lon="6.76076">
        <ele>1271.9</ele>
        <time>2018-03-16T12:21:25Z</time>
      </trkpt>
      <trkpt lat="46.14702" lon="6.76073">
        <ele>1269.5</ele>
        <time>2018-03-16T12:21:26Z</time>
      </trkpt>
      <trkpt lat="46.14703" lon="6.76069">
        <ele>1267</ele>
        <time>2018-03-16T12:21:27Z</time>
      </trkpt>
      <trkpt lat="46.14706" lon="6.76066">
        <ele>1264.4</ele>
        <time>2018-03-16T12:21:28Z</time>
      </trkpt>
      <trkpt lat="46.14702" lon="6.76056">
        <ele>1264.8</ele>
        <time>2018-03-16T12:21:38Z</time>
      </trkpt>
      <trkpt lat="46.14698" lon="6.76051">
        <ele>1265</ele>
        <time>2018-03-16T12:21:40Z</time>
      </trkpt>
      <trkpt lat="46.14704" lon="6.76049">
        <ele>1263.7</ele>
        <time>2018-03-16T12:21:50Z</time>
      </trkpt>
      <trkpt lat="46.14708" lon="6.76043">
        <ele>1263.3</ele>
        <time>2018-03-16T12:21:53Z</time>
      </trkpt>
      <trkpt lat="46.1471" lon="6.76039">
        <ele>1262.7</ele>
        <time>2018-03-16T12:21:54Z</time>
      </trkpt>
      <trkpt lat="46.14713" lon="6.76034">
        <ele>1261.9</ele>
        <time>2018-03-16T12:21:55Z</time>
      </trkpt>
      <trkpt lat="46.14716" lon="6.76028">
        <ele>1260.9</ele>
        <time>2018-03-16T12:21:56Z</time>
      </trkpt>
      <trkpt lat="46.14718" lon="6.76024">
        <ele>1260</ele>
        <time>2018-03-16T12:21:57Z</time>
      </trkpt>
      <trkpt lat="46.1472" lon="6.76019">
        <ele>1259.3</ele>
        <time>2018-03-16T12:21:58Z</time>
      </trkpt>
      <trkpt lat="46.14721" lon="6.76014">
        <ele>1258.5</ele>
        <time>2018-03-16T12:21:59Z</time>
      </trkpt>
      <trkpt lat="46.14724" lon="6.76009">
        <ele>1257.7</ele>
        <time>2018-03-16T12:22:00Z</time>
      </trkpt>
      <trkpt lat="46.14726" lon="6.76003">
        <ele>1256.8</ele>
        <time>2018-03-16T12:22:01Z</time>
      </trkpt>
      <trkpt lat="46.14728" lon="6.75996">
        <ele>1255.8</ele>
        <time>2018-03-16T12:22:02Z</time>
      </trkpt>
      <trkpt lat="46.1473" lon="6.75991">
        <ele>1255</ele>
        <time>2018-03-16T12:22:03Z</time>
      </trkpt>
      <trkpt lat="46.14732" lon="6.75986">
        <ele>1254.1</ele>
        <time>2018-03-16T12:22:04Z</time>
      </trkpt>
      <trkpt lat="46.14734" lon="6.7598">
        <ele>1253.4</ele>
        <time>2018-03-16T12:22:05Z</time>
      </trkpt>
      <trkpt lat="46.14736" lon="6.75974">
        <ele>1252.6</ele>
        <time>2018-03-16T12:22:06Z</time>
      </trkpt>
      <trkpt lat="46.14738" lon="6.75967">
        <ele>1251.6</ele>
        <time>2018-03-16T12:22:07Z</time>
      </trkpt>
      <trkpt lat="46.14741" lon="6.75962">
        <ele>1250.6</ele>
        <time>2018-03-16T12:22:08Z</time>
      </trkpt>
      <trkpt lat="46.14744" lon="6.75958">
        <ele>1249.7</ele>
        <time>2018-03-16T12:22:09Z</time>
      </trkpt>
      <trkpt lat="46.14747" lon="6.75955">
        <ele>1249</ele>
        <time>2018-03-16T12:22:10Z</time>
      </trkpt>
      <trkpt lat="46.14749" lon="6.75952">
        <ele>1248.3</ele>
        <time>2018-03-16T12:22:11Z</time>
      </trkpt>
      <trkpt lat="46.14752" lon="6.75948">
        <ele>1247.3</ele>
        <time>2018-03-16T12:22:12Z</time>
      </trkpt>
      <trkpt lat="46.14758" lon="6.75945">
        <ele>1246</ele>
        <time>2018-03-16T12:22:13Z</time>
      </trkpt>
      <trkpt lat="46.14763" lon="6.75944">
        <ele>1245.3</ele>
        <time>2018-03-16T12:22:14Z</time>
      </trkpt>
      <trkpt lat="46.14767" lon="6.75942">
        <ele>1244</ele>
        <time>2018-03-16T12:22:15Z</time>
      </trkpt>
      <trkpt lat="46.14772" lon="6.7594">
        <ele>1243.4</ele>
        <time>2018-03-16T12:22:16Z</time>
      </trkpt>
      <trkpt lat="46.1478" lon="6.75936">
        <ele>1241.9</ele>
        <time>2018-03-16T12:22:17Z</time>
      </trkpt>
      <trkpt lat="46.14785" lon="6.7593">
        <ele>1240.4</ele>
        <time>2018-03-16T12:22:18Z</time>
      </trkpt>
      <trkpt lat="46.1479" lon="6.75925">
        <ele>1238.6</ele>
        <time>2018-03-16T12:22:19Z</time>
      </trkpt>
      <trkpt lat="46.14791" lon="6.75922">
        <ele>1238</ele>
        <time>2018-03-16T12:22:20Z</time>
      </trkpt>
      <trkpt lat="46.14794" lon="6.75919">
        <ele>1236.8</ele>
        <time>2018-03-16T12:22:21Z</time>
      </trkpt>
      <trkpt lat="46.14798" lon="6.75917">
        <ele>1236.2</ele>
        <time>2018-03-16T12:22:22Z</time>
      </trkpt>
      <trkpt lat="46.14805" lon="6.75922">
        <ele>1236.1</ele>
        <time>2018-03-16T12:22:23Z</time>
      </trkpt>
      <trkpt lat="46.14811" lon="6.75925">
        <ele>1238.2</ele>
        <time>2018-03-16T12:22:24Z</time>
      </trkpt>
      <trkpt lat="46.14816" lon="6.75929">
        <ele>1240.1</ele>
        <time>2018-03-16T12:22:25Z</time>
      </trkpt>
      <trkpt lat="46.1482" lon="6.75932">
        <ele>1241.7</ele>
        <time>2018-03-16T12:22:26Z</time>
      </trkpt>
      <trkpt lat="46.14824" lon="6.75934">
        <ele>1243.2</ele>
        <time>2018-03-16T12:22:27Z</time>
      </trkpt>
      <trkpt lat="46.14828" lon="6.75936">
        <ele>1244.6</ele>
        <time>2018-03-16T12:22:28Z</time>
      </trkpt>
      <trkpt lat="46.14833" lon="6.75937">
        <ele>1245.7</ele>
        <time>2018-03-16T12:22:30Z</time>
      </trkpt>
      <trkpt lat="46.14839" lon="6.75934">
        <ele>1245.3</ele>
        <time>2018-03-16T12:22:32Z</time>
      </trkpt>
      <trkpt lat="46.14841" lon="6.75932">
        <ele>1245.1</ele>
        <time>2018-03-16T12:22:33Z</time>
      </trkpt>
      <trkpt lat="46.14845" lon="6.7593">
        <ele>1244.8</ele>
        <time>2018-03-16T12:22:35Z</time>
      </trkpt>
      <trkpt lat="46.14849" lon="6.75928">
        <ele>1244.5</ele>
        <time>2018-03-16T12:22:37Z</time>
      </trkpt>
      <trkpt lat="46.14852" lon="6.75927">
        <ele>1244.2</ele>
        <time>2018-03-16T12:22:38Z</time>
      </trkpt>
      <trkpt lat="46.14857" lon="6.75924">
        <ele>1243.8</ele>
        <time>2018-03-16T12:22:39Z</time>
      </trkpt>
      <trkpt lat="46.14862" lon="6.75921">
        <ele>1243.3</ele>
        <time>2018-03-16T12:22:40Z</time>
      </trkpt>
      <trkpt lat="46.14866" lon="6.75919">
        <ele>1242.8</ele>
        <time>2018-03-16T12:22:41Z</time>
      </trkpt>
      <trkpt lat="46.14869" lon="6.75914">
        <ele>1242.3</ele>
        <time>2018-03-16T12:22:42Z</time>
      </trkpt>
      <trkpt lat="46.14873" lon="6.7591">
        <ele>1241.7</ele>
        <time>2018-03-16T12:22:43Z</time>
      </trkpt>
      <trkpt lat="46.14881" lon="6.75911">
        <ele>1240.7</ele>
        <time>2018-03-16T12:22:44Z</time>
      </trkpt>
      <trkpt lat="46.14887" lon="6.75915">
        <ele>1239.8</ele>
        <time>2018-03-16T12:22:45Z</time>
      </trkpt>
      <trkpt lat="46.14895" lon="6.75919">
        <ele>1238.5</ele>
        <time>2018-03-16T12:22:46Z</time>
      </trkpt>
      <trkpt lat="46.14902" lon="6.75921">
        <ele>1237.4</ele>
        <time>2018-03-16T12:22:47Z</time>
      </trkpt>
      <trkpt lat="46.14909" lon="6.7592">
        <ele>1236.4</ele>
        <time>2018-03-16T12:22:48Z</time>
      </trkpt>
      <trkpt lat="46.14914" lon="6.75918">
        <ele>1235.5</ele>
        <time>2018-03-16T12:22:49Z</time>
      </trkpt>
      <trkpt lat="46.14919" lon="6.75915">
        <ele>1234.5</ele>
        <time>2018-03-16T12:22:50Z</time>
      </trkpt>
      <trkpt lat="46.14924" lon="6.75908">
        <ele>1233.2</ele>
        <time>2018-03-16T12:22:51Z</time>
      </trkpt>
      <trkpt lat="46.14929" lon="6.75899">
        <ele>1231.5</ele>
        <time>2018-03-16T12:22:52Z</time>
      </trkpt>
      <trkpt lat="46.14935" lon="6.7589">
        <ele>1230</ele>
        <time>2018-03-16T12:22:53Z</time>
      </trkpt>
      <trkpt lat="46.1494" lon="6.75878">
        <ele>1230</ele>
        <time>2018-03-16T12:22:54Z</time>
      </trkpt>
      <trkpt lat="46.14945" lon="6.75868">
        <ele>1230</ele>
        <time>2018-03-16T12:22:55Z</time>
      </trkpt>
      <trkpt lat="46.14949" lon="6.75858">
        <ele>1229.4</ele>
        <time>2018-03-16T12:22:56Z</time>
      </trkpt>
      <trkpt lat="46.14951" lon="6.75849">
        <ele>1227.4</ele>
        <time>2018-03-16T12:22:57Z</time>
      </trkpt>
      <trkpt lat="46.14951" lon="6.75837">
        <ele>1224.9</ele>
        <time>2018-03-16T12:22:58Z</time>
      </trkpt>
      <trkpt lat="46.1495" lon="6.75825">
        <ele>1222.6</ele>
        <time>2018-03-16T12:22:59Z</time>
      </trkpt>
      <trkpt lat="46.14949" lon="6.7581">
        <ele>1220.4</ele>
        <time>2018-03-16T12:23:00Z</time>
      </trkpt>
      <trkpt lat="46.14948" lon="6.75797">
        <ele>1218.5</ele>
        <time>2018-03-16T12:23:01Z</time>
      </trkpt>
      <trkpt lat="46.14947" lon="6.75783">
        <ele>1216.6</ele>
        <time>2018-03-16T12:23:02Z</time>
      </trkpt>
      <trkpt lat="46.14947" lon="6.75768">
        <ele>1214.8</ele>
        <time>2018-03-16T12:23:03Z</time>
      </trkpt>
      <trkpt lat="46.14947" lon="6.75754">
        <ele>1213</ele>
        <time>2018-03-16T12:23:04Z</time>
      </trkpt>
      <trkpt lat="46.14947" lon="6.75741">
        <ele>1211.5</ele>
        <time>2018-03-16T12:23:05Z</time>
      </trkpt>
      <trkpt lat="46.14947" lon="6.75725">
        <ele>1209.6</ele>
        <time>2018-03-16T12:23:06Z</time>
      </trkpt>
      <trkpt lat="46.14948" lon="6.7571">
        <ele>1207.8</ele>
        <time>2018-03-16T12:23:07Z</time>
      </trkpt>
      <trkpt lat="46.14948" lon="6.75694">
        <ele>1205.9</ele>
        <time>2018-03-16T12:23:08Z</time>
      </trkpt>
      <trkpt lat="46.14947" lon="6.75678">
        <ele>1204</ele>
        <time>2018-03-16T12:23:09Z</time>
      </trkpt>
      <trkpt lat="46.14947" lon="6.75662">
        <ele>1202.2</ele>
        <time>2018-03-16T12:23:10Z</time>
      </trkpt>
      <trkpt lat="46.14947" lon="6.75649">
        <ele>1200.6</ele>
        <time>2018-03-16T12:23:11Z</time>
      </trkpt>
      <trkpt lat="46.14946" lon="6.75636">
        <ele>1199.1</ele>
        <time>2018-03-16T12:23:12Z</time>
      </trkpt>
      <trkpt lat="46.14948" lon="6.7562">
        <ele>1197.2</ele>
        <time>2018-03-16T12:23:13Z</time>
      </trkpt>
      <trkpt lat="46.14949" lon="6.75608">
        <ele>1195.7</ele>
        <time>2018-03-16T12:23:14Z</time>
      </trkpt>
      <trkpt lat="46.1495" lon="6.75597">
        <ele>1194.5</ele>
        <time>2018-03-16T12:23:15Z</time>
      </trkpt>
      <trkpt lat="46.14951" lon="6.75588">
        <ele>1193.4</ele>
        <time>2018-03-16T12:23:16Z</time>
      </trkpt>
      <trkpt lat="46.14949" lon="6.75583">
        <ele>1192.9</ele>
        <time>2018-03-16T12:23:17Z</time>
      </trkpt>
      <trkpt lat="46.14949" lon="6.75577">
        <ele>1192.2</ele>
        <time>2018-03-16T12:23:18Z</time>
      </trkpt>
      <trkpt lat="46.14948" lon="6.75571">
        <ele>1191.4</ele>
        <time>2018-03-16T12:23:19Z</time>
      </trkpt>
      <trkpt lat="46.14946" lon="6.75568">
        <ele>1190.9</ele>
        <time>2018-03-16T12:23:20Z</time>
      </trkpt>
    </trkseg>
  </trk>
</gpx>